     2.00           OBSERVATION DATA    G (GPS)             RINEX VERSION / TYPE
teqc 1999Jul15 UNAVCO Archive Ops 19990825 17:12:44UTC      PGM / RUN BY / DATE
Solaris 2.3|S-Sparc|cc SC3.0|=+|*Sparc                      COMMENT
BIT 2 OF LLI FLAGS DATA COLLECTED UNDER A/S CONDITION       COMMENT
67TJ                                                        MARKER NAME
Stirewalt/Abolins UNKNOWN                                   OBSERVER / AGENCY
3526A11517 TRIMBLE 4000SSE NP 7.12; SP 3.04                 REC # / TYPE / VERS
0220024315 TR GEOD L1/L2 GP                                 ANT # / TYPE
 -2273224.0000 -4580133.0000  3801413.0000                  APPROX POSITION XYZ
        1.1628        0.0000        0.0000                  ANTENNA: DELTA H/E/N
     1     1                                                WAVELENGTH FACT L1/2
     7    L1    L2    C1    P2    P1    D1    D2            # / TYPES OF OBSERV
    30.0000                                                 INTERVAL
NOTICE: YOUR USE OF THIS FILE IMPLIES YOUR                  COMMENT
ACCEPTANCE OF THE UNAVCO DATA SHARING POLICY                COMMENT
READ THE POLICY AT:                                         COMMENT
http://www.unavco.ucar.edu/data/data_policy.html            COMMENT
AND FOLLOW THE POLICY OR DELETE THIS FILE.                  COMMENT
                                                            COMMENT
RINEX file created by UNAVCO GPS Archive.                   COMMENT
For more information contact archive@unavco.ucar.edu        COMMENT
Monument ID: EJDGLS5D-11082-1995a                           COMMENT
UNAVCO 4-char name: 67TJ                                    COMMENT
4-char name from Log or data file: 67TJ                     COMMENT
Monument location: 36.8132 -116.396 993.704912              COMMENT
Original XYZ: -2273205.5073 -4580145.6408 3801412.3373      COMMENT
New XYZ position is based on association with SCEC monument COMMENT
E1G0J9V1+0011.                                              COMMENT
Visit ID: 28702 RawID: 12603                                COMMENT
Antenna height measured: 1.244                              COMMENT
Antenna height measured type: S                             COMMENT
Corrected antenna height validated? Y                       COMMENT
If Yes, then logsheet & data file values are identical      COMMENT
End of DB comments                                          COMMENT
SNR is mapped to RINEX snr flag value [1-9]                 COMMENT
L1: 3 -> 1; 8 -> 5; 40 -> 9                                 COMMENT
L2: 1 -> 1; 5 -> 5; 60 -> 9                                 COMMENT
  1996     8    31    15    32    0.0000000     GPS         TIME OF FIRST OBS
                                                            END OF HEADER
 96  8 31 15 32  0.0000000  0  3G 5G 6G24
    -49751.01157    -30007.44557  21174231.6724   21174230.1374
       201.0634        156.6724
   -837555.83356   -652640.79856  22180391.9534   22180390.1724
      4662.3914       3633.0324
    -17862.57257    -13919.06856  22131444.8594   22131444.1914
        52.0634         40.5684
 96  8 31 15 32 30.0000000  0  3G 5G 6G24
    -55328.62247    -34353.62747  21173170.3834   21173168.8014
       171.1094        133.3324
   -977155.57147   -761419.77246  22153826.9454   22153825.2934
      4644.5634       3619.1404
    -19140.07547    -14914.50846  22131201.6334   22131200.7424
        33.2814         25.9334
 96  8 31 15 33  0.0000000  0  3G 5G 6G24
    -60007.32847    -37999.36847  21172280.0474   21172278.6994
       140.8284        109.7364
  -1116220.74447   -869782.20946  22127363.6954   22127362.0204
      4626.3444       3604.9434
    -19848.88647    -15466.81946  22131066.7344   22131065.8554
        13.9534         10.8734
 96  8 31 15 33 30.0000000  0  3G 5G 6G24
    -63793.54147    -40949.66347  21171559.6334   21171558.2154
       111.6564         87.0054
  -1254755.72947   -977731.51246  22101001.1644   22100999.4654
      4609.4224       3591.7574
    -19992.34447    -15578.58746  22131039.8524   22131038.9614
        -4.2974         -3.3484
 96  8 31 15 34  0.0000000  0  3G 5G 6G24
    -66737.37447    -43243.56647  21170999.3204   21170997.8444
        84.9844         66.2224
  -1392812.76947  -1085308.39446  22074730.1094   22074728.5634
      4594.7034       3580.2884
    -19621.90247    -15289.93046  22131110.2194   22131109.2464
       -19.9374        -15.5364
 96  8 31 15 34 30.0000000  0  3G 5G 6G24
    -68913.86047    -44939.52347  21170585.2034   21170583.6094
        60.5314         47.1674
  -1530451.79747  -1192559.54646  22048538.2034   22048536.5394
      4581.4534       3569.9634
    -18807.16947    -14655.05746  22131265.3594   22131264.4804
       -34.2034        -26.6524
 96  8 31 15 35  0.0000000  0  3G 5G 6G24
    -70353.92147    -46061.64847  21170311.3674   21170309.9734
        35.4384         27.6144
  -1667680.12147  -1299490.67046  22022424.3284   22022422.6884
      4567.1094       3558.7874
    -17555.77847    -13679.94346  22131503.4534   22131502.7504
       -49.0474        -38.2184
 96  8 31 15 35 29.9990000  0  3G 5G 6G24
    -71022.86847    -46582.90847  21170183.9954   21170182.6474
         9.4844          7.3904
  -1804463.01447  -1406074.70746  21996395.5894   21996393.7614
      4552.4064       3547.3304
    -15855.55747    -12355.08246  22131826.6124   22131825.9444
       -64.0474        -49.9074
 96  8 31 15 35 59.9990000  0  3G 5G 6G24
    -70943.14247    -46520.79147  21170199.1904   21170197.8084
       -15.0784        -11.7494
  -1940831.45247  -1512335.79546  21970445.3154   21970443.8624
      4538.5784       3536.5544
    -13724.12447    -10694.21146  22132232.5584   22132231.7024
       -78.3914        -61.0844
 96  8 31 15 36 29.9990000  0  4G 5G 6G10G24
    -70122.12447    -45881.04047  21170355.3154   21170353.8394
       -39.7814        -30.9984
  -2076788.82847  -1618276.57346  21944573.4724   21944571.8084
      4525.1564       3526.0964
    -77246.73257    -60192.26357  20978139.9804   20978138.9484
      2559.8914       1994.7204
    -11149.31447     -8687.86346  22132722.1444   22132721.6634
       -93.2974        -72.6994
 96  8 31 15 36 59.9990000  0  4G 5G 6G10G24
    -68559.62047    -44663.50847  21170652.7614   21170651.3664
       -64.3284        -50.1264
  -2212347.54947  -1723906.71046  21918777.6054   21918776.0464
      4512.3134       3516.0884
   -153604.22147   -119691.57247  20963609.3314   20963608.4294
      2530.6564       1971.9404
     -8136.28747     -6340.04546  22133295.6514   22133294.8314
      -107.4224        -83.7054
 96  8 31 15 37 29.9990000  0  4G 5G 6G10G24
    -66263.05447    -42873.98247  21171089.6284   21171088.1634
       -88.8444        -69.2294
  -2347534.84147  -1829247.42946  21893052.4484   21893050.7374
      4499.9844       3506.4814
   -229092.08347   -178513.25947  20949244.5344   20949243.4564
      2501.8284       1949.4764
     -4698.70746     -3661.40546  22133949.8474   22133949.2724
      -122.1094        -95.1504
 96  8 31 15 37 59.9990000  0  4G 5G 6G10G24
    -63232.06547    -40512.18147  21171666.6754   21171665.2924
      -113.1094        -88.1374
  -2482339.12547  -1934289.69346  21867399.8864   21867398.3044
      4487.0004       3496.3644
   -303718.40147   -236663.60847  20935043.5734   20935042.4014
      2473.3754       1927.3054
      -811.18047      -632.15646  22134689.5034   22134688.6474
      -136.9064       -106.6804
 96  8 31 15 38 29.9990000  0  5G 5G 6G10G17G24
    -59480.37947    -37588.79747  21172380.6444   21172379.3314
      -137.0164       -106.7654
  -2616756.30547  -2039030.32546  21841821.1984   21841819.5344
      4473.8754       3486.1364
   -377497.30047   -294153.63047  20921003.9564   20921002.8784
      2445.1414       1905.3044
  -3119967.48354  -2313026.35453  24359339.0584   24359339.9954
      5343.1564       4163.4984
      3510.49747      2735.39046  22135512.2764   22135511.5154
      -151.1414       -117.7724
 96  8 31 15 38 59.9990000  0  5G 5G 6G10G17G24
    -55003.43947    -34100.28347  21173232.5584   21173231.3154
      -161.5944       -125.9174
  -2750754.50647  -2143444.48046  21816321.9644   21816320.2534
      4459.1094       3474.6314
   -450407.81847   -350966.99647  20907129.7614   20907128.7764
      2415.1414       1881.9284
  -3280033.48744  -2437753.08142  24328879.7764   24328880.0814
      5327.9224       4151.6274
      8264.46747      6439.77846  22136417.0584   22136416.0504
      -166.0944       -129.4244
 96  8 31 15 39 29.9990000  0  5G 5G 6G10G17G24
    -49801.43247    -30046.78747  21174222.4564   21174221.0854
      -185.1874       -144.3024
  -2884318.08847  -2247519.97346  21790905.8394   21790904.1874
      4444.8914       3463.5514
   -522427.15047   -407085.92847  20893424.7924   20893423.8434
      2386.0634       1859.2694
  -3439663.93544  -2562140.38643  24298503.1594   24298503.3704
      5314.0634
      4140.8284      13458.13046  22137405.3704
      -180.2034
 96  8 31 15 39 59.9990000  0  5G 5G 6G10G17G24
    -43891.95647    -25442.00747  21175347.1514   21175345.7574
      -208.2974       -162.3094
  -3017437.60147  -2351249.43746  21765573.9724   21765572.2024
      4430.3594       3452.2284
   -593557.29747   -462511.99447  20879889.0344   20879888.1084
      2356.2034       1836.0024
  -3598867.37344  -2686194.93543  24268206.9874   24268208.0654
      5299.9844       4129.8584
     19075.94346       900.29756  22138474.1674   22138473.1944
      -193.6414       -150.8894
 96  8 31 15 40 29.9990000  0  5G 5G 6G10G17G24
    -37293.88947    -20300.66947  21176602.7764   21176601.5344
      -231.3284       -180.2564
  -3150143.43747  -2454656.55646  21740321.0034   21740319.4214
      4417.0944       3441.8914
   -663784.08847   -517234.14747  20866525.2144   20866524.2064
      2325.7194       1812.2484
  -3757656.57944  -2809926.77242  24237991.0894   24237991.8974
      5286.2974       4119.1924
     25080.65946      5579.30646  22139616.6834   22139616.0384
      -206.2664       -160.7264
 96  8 31 15 40 59.9990000  0  5G 5G 6G10G17G24
    -30008.59247    -14623.83447  21177989.1514   21177987.8514
      -254.4534       -198.2754
  -3282465.87347  -2557764.92646  21715140.6674   21715139.2024
      4404.5164       3432.0904
   -733095.53347   -571243.04847  20853335.7534   20853334.6634
      2294.9384       1788.2634
  -3916037.90944  -2933340.73643  24207851.2374   24207852.9604
      5272.2974       4108.2834
     31451.12446     10543.30446  22140829.1364   22140828.2224
      -218.4844       -170.2484
 96  8 31 15 41 29.9990000  0  5G 5G 6G10G17G24
    -22025.15647     -8402.98947  21179508.3474   21179507.1634
      -277.8914       -216.5384
  -3414418.39047  -2660585.04146  21690031.1284   21690029.4054
      4392.0314       3422.3624
   -801484.87847   -624533.42547  20840321.8624   20840320.7494
      2264.2034       1764.3144
  -4073989.74643  -3056420.06242  24177794.3474   24177795.6124
      5257.4224       4096.6924
     38185.48446     15790.85146  22142110.5114   22142110.1594
      -230.5624       -179.6594
 96  8 31 15 41 59.9990000  0  5G 5G 6G10G17G24
    -13341.91747     -1636.84147  21181160.7374   21181159.4484
      -301.1094       -234.6314
  -3545997.10347  -2763113.89146  21664992.4254   21664990.6904
      4379.8594       3412.8774
   -868947.23947   -677101.48247  20827484.1364   20827483.1984
      2233.3444       1740.2684
  -4231487.70344  -3179145.65142  24147824.6594   24147825.3514
      5242.3914       4084.9804
     45273.18546     21313.73146  22143459.4404   22143458.4804
      -241.9694       -188.5474
 96  8 31 15 42 29.9990000  0  5G 5G 6G10G17G24
     -3964.14547      5670.49947  21182945.1204   21182943.8084
      -324.3124       -252.7114
  -3677216.30647  -2865362.59146  21640022.1754   21640020.4644
      4367.6724       3403.3814
   -935497.62147   -728958.90847  20814820.0194   20814818.8704
      2203.1094       1716.7094
  -4388543.42544  -3301526.68443  24117937.5344   24117938.1204
      5227.6564       4073.4984
     52701.68146     27102.16746  22144873.3084   22144872.7694
      -253.7344       -197.7154
 96  8 31 15 42 59.9990000  0  5G 5G 6G10G17G24
      6106.45147     13517.70347  21184861.5194   21184860.1944
      -346.9064       -270.3174
  -3808051.31247  -2967311.92146  21615125.4724   21615123.6674
      4354.7034       3393.2754
  -1001147.23747   -780114.43047  20802327.4254   20802326.3474
      2173.8134       1693.8804
  -4545151.07643  -3423558.59942  24088134.6754   24088135.0504
      5213.0784       4062.1394
     60501.51446     33179.95646  22146357.5264   22146356.6244
      -266.1414       -207.3824
 96  8 31 15 43 29.9990000  0  5G 5G 6G10G17G24
     16853.33647     21891.88847  21186906.5734   21186905.1204
      -369.7034       -288.0804
  -3938486.83847  -3068949.96946  21590304.4804   21590302.7574
      4340.7344       3382.3904
  -1065927.82647   -830592.79047  20790000.0974   20789998.9014
      2144.8754       1671.3314
  -4701332.36844  -3545258.23143  24058415.5034   24058415.8784
      5198.9534       4051.1324
     68676.82846     39550.32946  22147912.9564   22147912.1944
      -279.0164       -217.4154
 96  8 31 15 43 59.9990000  0  5G 5G 6G10G17G24
     28284.69347     30799.41747  21189082.0814   21189080.8044
      -392.3444       -305.7224
  -4068498.13247  -3170257.44746  21565563.9874   21565562.3354
      4326.9224       3371.6274
  -1129842.73247   -880396.59947  20777837.3314   20777836.1944
      2116.3444       1649.0994
  -4857093.77644  -3666630.67843  24028774.4254   24028776.3004
      5185.3444       4040.5284
     77247.10146     46228.45846  22149544.1514   22149543.5544
      -292.3594       -227.8124
 96  8 31 15 44 29.9990000  0  5G 5G 6G10G17G24
     40399.65647     40239.63247  21191387.3554   21191385.9484
      -414.8754       -323.2794
  -4198092.78947  -3271240.27546  21540903.0814   21540901.3004
      4313.0164       3360.7914
  -1192902.32647   -929533.92947  20765837.4484   20765836.2184
      2087.8134       1626.8674
  -5012441.76744  -3787681.04243  23999213.1204   23999212.2534
      5171.4534       4029.7044
     86230.07946     53228.17846  22151253.2064   22151252.9604
      -306.2194       -238.6124
 96  8 31 15 44 59.9990000  0  5G 5G 6G10G17G24
     53180.32447     50198.57047  21193819.5034   21193818.1554
      -437.3594       -340.8004
  -4327271.76647  -3371899.19746  21516321.2144   21516319.3274
      4298.8134       3349.7244
  -1255113.31347   -978010.01047  20753999.2844   20753998.2654
      2059.6414       1604.9154
  -5167368.82644  -3908403.32643  23969731.2144   23969730.3584
      5156.9534       4018.4054
     95613.39446     60539.84446  22153038.9334   22153038.3944
      -319.1724       -248.7054
 96  8 31 15 45 29.9990000  0  5G 5G 6G10G17G24
     66640.54147     60687.03546  21196381.0194   21196379.5894
      -459.9534       -358.4054
  -4456026.84047  -3472227.79746  21491819.7374   21491817.9914
      4284.9844       3338.9494
  -1316476.83647  -1025825.72847  20742322.0894   20742321.0344
      2031.2504       1582.7924
  -5321857.51444  -4028784.06443  23940333.1364   23940333.1594
      5142.1884       4006.8994
    105373.38446     68145.02646  22154895.8084   22154895.8784
      -331.5314       -258.3364
 96  8 31 15 45 59.9990000  0  5G 5G 6G10G17G24
     80772.10147     71698.61846  21199070.3234   21199069.1634
      -482.1874       -375.7314
  -4584385.35747  -3572247.40646  21467393.8004   21467392.2414
      4272.2034       3328.9894
  -1376989.79147  -1072978.66847  20730806.7844   20730805.7064
      2002.7814       1560.6094
  -5475899.69244  -4148816.89843  23911019.7454   23911020.0264
      5127.2034       3995.2234
    115500.81746     76036.52346  22156823.8084   22156823.2574
      -343.6724       -267.7964
 96  8 31 15 46 29.9990000  0  5G 5G 6G10G17G24
     95575.54247     83233.74246  21201887.3314   21201885.8904
      -504.7974       -393.3484
  -4712346.14447  -3671957.08746  21443043.4724   21443041.7614
      4258.3754       3318.2144
  -1436636.65847  -1119456.73447  20719456.4804   20719455.4254
      1973.4694       1537.7684
  -5629482.96545  -4268492.11444  23881793.6444   23881793.2334
      5111.5784       3983.0484
    125992.54746     84211.89246  22158819.8084   22158819.1164
      -355.8594       -277.2934
 96  8 31 15 46 59.9990000  0  5G 5G 6G10G17G24
    111053.93247     95294.80746  21204832.9254   21204831.5194
      -526.7974       -410.4914
  -4839901.04247  -3771350.49946  21418770.6124   21418768.8784
      4245.6724       3308.3164
  -1495410.15947  -1165254.25547  20708272.3624   20708271.4254
      1945.1414       1515.6944
  -5782608.92145  -4387810.97244  23852655.7614   23852655.4094
      5097.3134       3971.9324
    136839.00146     92663.66446  22160883.9014   22160882.9874
      -366.9224       -285.9134
 96  8 31 15 47 29.9980000  0  5G 5G 6G10G17G24
    127165.53247    107849.27846  21207898.9204   21207897.6194
      -547.7504       -426.8184
  -4967104.94347  -3870470.39846  21394564.5614   21394562.8144
      4234.4534       3299.5744
  -1553347.96747  -1210400.58747  20697247.0534   20697245.9394
      1916.8914       1493.6814
  -5935339.14845  -4506821.47244  23823591.7094   23823590.7834
      5084.4384       3961.8994
    148001.73646    101361.89346  22163008.2484   22163007.5224
      -377.8124       -294.3994
 96  8 31 15 47 59.9980000  0  5G 5G 6G10G17G24
    143912.69947    120898.99646  21211085.6934   21211084.4394
      -568.7504       -443.1824
  -5093968.50147  -3969325.10246  21370423.1394   21370421.5224
      4222.8284       3290.5154
  -1610425.70447  -1254876.73647  20686385.3974   20686384.2364
      1888.0944       1471.2424
  -6087673.56045  -4625523.58144  23794602.6784   23794602.4904
      5071.1254       3951.5264
    159497.87646    110319.91746  22165195.8654   22165195.2214
      -388.6874       -302.8734
 96  8 31 15 48 29.9980000  0  5G 5G 6G10G17G24
    161290.25947    134439.93246  21214392.3814   21214391.1394
      -589.8754       -459.6434
  -5220470.33547  -4067897.94046  21346351.0764   21346349.2604
      4210.6254       3281.0064
  -1666636.58947  -1298677.41247  20675689.0764   20675687.9984
      1859.2194       1448.7424
  -6239607.72845  -4743913.77444  23765692.1474   23765692.9324
      5057.7664       3941.1164
    171322.79946    119534.13446  22167446.1864   22167445.5764
      -399.6254       -311.3964
 96  8 31 15 48 59.9980000  0  5G 5G 6G10G17G24
    179296.38247    148470.65646  21217818.9594   21217817.7054
      -610.4534       -475.6784
  -5346620.37247  -4166196.65246  21322345.4204   21322343.6744
      4199.2974       3272.1794
  -1721986.17247  -1341806.95047  20665156.3574   20665155.2914
      1830.7974       1426.5954
  -6391149.28545  -4861998.03344  23736853.7564   23736853.5924
      5045.0314       3931.1934
    183462.08846    128993.30946  22169756.2094   22169755.7524
      -409.6414       -319.2004
 96  8 31 15 49 29.9980000  0  5G 5G 6G10G17G24
    197919.49247    162982.14546  21221362.8654   21221361.5534
      -631.3284       -491.9444
  -5472421.24047  -4264223.29046  21298406.1234   21298404.4004
      4187.1414       3262.7074
  -1776483.69547  -1384272.53947  20654785.9514   20654784.8264
      1802.1884       1404.3024
  -6542303.42545  -4979780.42644  23708090.0844   23708089.7214
      5031.5164       3920.6624
    195903.94546    138688.26346  22172123.9514   22172123.4244
      -420.1094       -327.3584
 96  8 31 15 49 59.9980000  0  5G 5G 6G10G17G24
    217166.14247    177979.51346  21225025.5534   21225024.1234
      -651.8594       -507.9424
  -5597853.99147  -4361963.08146  21274537.3574   21274535.6354
      4174.8284       3253.1134
  -1830126.39847  -1426072.03647  20644577.8504   20644576.7954
      1774.0314       1382.3624
  -6693051.82145  -5097246.66344  23679402.8894   23679403.3814
      5018.4064       3910.4464
    208659.18046    148627.38945  22174550.9284   22174550.1434
      -430.5164       -335.4674
 96  8 31 15 50 29.9980000  0  5G 5G 6G10G17G24
    237018.62147    193448.94846  21228803.2324   21228801.8034
      -671.7344       -523.4294
  -5722918.22547  -4459415.71246  21250737.8344   21250736.0884
      4162.7814       3243.7264
  -1882938.94647  -1467224.65847  20634528.1624   20634527.0144
      1746.7664       1361.1164
  -6843413.30245  -5214411.40744  23650790.5144   23650789.6234
      5005.6254       3900.4874
    221727.65046    158810.60546  22177037.9674   22177037.1704
      -440.7344       -343.4294
 96  8 31 15 50 59.9980000  0  5G 5G 6G10G17G24
    257465.98647    209381.94446  21232694.2794   21232692.9434
      -691.3914       -538.7464
  -5847619.41947  -4556585.45146  21227008.0224   21227006.4634
      4150.4844       3234.1444
  -1934932.47847  -1507739.08647  20624634.1074   20624632.9594
      1719.4844       1339.8584
  -6993383.01745  -5331270.86244  23622252.2174   23622251.3144
      4992.2974       3890.1014
    235108.22446    169237.02045  22179584.1004   22179583.6544
      -451.5314       -351.8434
 96  8 31 15 51 29.9980000  0  5G 5G 6G10G17G24
    278507.59147    225777.97246  21236698.0924   21236696.7094
      -711.4534       -554.3794
  -5971933.21647  -4653453.32646  21203352.3424   21203350.8304
      4137.1254       3223.7344
  -1986103.38047  -1547612.50747  20614896.4904   20614895.5644
      1691.7194       1318.2224
  -7142938.33745  -5447807.43644  23593793.0684   23593793.2564
      4978.0164       3878.9734
    248833.85746    179932.30445  22182196.3184   22182195.8034
      -463.6414       -361.2784
 96  8 31 15 51 59.9980000  0  5G 5G 6G10G17G24
    300139.66647    242634.11246  21240814.8574   21240813.4284
      -730.5004       -569.2214
  -6095855.46247  -4750016.09946  21179770.5764   21179768.9824
      4124.5944       3213.9694
  -2036440.10647  -1586835.91447  20605317.6394   20605316.7364
      1664.4064       1296.9404
  -7292071.09645  -5564014.69344  23565413.4984   23565413.7684
      4964.4694       3868.4174
    262916.30146    190905.62945  22184875.9044   22184875.2604
      -474.7974       -369.9724
 96  8 31 15 52 29.9980000  0  5G 5G 6G10G17G24
    322340.80947    259933.68646  21245039.7564   21245038.5144
      -749.7034       -584.1844
  -6219402.32647  -4846286.36246  21156260.7174   21156258.9594
      4111.9534       3204.1194
  -2085967.17547  -1625428.42447  20595892.8734   20595891.8774
      1637.2974       1275.8164
  -7440794.37045  -5679902.90044  23537112.3264   23537112.6194
      4950.3754       3857.4354
    277318.27846    202127.93745  22187616.6394   22187615.7134
      -485.2504       -378.1174
 96  8 31 15 52 59.9980000  0  5G 5G 6G10G17G24
    345137.94447    277697.66446  21249377.9284   21249376.5574
      -770.1724       -600.1344
  -6342566.21947  -4942258.20846  21132822.7324   21132821.0334
      4098.8914       3193.9414
  -2134663.68047  -1663373.74847  20586626.4514   20586625.5024
      1609.0634       1253.8154
  -7589087.50345  -5795455.93344  23508892.9904   23508893.4594
      4935.8444       3846.1124
    292039.97346    213599.38645  22190418.1934   22190417.5024
      -496.1094       -386.5794
 96  8 31 15 53 29.9980000  0  5G 5G 6G10G17G24
    368552.09147    295942.42746  21253833.6474   21253832.3344
      -790.6564       -616.0964
  -6465333.66647  -5037921.14246  21109461.2174   21109459.4944
      4085.8444       3183.7744
  -2182508.56747  -1700655.46747  20577521.7094   20577520.6894
      1580.6884       1231.7054
  -7736949.20145  -5910672.78244  23480756.1544   23480755.2524
      4921.7664       3835.1424
    307079.60746    225318.56345  22193280.2404   22193279.1974
      -506.3444       -394.5544
 96  8 31 15 53 59.9980000  0  5G 5G 6G10G17G24
    392577.98947    314663.88046  21258405.5374   21258404.1194
      -811.2194       -632.1194
  -6587725.57447  -5133291.44746  21086170.7724   21086169.1544
      4073.4224       3174.0954
  -2229509.60947  -1737279.64647  20568577.8974   20568577.0294
      1552.7194       1209.9114
  -7884392.52445  -6025563.63644  23452698.4754   23452698.0184
      4907.5634       3824.0754
    322409.87946    237264.21745  22196197.1394   22196196.6474
      -515.7034       -401.8474
 96  8 31 15 54 29.9980000  0  5G 5G 6G10G17G24
    417218.29847    333864.09746  21263094.4594   21263093.1584
      -831.5004       -647.9224
  -6709744.12847  -5228370.82546  21062951.5454   21062949.9044
      4061.0634       3164.4644
  -2275681.01947  -1773257.35747  20559791.6544   20559790.6354
      1525.1564       1188.4334
  -8031409.03045  -6140121.91344  23424722.3574   23424721.1744
      4893.3754       3813.0194
    338019.26946    249427.37045  22199167.2724   22199166.8144
      -525.1564       -409.2134
 96  8 31 15 54 59.9980000  0  5G 5G 6G10G17G24
    442463.01547    353535.28846  21267898.4434   21267897.2954
      -851.2344       -663.3004
  -6831391.85247  -5323161.24146  21039802.5924   21039800.9164
      4048.8134       3154.9194
  -2321018.56147  -1808585.30547  20551164.2174   20551163.2444
      1497.5474       1166.9204
  -8178003.70345  -6254351.49544  23396825.6704   23396824.5574
      4879.8284       3802.4634
    353918.72546    261816.55145  22202193.3504   22202192.5764
      -534.6874       -416.6404
 96  8 31 15 55 29.9980000  0  5G 5G 6G10G17G24
    468278.05147    373650.87646  21272810.9674   21272809.6314
      -869.7504       -677.7274
  -6952678.40647  -5417670.22946  21016722.8034   21016721.1394
      4037.0164       3145.7264
  -2365546.23247  -1843282.18547  20542690.8894   20542689.9514
      1470.9694       1146.2094
  -8324204.41745  -6368274.07144  23369005.8734   23369006.5884
      4866.7504       3792.2734
    370095.96346    274422.18445  22205271.3974   22205271.1624
      -543.9844       -423.8844
 96  8 31 15 55 59.9980000  0  5G 5G 6G10G17G24
    494650.67847    394200.94746  21277829.3504   21277828.0724
      -888.4844       -692.3254
  -7073612.95647  -5511904.93846  20993710.1234   20993708.4124
      4025.1254       3136.4614
  -2409275.11047  -1877356.63347  20534369.6004   20534368.5454
      1444.1254       1125.2924
  -8470007.10845  -6481886.49944  23341259.8574   23341260.7724
      4853.3914       3781.8634
    386556.54246    287248.58145  22208403.9284   22208403.2364
      -553.5784       -431.3604
 96  8 31 15 56 29.9980000  0  5G 5G 6G10G17G24
    521587.81447    415190.90746  21282955.4594   21282954.3344
      -907.2814       -706.9724
  -7194182.31447  -5605855.07146  20970766.1704   20970764.5184
      4012.7974       3126.8554
  -2452190.62347  -1910797.27447  20526203.2094   20526202.0964
      1416.8444       1104.0344
  -8615415.49145  -6595191.67145  23313589.4364   23313588.9434
      4840.6414       3771.9284
    403316.34246    300308.16945  22211593.3734   22211592.9044
      -563.7504       -439.2864
 96  8 31 15 56 59.9980000  0  5G 5G 6G10G17G24
    549090.02847    436621.17446  21288188.9124   21288187.8694
      -926.1414       -721.6684
  -7314382.58947  -5699517.60946  20947892.7324   20947890.9514
      4000.5944       3117.3464
  -2494287.69847  -1943600.18147  20518192.5534   20518191.3574
      1389.7974       1082.9594
  -8760452.48745  -6708207.48044  23285989.0764   23285987.8934
      4828.7034       3762.6264
    420375.45946    313600.97245  22214839.5684   22214839.3934
      -573.3444       -446.7614
 96  8 31 15 57 29.9980000  0  5G 5G 6G10G17G24
    577164.72447    458497.52946  21293531.3504   21293530.2254
      -945.4844       -736.7414
  -7434210.16847  -5792889.73746  20925090.2644   20925088.6234
      3987.9224       3107.4724
  -2535575.15847  -1975772.22247  20510335.6234   20510334.3814
      1362.6564       1061.8104
  -8905122.41645  -6820937.25444  23258459.7014   23258459.7604
      4815.9694       3752.7034
    437726.23646    327121.05345  22218141.4824   22218140.5454
      -583.3444       -454.5544
 96  8 31 15 57 59.9980000  0  5G 5G 6G10G17G24
    605821.62047    480827.55146  21298984.4594   21298983.2404
      -964.6564       -751.6804
  -7553654.25547  -5885963.03646  20902360.8974   20902359.0684
      3975.2814       3097.6224
  -2576042.75047  -2007305.39647  20502634.8034   20502633.8184
      1335.5314       1040.6744
  -9049419.42745  -6933376.42844  23231001.4674   23231001.5614
      4804.1254       3743.4744
    455371.58546    340870.66445  22221499.3034   22221498.7404
      -592.6564       -461.8104
 96  8 31 15 58 29.9980000  0  5G 5G 6G10G17G24
    635040.75847    503595.67446  21304544.6934   21304543.7094
      -983.2504       -766.1694
  -7672720.74347  -5978742.11247  20879702.9124   20879701.0844
      3962.3594       3087.5534
  -2615709.68447  -2038214.70047  20495086.2874   20495085.3144
      1308.9534       1019.9634
  -9193365.31745  -7045541.99444  23203609.4204   23203608.3424
      4792.1414       3734.1364
    473286.27246    354830.14345  22224908.0144   22224907.7444
      -601.7194       -468.8724
 96  8 31 15 58 59.9980000  0  5G 5G 6G10G17G24
    664811.19247    526793.38646  21310209.9434   21310208.6784
     -1001.3594       -780.2804
  -7791392.75247  -6071213.79246  20857120.6784   20857118.8854
      3949.1414       3077.2524
  -2654583.12047  -2068505.67847  20487689.0144   20487687.9714
      1282.6414        999.4604
  -9336946.46045  -7157423.34945  23176286.4364   23176286.5414
      4779.7814       3724.5054
    491480.11546    369007.15545  22228370.3894   22228370.2604
      -611.1564       -476.2264
 96  8 31 15 59 29.9980000  0  5G 5G 6G10G17G24
    695108.78247    550401.86546  21315975.5064   21315974.4984
     -1018.8594       -793.9164
  -7909678.84947  -6163384.76646  20834611.1314   20834609.4204
      3936.2344       3067.1964
  -2692676.94447  -2098189.16747  20480439.9284   20480438.9904
      1256.3594        978.9814
  -9480150.19645  -7269010.65145  23149035.2564   23149035.1154
      4766.6254       3714.2534
    509949.02446    383398.50845  22231884.6704   22231884.2954
      -620.5624       -483.5554
 96  8 31 15 59 59.9970000  0  5G 5G 6G10G17G24
    725931.42447    574419.48046  21321840.7984   21321839.6264
     -1036.1414       -807.3824
  -8027573.82747  -6255250.96847  20812176.7124   20812175.1304
      3923.7344       3057.4554
  -2729969.88847  -2127248.59647  20473343.5714   20473342.4354
      1229.9534        958.4054
  -9622949.73145  -7380282.97145  23121862.8994   23121862.6654
      4753.4064       3703.9534
    528702.71246    398011.74245  22235453.6734   22235453.5324
      -629.8594       -490.8004
 96  8 31 16  0 29.9970000  0  5G 5G 6G10G17G24
    757264.79647    598835.07046  21327803.3294   21327802.0874
     -1052.7974       -820.3614
  -8145105.60247  -6346834.15546  20789811.2434   20789809.4854
      3911.6884       3048.0684
  -2766482.86447  -2155700.25647  20466395.0484   20466394.0994
      1204.1094        938.2674
  -9765351.16645  -7491245.09145  23094763.9154   23094763.6224
      4740.0004       3693.5064
    547732.58446    412840.19645  22239074.7904   22239074.3564
      -638.8914       -497.8374
 96  8 31 16  0 59.9970000  0  5G 5G 6G10G17G24
    789111.45347    623650.61946  21333863.7124   21333862.7514
     -1070.2814       -833.9854
  -8262272.72647  -6438133.19746  20767514.9314   20767513.1734
      3899.6094       3038.6574
  -2802206.02447  -2183536.47747  20459597.3764   20459596.3684
      1177.4694        917.5084
  -9907346.14445  -7601890.49245  23067744.0244   23067744.4234
      4726.3444       3682.8654
    567041.08746    427885.76945  22242749.0244   22242748.4974
      -647.9224       -504.8744
 96  8 31 16  1 29.9970000  0  5G 5G 6G10G17G24
    821503.62147    648891.24646  21340027.6344   21340026.4154
     -1088.8754       -848.4744
  -8379071.79647  -6529145.44346  20745288.5954   20745286.8604
      3887.3134       3029.0754
  -2837106.05047  -2210731.29747  20452956.1424   20452955.1814
      1149.4384        895.6664
 -10048912.84445  -7712202.14045  23040804.1494   23040803.9384
      4711.8284       3671.5544
    586617.17246    443139.84445  22246474.6574   22246473.8724
      -656.8594       -511.8384
 96  8 31 16  1 59.9970000  0  5G 5G 6G10G17G24
    854446.99847    674561.37746  21346296.7204   21346295.3724
     -1107.3444       -862.8654
  -8495507.91547  -6619874.87846  20723131.8604   20723130.1734
      3875.1414       3019.5904
  -2871170.03547  -2237274.66047  20446473.9544   20446473.1344
      1121.7194        874.0674
 -10190064.94945  -7822190.73545  23013943.2284   23013941.7634
      4698.4534       3661.1324
    606456.07546    458598.71645  22250249.4314   22250249.0444
      -665.5784       -518.6324
 96  8 31 16  2 29.9970000  0  5G 5G 6G10G17G24
    887950.78647    700668.20246  21352672.2904   21352671.1424
     -1125.9064       -877.3304
  -8611561.07247  -6710305.89447  20701047.6884   20701045.9784
      3861.9844       3009.3384
  -2904397.17747  -2263165.93347  20440151.1104   20440150.1734
      1093.6254        852.1754
 -10330808.74145  -7931861.17545  22987160.3064   22987159.8254
      4684.9224       3650.5884
    626564.48146    474267.59645  22254076.0714   22254075.8254
      -674.6724       -525.7184
 96  8 31 16  2 59.9970000  0  5G 5G 6G10G17G24
    922001.80747    727201.43746  21359151.8214   21359150.4154
     -1143.7974       -891.2704
  -8727236.88747  -6800442.88147  20679035.3764   20679033.4894
      3850.0314       3000.0244
  -2936794.85547  -2288410.86747  20433985.8764   20433984.6104
      1066.6564        831.1614
 -10471163.96345  -8041228.83945  22960451.5874   22960451.4584
      4672.4064       3640.8364
    646931.91146    490138.29945  22257952.0014   22257951.5324
      -682.7034       -531.9764
 96  8 31 16  3 29.9970000  0  5G 5G 6G10G17G24
    956592.26847    754155.01546  21365734.5174   21365733.6494
     -1161.7504       -905.2604
  -8842540.81347  -6890290.08447  20657093.8534   20657092.0134
      3837.2194       2990.0414
  -2968379.76647  -2313022.48447  20427975.5564   20427974.5834
      1039.4844        809.9884
 -10611129.61045  -8150292.92645  22933817.6424   22933817.2554
      4659.1094       3630.4754
    667552.93546    506206.61045  22261876.1814   22261875.6184
      -691.8444       -539.0994
 96  8 31 16  3 59.9970000  0  5G 5G 6G10G17G24
    991707.54347    781517.53646  21372416.7674   21372415.5364
     -1179.2344       -918.8844
  -8957462.51147  -6979839.44547  20635224.7124   20635222.9194
      3824.1724       2979.8744
  -2999175.47347  -2337019.12647  20422115.2824   20422114.2044
      1013.7344        789.9234
 -10750711.13145  -8259057.69845  22907255.3844   22907255.7004
      4646.2814       3620.4794
    688444.21646    522485.51145  22265852.1034   22265851.1064
      -700.7344       -546.0274
 96  8 31 16  4 29.9970000  0  5G 5G 6G10G17G24
   1027335.37147    809279.44946  21379196.3604   21379195.1534
     -1195.8444       -931.8264
  -9071998.17047  -7069087.99347  20613429.1884   20613427.5244
      3811.5634       2970.0494
  -3029207.81047  -2360420.94947  20416400.3064   20416399.4154
       988.4064        770.1874
 -10889902.24545  -8367518.27745  22880768.6424   22880768.4314
      4632.9844       3610.1184
    709591.50346    538963.90145  22269876.1654   22269875.4854
      -709.0474       -552.5044
 96  8 31 16  4 59.9970000  0  5G 5G 6G10G17G24
   1063462.47547    837430.41146  21386071.3534   21386070.3684
     -1212.6094       -944.8904
  -9186159.42947  -7158044.80847  20591705.3684   20591703.7514
      3799.0004       2960.2604
  -3058485.22047  -2383234.51447  20410829.2354   20410828.1694
       963.2974        750.6214
 -11028687.27645  -8475662.37545  22854358.2354   22854358.4464
      4619.2344       3599.4034
    730980.17746    555630.38645  22273946.3374   22273946.0564
      -716.9374       -558.6534
 96  8 31 16  5 29.9970000  0  5G 5G 6G10G17G24
   1100083.91047    865966.56446  21393040.1814   21393039.0914
     -1228.8754       -957.5654
  -9299927.97347  -7246695.60447  20570055.6424   20570053.9664
      3785.5474       2949.7774
  -3087004.20947  -2405457.09647  20405402.2204   20405401.2244
       937.9694        730.8854
 -11167060.62945  -8583485.72245  22828027.2434   22828026.6344
      4605.6414       3588.8114
    752607.32246    572482.68345  22278061.9464   22278060.9274
      -724.8914       -564.8504
 96  8 31 16  5 59.9970000  0  5G 5G 6G10G17G24
   1137199.45646    894887.74146  21400102.9234   21400101.8924
     -1245.3284       -970.3864
  -9413288.39247  -7335028.38947  20548484.0094   20548482.2044
      3771.9224       2939.1604
  -3114761.54947  -2427086.18847  20400120.3454   20400119.2314
       912.6414        711.1494
 -11305022.18845  -8690988.18745  22801773.6494   22801774.3644
      4592.0164       3578.1944
    774475.85346    589523.08745  22282222.9784   22282222.4504
      -732.8754       -571.0714
 96  8 31 16  6 29.9970000  0  5G 5G 6G10G17G24
   1174795.28446    924183.16046  21407257.3294   21407256.4504
     -1261.0624       -982.6464
  -9526250.75847  -7423050.99547  20526988.1574   20526986.3644
      3758.9064       2929.0184
  -3141760.62847  -2448124.42547  20394982.4074   20394981.6224
       887.4384        691.5104
 -11442589.62945  -8798183.53645  22775595.5324   22775595.9424
      4579.2504       3568.2474
    796577.79746    606745.36845  22286428.7044   22286428.3884
      -740.6254       -577.1104
 96  8 31 16  6 59.9970000  0  5G 5G 6G10G17G24
   1212868.24546    953850.36646  21414502.3684   21414501.5834
     -1277.5004       -995.4554
  -9638820.58247  -7510767.72747  20505566.5634   20505564.9814
      3745.4384       2918.5234
  -3168012.28147  -2468580.25747  20389986.5094   20389985.4544
       862.3134        671.9324
 -11579786.26345  -8905089.95945  22749488.7594   22749488.3844
      4567.0944       3558.7744
    818915.59946    624151.43045  22290679.7744   22290678.9074
      -748.8594       -583.5274
 96  8 31 16  7 29.9970000  0  5G 5G 6G10G17G24
   1251447.78746    983912.31546  21421844.0874   21421843.1614
     -1294.7194      -1008.8724
  -9750973.31447  -7598159.45547  20484224.7204   20484222.8924
      3731.5634       2907.7114
  -3193497.27747  -2488438.69047  20385137.2434   20385136.1774
       836.7504        652.0134
 -11716612.53345  -9011707.77945  22723449.8844   22723449.7554
      4554.5474       3548.9984
    841515.62846    641761.81945  22294980.3214   22294979.9704
      -757.9374       -590.6014
 96  8 31 16  7 59.9970000  0  5G 5G 6G10G17G24
   1290552.65446   1014383.61046  21429284.9314   21429283.8764
     -1312.2344      -1022.5204
  -9862722.47147  -7685236.70947  20462959.7514   20462957.9464
      3718.3914       2897.4474
  -3218213.58047  -2507698.13747  20380433.6964   20380432.7244
       810.9384        631.8994
 -11853058.25145  -9118029.08145  22697486.4384   22697486.7674
      4541.9064       3539.1484
    864398.01146    659592.22645  22299334.4154   22299334.2864
      -767.5004       -598.0524
 96  8 31 16  8 29.9970000  0  5G 5G 6G10G17G24
   1330188.36046   1045268.54146  21436827.7354   21436826.6814
     -1330.1874      -1036.5104
  -9974079.74847  -7772008.60347  20441768.8374   20441767.1384
      3705.4694       2887.3784
  -3242152.26747  -2526351.65447  20375878.4314   20375877.4464
       784.9844        611.6764
 -11989124.47445  -9224054.65145  22671592.9854   22671592.5404
      4529.0634       3529.1404
    887557.73646    677638.76545  22303741.8684   22303740.6854
      -776.3914       -604.9804
 96  8 31 16  8 59.9970000  0  5G 5G 6G10G17G24
   1370369.84246   1076578.75246  21444473.8994   21444473.1384
     -1348.1724      -1050.5244
 -10085046.06647  -7858475.84947  20420652.8454   20420651.0054
      3692.6094       2877.3584
  -3265302.33047  -2544390.66047  20371473.0484   20371471.9814
       758.5164        591.0514
 -12124793.12445  -9329770.43945  22645776.6574   22645776.8454
      4515.7034       3518.7304
    910978.15046    695888.41945  22308198.4544   22308198.4664
      -784.6724       -611.4334
 96  8 31 16  9 29.9970000  0  5G 5G 6G10G17G24
   1411074.66146   1108296.76746  21452219.7124   21452218.6574
     -1365.2034      -1063.7954
 -10195637.61047  -7944651.06847  20399608.0954   20399606.2204
      3680.4384       2867.8734
  -3287663.45747  -2561814.91147  20367218.0564   20367217.0134
       732.4384        570.7314
 -12260060.40245  -9435173.46745  22620035.8604   22620035.4624
      4502.2504       3508.2474
    934644.56446    714329.76045  22312702.2354   22312701.7554
      -792.9224       -617.8614
 96  8 31 16  9 59.9970000  0  5G 5G 6G10G17G24
   1452277.65846   1140402.97146  21460060.0634   21460059.2084
     -1381.4694      -1076.4694
 -10305869.83947  -8030546.29547  20378631.4234   20378629.5714
      3668.3594       2858.4624
  -3309246.24847  -2578632.65847  20363110.9624   20363109.7904
       706.3914        550.4344
 -12394929.20045  -9540265.98845  22594370.7674   22594369.7824
      4489.0784       3497.9834
    958551.47646    732958.50045  22317251.7204   22317251.2164
      -800.5944       -623.8394
 96  8 31 16 10 29.9970000  0  5G 5G 6G10G17G24
   1493959.28946   1172882.13646  21467992.3924   21467991.2084
     -1397.4844      -1088.9494
 -10415738.12847  -8116157.93547  20357724.1104   20357722.3414
      3655.8444       2848.7094
  -3330053.24947  -2594845.90247  20359151.5324   20359150.4424
       680.4224        530.1994
 -12529407.15045  -9645053.94945  22568780.9154   22568780.9854
      4475.7504       3487.5974
    982669.49246    751751.74845  22321841.2204   22321840.5994
      -807.7344       -629.4034
 96  8 31 16 10 59.9970000  0  5G 5G 6G10G17G24
   1536108.42646   1205725.59046  21476013.1814   21476012.5134
     -1412.4064      -1100.5764
 -10525225.62747  -8201472.85747  20336889.3534   20336887.4664
      3643.2974       2838.9334
  -3350080.57247  -2610451.60447  20355340.4074   20355339.3994
       654.6724        510.1344
 -12663479.65245  -9749525.97545  22543267.0954   22543267.6224
      4462.3754       3477.1754
   1007016.40746    770723.34845  22326474.4704   22326474.2944
      -815.5624       -635.5034
 96  8 31 16 11 29.9970000  0  5G 5G 6G10G17G24
   1578708.30346   1238920.27346  21484119.3374   21484118.4114
     -1427.5474      -1112.3744
 -10634328.72747  -8286488.25147  20316128.2354   20316126.4424
      3630.3754       2828.8644
  -3369333.53747  -2625453.90247  20351676.3214   20351675.2674
       628.9534        490.0934
 -12797145.68745  -9853681.27945  22517832.8844   22517833.1304
      4448.8914       3466.6684
   1031611.67546    789888.48945  22331154.7204   22331154.3334
      -823.9064       -642.0054
 96  8 31 16 11 59.9970000  0  5G 5G 6G10G17G24
   1621781.70546   1272483.92946  21492315.9704   21492315.0214
     -1443.6564      -1124.9274
 -10743022.98347  -8371185.06347  20295444.1264   20295442.3214
      3616.1414       2817.7724
  -3387798.30447  -2639842.02647  20348162.8604   20348162.0524
       602.2974        469.3224
 -12930394.65045  -9957511.59345  22492475.6884   22492475.2674
      4434.5314       3455.4794
   1056455.07446    809246.95745  22335882.2284   22335882.1344
      -831.9534       -648.2754
 96  8 31 16 12 29.9970000  0  5G 5G 6G10G17G24
   1665337.17046   1306423.22346  21500604.3994   21500603.3104
     -1460.0474      -1137.6994
 -10851288.38247  -8455547.69947  20274841.7984   20274840.0174
      3601.5944       2806.4374
  -3405466.89947  -2653609.75447  20344800.5954   20344799.6574
       575.7194        448.6124
 -13063214.59045 -10061007.60845  22467199.0564   22467198.5284
      4420.1564       3444.2784
   1081541.38946    828794.70645  22340655.6424   22340656.0994
      -840.5944       -655.0084
 96  8 31 16 12 59.9970000  0  5G 5G 6G10G17G24
   1709381.55246   1340743.48446  21508986.0794   21508985.1424
     -1476.8124      -1150.7634
 -10959123.99647  -8539575.44047  20254321.0564   20254319.3924
      3586.8594       2794.9554
  -3422346.14647  -2666762.41347  20341588.7354   20341587.7634
       549.0314        427.8174
 -13195601.90545 -10164166.51345  22442007.3684   22442007.0284
      4405.3134       3432.7114
   1106891.38746    848547.93145  22345480.1424   22345479.9784
      -849.9064       -662.2654
 96  8 31 16 13 29.9970000  0  5G 5G 6G10G17G24
   1753955.92846   1375476.73946  21517468.3374   21517467.6104
     -1495.8754      -1165.6174
 -11066495.30347  -8623241.38047  20233889.2904   20233887.4854
      3570.2504       2782.0134
  -3438407.91647  -2679278.07347  20338532.1494   20338531.2004
       520.8754        405.8774
 -13327535.37045 -10266971.77345  22416901.8374   22416901.5914
      4389.3134       3420.2444
   1132538.28746    868532.51145  22350360.1654   22350359.2744
      -860.8444       -670.7874
 96  8 31 16 13 59.9970000  0  5G 5G 6G10G17G24
   1799129.21446   1410676.66446  21526064.4314   21526063.7864
     -1515.0164      -1180.5324
 -11173339.33247  -8706496.45847  20213557.5094   20213555.4934
      3553.2664       2768.7784
  -3453599.91947  -2691115.99647  20335641.3534   20335640.4974
       492.5474        383.8034
 -13458961.87145 -10369381.98345  22391892.6964   22391892.7674
      4372.9384       3407.4844
   1158544.07146    888796.72545  22355309.1104   22355309.1344
      -872.4694       -679.8464
 96  8 31 16 14 29.9960000  0  5G 5G 6G10G17G24
   1844821.30746   1446280.85946  21534759.5204   21534758.6414
     -1531.4534      -1193.3404
 -11279720.19347  -8789390.62947  20193313.8404   20193312.0124
      3538.9384       2757.6144
  -3467995.99947  -2702333.71747  20332901.8014   20332900.6994
       467.1094        363.9814
 -13589946.07345 -10471447.56545  22366966.5434   22366966.9884
      4359.5004       3397.0134
   1184864.79146    909306.35245  22360317.8484   22360318.0594
      -882.4694       -687.6384
 96  8 31 16 14 59.9960000  0  5G 5G 6G10G17G24
   1891004.97446   1482268.10046  21543548.2234   21543547.3204
     -1547.2974      -1205.6864
 -11385677.69347  -8871954.90647  20173150.9574   20173149.2704
      3524.7814       2746.5834
  -3481632.26547  -2712959.37847  20330307.1374   20330306.2114
       442.0004        344.4164
 -13720530.41445 -10573201.56245  22342116.8874   22342116.3834
      4346.2974       3386.7254
   1211481.13146    930046.35645  22365382.9184   22365382.1454
      -891.6724       -694.8094
 96  8 31 16 15 29.9960000  0  5G 5G 6G10G17G24
   1937662.33446   1518624.44846  21552426.6294   21552425.3634
     -1563.2194      -1218.0934
 -11491204.72747  -8954183.75547  20153069.9024   20153068.0044
      3510.2814       2735.2844
  -3494517.40747  -2722999.74647  20327854.9494   20327853.8014
       416.9844        324.9234
 -13850723.92645 -10674651.00845  22317342.1524   22317341.3094
      4333.0004       3376.3644
   1238356.61046    950988.24945  22370497.0904   22370496.5274
      -900.0474       -701.3354
 96  8 31 16 15 59.9960000  0  5G 5G 6G10G17G24
   1984787.11946   1555345.03546  21561394.1294   21561392.6064
     -1578.4374      -1229.9514
 -11596293.75847  -9036071.29647  20133072.1374   20133070.3094
      3495.4844       2723.7544
  -3506648.70447  -2732452.70747  20325546.3324   20325545.4184
       391.5314        305.0894
 -13980504.96345 -10775779.04545  22292644.6914   22292644.1064
      4318.9224       3365.3944
   1265477.17646    972121.13745  22375657.7384   22375657.5394
      -908.0164       -707.5454
 96  8 31 16 16 29.9960000  0  5G 5G 6G10G17G24
   2032362.56146   1592416.77146  21570447.4964   21570446.5594
     -1593.7664      -1241.8954
 -11700942.01247  -9117615.38047  20113158.1524   20113156.2774
      3480.6254       2712.1754
  -3518020.82047  -2741314.09847  20323382.4574   20323381.6724
       366.1724        285.3294
 -14109869.78745 -10876582.76945  22268027.8954   22268028.1064
      4305.0474       3354.5824
   1292820.87046    993427.89845  22380861.7704   22380860.6214
      -915.1874       -713.1334
 96  8 31 16 16 59.9960000  0  5G 5G 6G10G17G24
   2080406.93646   1629853.91546  21579590.0744   21579589.2774
     -1609.4224      -1254.0954
 -11805133.10047  -9198803.22547  20093331.4344   20093329.5824
      3465.1564       2700.1224
  -3528616.13047  -2749570.17847  20321366.5984   20321365.6954
       339.8914        264.8504
 -14238804.42446 -10977051.26445  22243493.8094   22243493.8564
      4290.3444       3343.1254
   1320377.82546   1014900.83345  22386105.4814   22386104.8014
      -922.2034       -718.6004
 96  8 31 16 17 29.9960000  0  5G 5G 6G10G17G24
   2128919.68146   1667656.01846  21588821.7234   21588820.8674
     -1625.0164      -1266.2464
 -11908863.85047  -9279632.37147  20073591.9024   20073589.9924
      3450.1094       2688.3974
  -3538424.04347  -2757212.70847  20319499.8014   20319498.8284
       313.6884        244.4324
 -14367298.71045 -11077176.64245  22219040.6844   22219040.3324
      4275.7034       3331.7174
   1348149.73946   1036541.26145  22391389.8484   22391390.1644
      -929.7194       -724.4564
 96  8 31 16 17 59.9960000  0  5G 5G 6G10G17G24
   2177891.83146   1705816.09946  21598140.6524   21598139.5044
     -1639.9374      -1277.8734
 -12012147.34747  -9360113.00647  20053937.4884   20053935.5434
      3435.4224       2676.9524
  -3547443.66847  -2764240.99047  20317783.5354   20317782.5634
       287.5314        224.0504
 -14495364.09345 -11176967.81345  22194670.1454   22194669.6294
      4262.0314       3321.0634
   1376156.06346   1058364.35645  22396719.3484   22396719.1604
      -937.4534       -730.4834
 96  8 31 16 18 29.9960000  0  5G 5G 6G10G17G24
   2227322.09946   1744333.15545  21607547.2154   21607546.2194
     -1655.4064      -1289.9274
 -12114985.18647  -9440246.38047  20034368.2624   20034366.5164
      3420.5164       2665.3374
  -3555680.19147  -2770659.06247  20316216.2234   20316215.2384
       261.6094        203.8514
 -14623024.33545 -11276443.29445  22170378.2774   22170377.2234
      4248.7194       3310.6904
   1404400.97346   1080373.35145  22402094.6454   22402094.2934
      -945.6254       -736.8514
 96  8 31 16 18 59.9960000  0  5G 5G 6G10G17G24
   2277202.43646   1783200.92345  21617039.1454   21617038.1844
     -1669.8754      -1301.2014
 -12217388.16647  -9520040.90047  20014881.4734   20014879.6094
      3406.4844       2654.4034
  -3563142.62547  -2776473.94647  20314796.1454   20314795.1954
       235.9384        183.8474
 -14750289.29045 -11375610.75045  22146159.5984   22146158.7664
      4235.6414       3300.4994
   1432895.58146   1102576.91145  22407516.5984   22407516.8674
      -954.0314       -743.4014
 96  8 31 16 19 29.9960000  0  5G 5G 6G10G17G24
   2327516.13146   1822406.35745  21626613.4494   21626612.6414
     -1684.3754      -1312.5004
 -12319372.49247  -9599509.19847  19995474.5594   19995472.7194
      3392.3594       2643.3974
  -3569842.38847  -2781694.54547  20313521.1994   20313520.3204
       210.6564        164.1484
 -14877165.58945 -11474475.35745  22122017.1064   22122017.1414
      4222.6724       3290.3944
   1461647.11246   1124980.67445  22412987.6524   22412986.8794
      -962.7344       -750.1834
 96  8 31 16 19 59.9960000  0  5G 5G 6G10G17G24
   2378256.13946   1861943.99645  21636269.4344   21636268.6484
     -1698.2194      -1323.2874
 -12420933.48247  -9678647.63047  19976148.2624   19976146.4694
      3378.5314       2632.6224
  -3575785.19947  -2786325.31447  20312390.2704   20312389.5664
       185.7194        144.7164
 -15003649.62845 -11573034.29645  22097948.2314   22097948.3834
      4209.5944       3280.2034
   1490654.44246   1147583.76345  22418507.9494   22418507.2934
      -970.9064       -756.5504
 96  8 31 16 20 29.9960000  0  5G 5G 6G10G17G24
   2429416.83146   1901809.43645  21646004.9654   21646003.9104
     -1712.6094      -1334.5014
 -12522080.69147  -9757463.63347  19956900.4024   19956898.5044
      3364.6564       2621.8104
  -3580981.98647  -2790374.75447  20311401.4344   20311400.4384
       160.6884        125.2114
 -15129731.13845 -11671279.59745  22073955.3014   22073955.2774
      4195.6884       3269.3674
   1519901.93345   1170373.98245  22424073.3794   22424073.1454
      -978.9844       -762.8454
 96  8 31 16 20 59.9960000  0  5G 5G 6G10G17G24
   2481010.56046   1942012.31345  21655822.6914   21655821.4734
     -1727.1254      -1345.8124
 -12622816.22147  -9835958.83947  19937731.0594   19937729.3364
      3350.8914       2611.0844
  -3585434.22647  -2793844.03147  20310554.2314   20310553.1994
       136.1094        106.0594
 -15255389.78646 -11769195.37745  22050043.7384   22050043.6094
      4181.4384       3258.2634
   1549390.73045   1193352.24645  22429685.3564   22429685.2974
      -986.9374       -769.0424
 96  8 31 16 21 29.9960000  0  5G 5G 6G10G17G24
   2533041.30246   1982555.70445  21665723.5514   21665722.8244
     -1741.9694      -1357.3784
 -12723129.11147  -9914124.72847  19918642.2384   19918640.4224
      3336.1414       2599.5904
  -3589159.11947  -2796746.55447  20309845.6214   20309844.8014
       111.9694         87.2484
 -15380621.30546 -11866778.34545  22026212.1994   22026211.8244
      4166.8134       3246.8674
   1579105.11346   1216506.25945  22435339.0904   22435338.7384
      -994.4534       -774.8994
 96  8 31 16 21 59.9960000  0  5G 5G 6G10G17G24
   2585521.21746   2023449.10345  21675710.4344   21675709.8364
     -1756.8444      -1368.9694
 -12822993.27347  -9991940.94747  19899638.7774   19899636.9734
      3321.4384       2588.1334
  -3592154.07747  -2799080.29147  20309275.4344   20309274.5204
        87.7974         68.4134
 -15505402.67946 -11964010.55145  22002466.2234   22002465.4024
      4152.0944       3235.3984
   1609053.77146   1239842.87045  22441038.6914   22441038.1644
     -1002.1874       -780.9254
 96  8 31 16 22 29.9960000  0  5G 5G 6G10G17G24
   2638461.04846   2064700.89045  21685784.5744   21685783.7664
     -1772.5624      -1381.2184
 -12922406.20647 -10069405.56447  19880720.9734   19880719.1914
      3305.9064       2576.0314
  -3594425.75347  -2800850.42847  20308843.1764   20308842.1804
        63.4694         49.4564
 -15629742.17446 -12060898.43245  21978806.2934   21978805.4734
      4137.0784       3223.6974
   1639238.32046   1263363.25445  22446782.8874   22446782.9924
     -1010.3444       -787.2814
 96  8 31 16 22 59.9960000  0  5G 5G 6G10G17G24
   2691859.41346   2106309.97445  21695945.8324   21695945.1524
     -1787.3754      -1392.7604
 -13021355.02747 -10146508.53247  19861891.8484   19861890.1024
      3290.4384       2563.9774
  -3595977.71347  -2802059.75147  20308547.8094   20308546.8484
        39.7664         30.9864
 -15753641.02346 -12157442.94645  21955229.1994   21955228.6604
      4122.7664       3212.5454
   1669671.02145   1287077.02445  22452573.5744   22452573.7734
     -1018.5784       -793.6974
 96  8 31 16 23 29.9960000  0  5G 5G 6G10G17G24
   2745695.31646   2148259.98845  21706190.7704   21706190.1484
     -1801.5314      -1403.7914
 -13119837.55347 -10223248.15747  19843151.2544   19843149.4494
      3275.2814       2552.1674
  -3596808.96447  -2802707.48446  20308389.7074   20308388.6174
        15.6884         12.2244
 -15877117.83646 -12253658.59745  21931731.5664   21931731.2854
      4109.1564       3201.9404
   1700343.50345   1310977.63645  22458410.3634   22458410.0004
     -1026.2814       -799.7004
 96  8 31 16 23 59.9960000  0  5G 5G 6G10G17G24
   2799949.86546   2190536.22545  21716515.2314   21716514.1644
     -1815.1564      -1414.4074
 -13217874.08347 -10299640.24347  19824495.5824   19824493.7074
      3260.7814       2540.8694
  -3596910.30647  -2802786.45146  20308370.1684   20308369.1484
        -8.6414         -6.7334
 -16000193.12946 -12349561.39645  21908312.4884   21908312.0314
      4096.3284       3191.9444
   1731249.53045   1335060.23245  22464292.0664   22464291.7624
     -1033.7034       -805.4834
 96  8 31 16 24 29.9960000  0  5G 5G 6G10G17G24
   2854604.03246   2233123.85045  21726914.9494   21726914.1644
     -1828.2664      -1424.6234
 -13315477.50347 -10375694.85047  19805922.1844   19805920.4494
      3246.1254       2529.4484
  -3596291.97347  -2802304.64046  20308487.9814   20308487.0084
       -32.6094        -25.4104
 -16122893.25246 -12445171.84145  21884962.7774   21884962.3794
      4083.5944       3182.0214
   1762357.57445   1359300.23445  22470211.5744   22470211.5274
     -1040.0944       -810.4634
 96  8 31 16 24 59.9960000  0  5G 5G 6G10G17G24
   2909652.81446   2276018.96945  21737390.7154   21737390.5044
     -1841.5004      -1434.9354
 -13412633.19747 -10451400.57047  19787434.0824   19787432.3364
      3231.0164       2517.6754
  -3594942.99047  -2801253.48546  20308744.7154   20308743.9414
       -57.1724        -44.5504
 -16245203.67346 -12540478.62445  21861687.7934   21861687.2074
      4070.5004       3171.8184
   1793661.63845   1383692.99845  22476168.8564   22476169.0434
     -1046.6414       -815.5644
 96  8 31 16 25 29.9960000  0  5G 5G 6G10G17G24
   2965085.19546   2319212.98945  21747938.6844   21747937.8754
     -1853.8284      -1444.5414
 -13509349.21847 -10526763.68947  19769029.4184   19769027.8364
      3216.7974       2506.5954
  -3592869.54647  -2799637.81646  20309139.2464   20309138.2974
       -80.8754        -63.0194
 -16367127.60746 -12635484.24745  21838486.3244   21838486.0084
      4057.5944       3161.7614
   1825147.69145   1408227.54644  22482159.9494   22482159.5984
     -1052.5004       -820.1304
 96  8 31 16 25 59.9960000  0  5G 5G 6G10G17G24
   3020887.87746   2362695.55245  21758558.1764   21758557.3444
     -1866.1724      -1454.1604
 -13605639.41447 -10601795.00647  19750706.0594   19750704.2314
      3202.7664       2495.6624
  -3590094.97647  -2797475.82346  20309667.4884   20309666.6334
      -103.7034        -80.8084
 -16488649.71846 -12730176.77345  21815361.3094   21815360.7234
      4044.1254       3151.2664
   1856816.38145   1432904.43144  22488186.6684   22488187.7814
     -1058.4064       -824.7324
 96  8 31 16 26 29.9960000  0  5G 5G 6G10G17G24
   3077065.71546   2406470.44645  21769248.6844   21769248.3914
     -1878.9844      -1464.1444
 -13701509.27947 -10676498.78747  19732462.8324   19732460.8984
      3188.5314       2484.5704
  -3586644.20847  -2794786.91746  20310323.9344   20310323.1134
      -126.4534        -98.5354
 -16609767.74346 -12824554.42445  21792312.7704   21792312.3364
      4030.4384       3140.6014
   1888661.04345   1457718.40144  22494246.7544   22494246.4734
     -1064.6254       -829.5784
 96  8 31 16 26 59.9960000  0  5G 5G 6G10G17G24
   3133626.23446   2450543.54945  21780011.7854   21780011.2234
     -1891.6724      -1474.0304
 -13796959.25247 -10750875.38347  19714299.2464   19714297.3714
      3174.7344       2473.8194
  -3582510.02947  -2791565.48546  20311110.7464   20311109.6914
      -149.2034       -116.2624
 -16730484.85146 -12918619.67045  21769341.8954   21769341.3324
      4017.3134       3130.3734
   1920700.02745   1482683.84444  22500342.9494   22500342.0704
     -1071.4534       -834.8994
 96  8 31 16 27 29.9960000  0  5G 5G 6G10G17G24
   3190553.61746   2494902.49745  21790844.5824   21790843.9024
     -1903.6874      -1483.3934
 -13892003.00747 -10824935.44247  19696212.9734   19696211.0984
      3161.2194       2463.2874
  -3577704.18047  -2787820.67546  20312025.4734   20312024.5594
      -171.3914       -133.5514
 -16850817.10046 -13012385.02145  21746443.7234   21746442.9964
      4004.6564       3120.5114
   1952938.71445   1507804.85844  22506477.7464   22506478.5314
     -1077.9064       -839.9274
 96  8 31 16 27 59.9960000  0  5G 5G 6G10G17G24
   3247859.52046   2539556.41645  21801749.7854   21801748.8014
     -1916.5164      -1493.3894
 -13986625.59647 -10898667.31947  19678206.9264   19678205.0634
      3147.1254       2452.3054
  -3572216.28247  -2783544.39146  20313069.4024   20313068.3594
      -194.2504       -151.3644
 -16970769.19046 -13105854.15245  21723617.2624   21723616.7704
      3992.6414       3111.1494
   1985373.35245   1533078.55844  22512649.6374   22512650.8444
     -1084.0314       -844.7004
 96  8 31 16 28 29.9960000  0  5G 5G 6G10G17G24
   3305542.61746   2584504.24245  21812726.3324   21812725.6524
     -1928.7344      -1502.9104
 -14080818.36847 -10972064.27747  19660282.5664   19660280.7854
      3132.4694       2440.8854
  -3566035.08647  -2778727.87746  20314245.9494   20314244.9414
      -217.5624       -169.5294
 -17090376.58546 -13199054.68345  21700856.2464   21700855.4494
      3981.4384       3102.4194
   2017991.07345   1558494.95344  22518857.0514   22518856.6524
     -1090.2194       -849.5214
 96  8 31 16 28 59.9960000  0  5G 5G 6G10G17G24
   3363569.10646   2629719.64545  21823768.5124   21823767.7504
     -1939.6094      -1511.3844
 -14174580.33047 -11045125.53847  19642440.2384   19642438.2814
      3118.4064       2429.9274
  -3559173.62947  -2773381.29646  20315551.4574   20315550.4384
      -239.6564       -186.7454
 -17209655.55146 -13291999.30845  21678158.2544   21678157.3874
      3970.5634       3093.9454
   2050782.38745   1584046.60244  22525097.1524   22525096.5664
     -1095.7664       -853.8434
 96  8 31 16 29 29.9960000  0  5G 5G 6G10G17G24
   3421928.95946   2675194.80845  21834873.8404   21834873.4184
     -1951.0474      -1520.2964
 -14267912.41047 -11117851.82447  19624679.7154   19624677.8284
      3103.8444       2418.5804
  -3551649.95647  -2767518.69446  20316982.9344   20316981.9844
      -261.7194       -203.9374
 -17328598.67646 -13384682.22045  21655524.1914   21655523.4884
      3959.1564       3085.0574
   2083734.39845   1609723.43444  22531367.3404   22531366.5314
     -1100.9224       -857.8614
 96  8 31 16 29 59.9960000  0  5G 5G 6G10G17G24
   3480626.35046   2720933.00445  21846043.6684   21846042.6724
     -1962.1094      -1528.9164
 -14360816.36047 -11190244.49947  19607000.9414   19606999.0664
      3089.7664       2407.6104
  -3543477.41447  -2761150.48246  20318538.3564   20318537.4064
      -283.1564       -220.6414
 -17447204.73946 -13477102.48845  21632954.2624   21632953.1604
      3947.7664       3076.1814
   2116837.04145   1635517.68745  22537667.2234   22537667.2584
     -1105.9694       -861.7944
 96  8 31 16 30 29.9950000  0  5G 5G 6G10G17G24
   3539641.37146   2766918.68745  21857273.8354   21857273.6124
     -1972.3594      -1536.9034
 -14453296.78947 -11262307.16347  19589402.2104   19589400.3474
      3075.9694       2396.8594
  -3534675.01547  -2754291.47646  20320213.6084   20320212.6594
      -303.5004       -236.4944
 -17565452.30746 -13569243.42345  21610452.5154   21610451.9174
      3935.5944       3066.6964
   2150091.24845   1661430.02844  22543995.1794   22543994.1014
     -1110.9844       -865.7024
 96  8 31 16 30 59.9950000  0  5G 5G 6G10G17G24
   3598966.65846   2813146.14645  21868563.2104   21868562.7064
     -1982.5784      -1544.8664
 -14545376.08747 -11334057.25847  19571880.3434   19571878.5154
      3062.7814       2386.5834
  -3525271.98547  -2746964.44846  20322002.9524   20322002.0154
      -323.3754       -251.9814
 -17683330.47146 -13661096.49945  21588021.5234   21588021.1484
      3923.0164       3056.8954
   2183493.66645   1687457.84745  22550351.4524   22550351.3704
     -1115.8124       -869.4644
 96  8 31 16 31 29.9950000  0  5G 5G 6G10G17G24
   3658601.53646   2859614.83745  21879911.8584   21879911.0624
     -1992.8914      -1552.9024
 -14637058.54847 -11405498.13047  19554433.5544   19554431.7144
      3049.6254       2376.3314
  -3515263.56847  -2739165.68646  20323907.1794   20323906.5114
      -343.6564       -267.7844
 -17800828.37546 -13752653.27545  21565662.1244   21565661.1754
      3910.2344       3046.9364
   2217042.22745   1713599.55345  22556735.7414   22556735.5424
     -1120.7034       -873.2754
 96  8 31 16 31 59.9950000  0  5G 5G 6G10G17G24
   3718534.36646   2906315.70245  21891316.6874   21891315.6674
     -2002.5784      -1560.4504
 -14728355.67447 -11476638.74147  19537060.3274   19537058.4524
      3037.0004       2366.4944
  -3504651.70347  -2730896.69746  20325926.8274   20325925.8904
      -363.7194       -283.4174
 -17917945.15746 -13843913.06945  21543375.6164   21543374.8434
      3897.6094       3037.0984
   2250739.25545   1739856.93845  22563148.1874   22563147.7184
     -1125.5944       -877.0864
 96  8 31 16 32 29.9950000  0  5G 5G 6G10G17G24
   3778758.49146   2953243.54845  21902776.4054   21902776.0074
     -2012.5944      -1568.2554
 -14819274.60047 -11547484.65047  19519759.1484   19519757.1444
      3024.0784       2356.4254
  -3493434.85347  -2722156.30846  20328061.2184   20328060.2454
      -384.2504       -299.4164
 -18034691.30146 -13934884.05845  21521158.1714   21521157.7024
      3885.5164       3027.6754
   2284581.34545   1766227.38745  22569588.1164   22569589.0654
     -1130.7814       -881.1284
 96  8 31 16 32 59.9950000  0  5G 5G 6G10G17G24
   3839276.04346   3000400.02645  21914292.8044   21914291.8784
     -2021.8914      -1575.4994
 -14909808.41247 -11618030.46947  19502531.1874   19502529.4054
      3011.3914       2346.5384
  -3481601.16247  -2712935.25646  20330313.2494   20330312.5814
      -404.8124       -315.4384
 -18151096.01446 -14025588.99945  21499008.3194   21499007.6514
      3874.7814       3019.3104
   2318571.38145   1792713.09545  22576056.3274   22576056.0694
     -1135.2974       -884.6474
 96  8 31 16 33 29.9950000  0  5G 5G 6G10G17G24
   3900083.26546   3047782.21745  21925864.2804   21925864.1404
     -2031.8444      -1583.2554
 -14999945.85347 -11688267.43647  19485378.4374   19485376.4444
      2997.8594       2335.9944
  -3469135.49847  -2703221.77246  20332685.1874   20332684.3554
      -426.1094       -332.0334
 -18267172.08346 -14116037.86545  21476919.8274   21476919.4294
      3863.6254       3010.6174
   2352703.62945   1819309.58945  22582551.3124   22582551.4994
     -1140.1094       -888.3974
 96  8 31 16 33 59.9950000  0  5G 5G 6G10G17G24
   3961193.90245   3095400.86345  21937492.9294   21937492.1674
     -2042.0164      -1591.1814
 -15089664.49347 -11758178.05247  19468305.7184   19468303.9604
      2983.3594       2324.6964
  -3456027.01947  -2693007.37346  20335180.0154   20335179.0774
      -447.6874       -348.8474
 -18382910.70146 -14206223.76945  21454894.3434   21454893.6514
      3852.5474       3001.9854
   2386984.00645   1846021.55545  22589074.4374   22589073.3584
     -1145.0944       -892.2814
 96  8 31 16 34 29.9950000  0  5G 5G 6G10G17G24
   4022594.16845   3143245.16545  21949177.5544   21949176.8864
     -2051.2194      -1598.3524
 -15178946.16947 -11827748.17747  19451316.0774   19451314.1904
      2968.6724       2313.2514
  -3442274.26247  -2682290.94846  20337796.9444   20337795.8194
      -469.1414       -365.5644
 -18498332.42546 -14296162.74445  21432930.9214   21432930.7104
      3842.2504       2993.9614
   2421403.06045   1872841.57644  22595623.9294   22595624.2104
     -1149.5474       -895.7514
 96  8 31 16 34 59.9950000  0  5G 5G 6G10G17G24
   4084263.12045   3191298.84745  21960912.7964   21960912.9834
     -2060.0004      -1605.1954
 -15267787.55347 -11896975.22447  19434409.9294   19434407.9724
      2954.1414       2301.9284
  -3427885.03447  -2671078.57146  20340535.1874   20340534.2964
      -490.1564       -381.9404
 -18613437.04446 -14385854.61645  21411027.0384   21411026.5934
      3831.1094       2985.2804
   2455949.67145   1899760.96344  22602198.2654   22602198.2654
     -1153.6564       -898.9534
 96  8 31 16 35 29.9950000  0  5G 5G 6G10G17G24
   4146196.38445   3239558.48145  21972698.2264   21972697.5814
     -2069.1874      -1612.3544
 -15356200.62947 -11965868.51647  19417585.3584   19417583.4724
      2939.8284       2290.7754
  -3412869.60547  -2659378.24446  20343392.5304   20343391.6164
      -511.0474       -398.2184
 -18728191.89046 -14475273.94245  21389190.6244   21389190.5894
      3818.8134       2975.6984
   2490623.99245   1926779.90144  22608796.8044   22608796.3824
     -1158.3124       -902.5814
 96  8 31 16 35 59.9950000  0  5G 5G 6G10G17G24
   4208406.53745   3288033.88345  21984536.2334   21984535.5194
     -2078.2814      -1619.4404
 -15444183.67947 -12034426.72947  19400843.1874   19400841.4524
      2925.5004       2279.6104
  -3397230.94547  -2647192.28446  20346368.4294   20346367.4804
      -531.6874       -414.3024
 -18842575.82146 -14564404.25545  21367424.3044   21367423.4724
      3806.6724       2966.2384
   2525445.10345   1953913.19744  22615422.9684   22615421.9954
     -1163.3284       -906.4894
 96  8 31 16 36 29.9950000  0  5G 5G 6G10G17G24
   4270876.71045   3336711.87745  21996424.5304   21996424.3784
     -2086.5624      -1625.8934
 -15531760.48747 -12102668.39447  19384177.4374   19384175.5854
      2912.8754       2269.7734
  -3380992.58347  -2634539.02346  20349458.5074   20349457.6284
      -550.9694       -429.3264
 -18956611.17446 -14653262.92845  21345722.8434   21345722.2454
      3795.4224       2957.4724
   2560401.48145   1981151.90844  22622074.9834   22622076.3554
     -1167.2344       -909.5334
 96  8 31 16 36 59.9950000  0  5G 5G 6G10G17G24
   4333613.43645   3385597.57845  22008362.7654   22008362.1554
     -2095.9844      -1633.2354
 -15618952.87047 -12170610.50047  19367585.2494   19367583.3744
      2899.8594       2259.6314
  -3364173.73747  -2621433.43246  20352658.8514   20352658.0654
      -570.4374       -444.4974
 -19070287.41046 -14741841.78445  21324091.1244   21324090.1284
      3782.9064       2947.7194
   2595489.36445   2008493.06744  22628752.3194   22628752.6364
     -1172.0784       -913.3084
 96  8 31 16 37 29.9950000  0  5G 5G 6G10G17G24
   4396627.46545   3434699.36345  22020353.5384   22020352.8944
     -2105.0944      -1640.3334
 -15705757.49547 -12238250.46347  19351066.9604   19351065.1554
      2886.9224       2249.5504
  -3346780.58847  -2607880.34246  20355968.9764   20355967.8984
      -589.1874       -459.1074
 -19183608.82946 -14830144.15245  21302526.5694   21302525.7614
      3771.9844       2939.2094
   2630715.14345   2035941.69244  22635455.5154   22635455.0584
     -1176.3444       -916.6314
 96  8 31 16 37 59.9950000  0  5G 5G 6G10G17G24
   4459923.60445   3484020.97245  22032398.5234   22032398.1244
     -2114.6094      -1647.7484
 -15792158.65147 -12305576.02847  19334625.4764   19334623.5424
      2873.1724       2238.8354
  -3328815.39347  -2593881.49746  20359387.5544   20359386.5584
      -608.4374       -474.1074
 -19296611.51446 -14918198.16345  21281024.5384   21281023.6594
      3761.6564       2931.1614
   2666073.08145   2063493.29843  22642183.6554   22642181.1944
     -1180.7814       -920.0894
 96  8 31 16 38 29.9950000  0  5G 5G 6G10G17G24
   4523502.17645   3533562.66045  22044497.2654   22044496.3394
     -2123.9374      -1655.0164
 -15878150.12047 -12372582.35447  19318261.8434   19318259.8394
      2859.5164       2228.1944
  -3310275.75047  -2579435.02946  20362915.6014   20362914.7454
      -627.5944       -489.0344
 -19409305.26146 -15006011.43945  21259578.4524   21259577.3744
      3751.1094       2922.9424
   2701561.82645   2091146.84043  22648936.2884   22648937.2734
     -1185.0944       -923.4504
 96  8 31 16 38 59.9950000  0  5G 5G 6G10G17G24
   4587349.75745   3583313.97445  22056647.2654   22056646.8664
     -2132.8124      -1661.9324
 -15963729.97547 -12439267.94847  19301976.5854   19301974.4874
      2845.5474       2217.3094
  -3291166.13647  -2564544.42946  20366552.0304   20366550.9994
      -646.6094       -503.8514
 -19521683.60446 -15093578.94445  21238193.7104   21238193.1124
      3740.5944       2914.7484
   2737177.34645   2118899.13942  22655714.5854   22655715.6164
     -1189.4694       -926.8594
 96  8 31 16 39 29.9950000  0  5G 5G 6G10G17G24
   4651465.75945   3633274.44245  22068847.8744   22068847.5934
     -2141.6254      -1668.7994
 -16048883.02747 -12505620.96147  19285772.3744   19285770.3354
      2831.2504       2206.1694
  -3271473.30547  -2549199.36946  20370299.1794   20370298.4874
      -666.3754       -519.2534
 -19633745.72946 -15180900.04946  21216868.6164   21216867.9484
      3730.0314       2906.5184
   2772924.10845   2146753.73043  22662517.0774   22662516.8664
     -1193.6564       -930.1224
 96  8 31 16 39 59.9950000  0  5G 5G 6G10G17G24
   4715832.47145   3683430.26745  22081096.8824   22081095.9684
     -2149.3754      -1674.8384
 -16133619.40147 -12571649.29647  19269647.5384   19269645.4174
      2817.9224       2195.7834
  -3251189.01447  -2533393.44646  20374159.4054   20374158.5384
      -685.9224       -534.4854
 -19745484.36046 -15267969.07546  21195605.5154   21195604.9054
      3719.0474       2897.9594
   2808784.19345   2174696.60343  22669340.8124   22669341.8554
     -1196.9374       -932.6794
 96  8 31 16 40 29.9950000  0  5G 5G 6G10G17G24
   4780428.40245   3733764.70845  22093389.0854   22093388.6984
     -2156.7814      -1680.6094
 -16217952.91747 -12637363.71747  19253599.5934   19253597.4374
      2804.4384       2185.2764
  -3230316.43747  -2517129.10546  20378131.2654   20378130.3744
      -705.4374       -549.6924
 -19856873.70246 -15354765.93646  21174408.5854   21174408.2454
      3707.1094       2888.6574
   2844741.28145   2202715.10643  22676183.0694   22676181.9804
     -1199.9534       -935.0284
 96  8 31 16 40 59.9950000  0  5G 5G 6G10G17G24
   4845250.08645   3784275.05745  22105723.9914   22105723.4644
     -2164.4064      -1686.5504
 -16301874.82647 -12702757.39947  19237629.6404   19237627.8234
      2790.7974       2174.6474
  -3208853.55647  -2500404.79046  20382215.3584   20382214.6794
      -725.1094       -565.0204
 -19967900.08546 -15441279.97246  21153281.3904   21153280.6404
      3694.9844       2879.2094
   2880790.24445   2230805.15243  22683043.5384   22683044.0894
     -1202.8444       -937.2814
 96  8 31 16 41 29.9950000  0  5G 5G 6G10G17G24
   4910296.22545   3834960.29745  22118102.0304   22118101.8664
     -2172.0004      -1692.4684
 -16385395.38447 -12767838.34747  19221736.4054   19221734.4014
      2777.2814       2164.1154
  -3186804.70247  -2483223.87846  20386411.3434   20386410.6634
      -744.7344       -580.3124
 -20078571.91846 -15527517.73546  21132220.7804   21132220.0074
      3683.1094       2869.9554
   2916910.42745   2258950.72943  22689915.9684   22689916.7414
     -1205.2194       -939.1314
 96  8 31 16 41 59.9950000  0  5G 5G 6G10G17G24
   4975562.19645   3885816.84545  22130521.6324   22130521.2924
     -2179.0004      -1697.9224
 -16468519.11047 -12832610.07447  19205918.3044   19205916.3474
      2764.3284       2154.0224
  -3164189.77247  -2465601.86746  20390714.5694   20390713.8084
      -762.7194       -594.3264
 -20188896.48846 -15613484.90346  21111227.5624   21111226.6944
      3672.0004       2861.2994
   2953099.29045   2287149.80143  22696803.8744   22696803.5114
     -1207.4534       -940.8734
 96  8 31 16 42 29.9950000  0  5G 5G 6G10G17G24
   5041051.65945   3936847.52245  22142984.1014   22142983.5264
     -2186.6094      -1703.8514
 -16551233.61147 -12897062.92247  19190178.1794   19190176.1634
      2750.3134       2143.1014
  -3141032.59347  -2447557.31846  20395121.3984   20395120.6364
      -780.7194       -608.3524
 -20298882.11246 -15699187.94946  21090297.9054   21090297.5774
      3660.9224       2852.6664
   2989378.09745   2315418.98743  22703706.5074   22703705.8624
     -1210.8284       -943.5024
 96  8 31 16 42 59.9950000  0  5G 5G 6G10G17G24
   5106763.52145   3988051.51445  22155488.6874   22155488.2654
     -2193.8914      -1709.5254
 -16633532.85647 -12961192.19747  19174517.0384   19174515.0934
      2736.5164       2132.3504
  -3117342.64847  -2429097.62746  20399629.5934   20399628.4684
      -798.3914       -622.1234
 -20408549.47446 -15784643.00946  21069428.2884   21069427.5974
      3650.4694       2844.5214
   3025762.01545   2343770.04743  22710631.0464   22710630.5544
     -1214.5164       -946.3764
 96  8 31 16 43 29.9950000  0  4G 5G 6G10G17
   5172692.15945   4039424.40945  22168034.6404   22168034.5814
     -2201.0784      -1715.1264
 -16715408.80847 -13024991.63047  19158936.6634   19158934.6834
      2722.1414       2121.1494
  -3093122.33147  -2410224.66746  20404238.4134   20404237.4524
      -815.8914       -635.7594
 -20517905.29046 -15869855.30546  21048618.8584   21048617.8044
      3640.1564       2836.4854
 96  8 31 16 43 59.9950000  0  4G 5G 6G10G17
   5238827.52445   4090958.38945  22180620.0854   22180619.2764
     -2207.8124      -1720.3734
 -16796853.29347 -13088454.85747  19143438.3824   19143436.3314
      2707.5634       2109.7894
  -3068387.32447  -2390950.64346  20408945.5934   20408944.7844
      -833.1254       -649.1884
 -20626951.89146 -15954826.65946  21027868.1084   21027867.0194
      3629.6094       2828.2674
 96  8 31 16 44 29.9950000  0  4G 5G 6G10G17
   5305152.03545   4142639.79145  22193241.1404   22193240.4834
     -2213.9534      -1725.1584
 -16877869.85147 -13151584.63747  19128021.4604   19128019.3394
      2693.5784       2098.8924
  -3043135.07847  -2371273.58146  20413750.7964   20413750.0114
      -850.4224       -662.6664
 -20735690.41046 -16039557.94246  21007175.6794   21007174.6834
      3619.5474       2820.4264
 96  8 31 16 44 59.9950000  0  4G 5G 6G10G17
   5371650.81445   4194456.95744  22205895.5154   22205894.6244
     -2219.5164      -1729.4934
 -16958477.36847 -13214395.67247  19112682.4684   19112680.4644
      2680.2194       2088.4824
  -3017369.84247  -2351196.78246  20418653.9294   20418653.2494
      -867.3444       -675.8524
 -20844133.33046 -16124058.87946  20986539.7264   20986538.9644
      3609.8754       2812.8904
 96  8 31 16 45 29.9950000  0  4G 5G 6G10G17
   5438339.52045   4246422.11345  22218585.6794   22218585.3274
     -2226.2344      -1734.7284
 -17038674.70947 -13276887.09847  19097421.1324   19097419.2694
      2666.4384       2077.7444
  -2991083.78347  -2330714.15346  20423656.2414   20423655.3274
      -884.9224       -689.5504
 -20952273.53446 -16208323.95146  20965960.9994   20965960.0384
      3599.6724       2804.9394
 96  8 31 16 45 59.9950000  0  4G 5G 6G10G17
   5505226.93345   4298542.10845  22231314.3044   22231314.2694
     -2232.9844      -1739.9884
 -17118456.98347 -13339055.09547  19082239.0304   19082237.1444
      2652.2974       2066.7254
  -2964262.14247  -2309814.17746  20428759.7264   20428758.8824
      -903.3754       -703.9294
 -21060105.94846 -16292349.17846  20945441.3434   20945440.4764
      3589.1724       2796.7574
 96  8 31 16 46 29.9950000  0  4G 5G 6G10G17
   5572311.49745   4350815.75345  22244080.0464   22244080.0464
     -2239.3914      -1744.9804
 -17197825.47847 -13400900.66747  19067135.9684   19067134.0694
      2638.7974       2056.2054
  -2936892.58347  -2288487.26646  20433968.3274   20433967.4254
      -921.2974       -717.8944
 -21167640.42646 -16376142.24746  20924978.2804   20924977.4604
      3579.7974       2789.4524
 96  8 31 16 46 59.9950000  0  4G 5G 6G10G17
   5639581.89245   4403234.17544  22256880.9914   22256880.7224
     -2245.5624      -1749.7894
 -17276789.40647 -13462430.99447  19052109.5384   19052107.6754
      2625.3134       2045.6984
  -2908988.52447  -2266743.85346  20439278.1404   20439277.1204
      -939.1414       -731.7984
 -21274900.59346 -16459721.56746  20904566.8824   20904566.0384
      3570.6884       2782.3544
 96  8 31 16 47 29.9950000  0  4G 5G 6G10G17
   5707048.16945   4455805.23645  22269719.6714   22269719.0154
     -2251.7974      -1754.6474
 -17355340.09147 -13523639.31647  19037161.7964   19037159.8154
      2611.4064       2034.8624
  -2880543.87747  -2244579.21046  20444691.0384   20444690.1244
      -957.0004       -745.7144
 -21381879.97746 -16543082.09346  20884210.4134   20884209.5464
      3561.3594       2775.0854
 96  8 31 16 47 59.9950000  0  4G 5G 6G10G17
   5774683.37345   4508507.91245  22282590.4524   22282590.0074
     -2257.7504      -1759.2864
 -17433475.60147 -13584524.12547  19022293.2494   19022291.2334
      2597.1254       2023.7344
  -2851573.40347  -2222004.83046  20450203.7494   20450203.1984
      -974.7034       -759.5094
 -21488578.85346 -16626224.04946  20863905.8984   20863904.6444
      3551.2974       2767.2444
 96  8 31 16 48 29.9950000  0  4G 5G 6G10G17
   5842491.90045   4561345.66845  22295493.9524   22295494.2574
     -2263.2194      -1763.5474
 -17511196.42847 -13645085.80147  19007503.1794   19007501.1054
      2583.8754       2013.4094
  -2822099.05847  -2199037.82646  20455812.4914   20455811.7414
      -990.5624       -771.8674
 -21594986.31146 -16709138.91346  20843657.2884   20843656.0934
      3542.1094       2760.0854
 96  8 31 16 48 59.9940000  0  4G 5G 6G10G17
   5910471.18445   4614316.46244  22308430.1584   22308429.7014
     -2268.8754      -1767.9554
 -17588504.17047 -13705325.58647  18992792.2364   18992790.1394
      2570.1724       2002.7314
  -2792141.96447  -2175694.65046  20461513.2914   20461512.6474
     -1006.4694       -784.2614
 -21701090.26146 -16791817.28746  20823466.0334   20823465.1434
      3531.7194       2751.9894
 96  8 31 16 49 29.9940000  0  4G 5G 6G10G17
   5978617.79545   4667417.63845  22321397.8304   22321398.4044
     -2274.2034      -1772.1064
 -17665395.70047 -13765241.05847  18978160.4004   18978158.5844
      2555.6564       1991.4204
  -2761713.37747  -2151984.07646  20467303.7214   20467302.9244
     -1022.2974       -796.5954
 -21806880.82746 -16874251.46746  20803334.4474   20803333.6154
      3520.7664       2743.4544
 96  8 31 16 49 59.9940000  0  4G 5G 6G10G17
   6046921.91745   4720641.56744  22334395.8774   22334395.9364
     -2279.5474      -1776.2704
 -17741848.10647 -13824814.34947  18963611.7604   18963609.9794
      2541.0314       1980.0244
  -2730806.63447  -2127900.91746  20473185.2994   20473184.5024
     -1038.1724       -808.9654
 -21912335.99846 -16956424.29646  20783267.0024   20783266.3574
      3509.5004       2734.6754
 96  8 31 16 50 29.9940000  0  4G 5G 6G10G17
   6115396.99045   4773998.71745  22347426.0024   22347425.9084
     -2285.0004      -1780.5194
 -17817848.94747 -13884035.78047  18949149.2834   18949147.3734
      2526.0314       1968.3364
  -2699414.22747  -2103439.31546  20479158.9244   20479157.8224
     -1054.5314       -821.7134
 -22017450.62046 -17038331.77146  20763264.7054   20763264.0844
      3498.4534       2726.0674
 96  8 31 16 50 59.9940000  0  4G 5G 6G10G17
   6184013.56645   4827466.09845  22360483.4324   22360484.1584
     -2289.1254      -1783.7344
 -17893402.92147 -13942909.00347  18934771.8544   18934769.8504
      2511.1254       1956.7214
  -2667523.05447  -2078589.06946  20485227.5724   20485227.1624
     -1071.3124       -834.7894
 -22122230.57146 -17119978.46646  20743325.6504   20743324.7014
      3487.1724       2717.2774
 96  8 31 16 51 29.9940000  0  4G 5G 6G10G17
   6252747.24145   4881024.73344  22373562.9944   22373562.5614
     -2293.0624      -1786.8024
 -17968516.09247 -14001438.73647  18920478.1044   18920476.0884
      2496.6254       1945.4224
  -2635130.75847  -2053348.32946  20491391.7604   20491390.8814
     -1088.1724       -847.9264
 -22226688.27546 -17201374.04746  20723447.6584   20723446.8734
      3476.7664       2709.1684
 96  8 31 16 51 59.9940000  0  4G 5G 6G10G17
   6321605.12345   4934680.14044  22386666.1974   22386666.9474
     -2297.6254      -1790.3574
 -18043206.06447 -14059638.70447  18906265.3694   18906263.4124
      2482.6564       1934.5374
  -2602234.61447  -2027714.98246  20497651.5184   20497650.6864
     -1104.9374       -860.9904
 -22330841.06446 -17282532.03246  20703627.6664   20703626.8814
      3466.6724       2701.3034
 96  8 31 16 52 29.9940000  0  5G26G 5G 6G10G17
   -118829.31945                  22655448.5334
      4094.2344
   6390582.69545   4988428.84144  22399792.8854   22399792.7444
     -2301.2814      -1793.2064
 -18117498.56647 -14117528.94947  18892127.7364   18892125.8154
      2469.8594       1924.5664
  -2568855.53147  -2001705.31346  20504003.4084   20504003.1744
     -1120.8444       -873.3854
 -22434714.27746 -17363472.17146  20683861.6114   20683860.7684
      3457.7974       2694.3874
 96  8 31 16 52 59.9940000  0  5G26G 5G 6G10G17
   -241548.97844     -3181.88253  22332303.2834   22332303.1784
      4086.8284       3184.5414
   6459680.49445   5042271.21744  22412941.5654   22412943.1934
     -2305.5944      -1796.5674
 -18191395.77547 -14175111.18447  18878065.6664   18878063.7444
      2456.4384       1914.1074
  -2534992.60747  -1975318.63846  20510447.4164   20510446.3974
     -1136.6564       -885.7064
 -22538304.44346 -17444191.75746  20664148.9794   20664147.8184
      3448.2034       2686.9124
 96  8 31 16 53 29.9940000  0  5G26G 5G 6G10G17
   -364036.55445    -98626.71143  22308995.0494   22308995.8114
      4079.3134       3178.6854
   6528933.30945   5096234.35943  22426119.8854   22426120.9514
     -2311.1254      -1800.8774
 -18264885.05247 -14232375.55547  18864081.2054   18864079.3184
      2443.0164       1903.6494
  -2500663.06047  -1948568.35446  20516979.9714   20516979.3154
     -1151.7034       -897.4314
 -22641611.22946 -17524690.53146  20644490.4164   20644489.4084
      3439.0474       2679.7774
 96  8 31 16 53 59.9940000  0  6G26G 5G 6G10G17G23
   -486309.78845   -193904.51743  22285726.9944   22285727.4044
      4072.0784       3173.0484
   6598338.72444   5150316.44143  22439327.0574   22439325.3574
     -2315.9694      -1804.6514
 -18337978.07347 -14289331.14947  18850172.2214   18850170.2054
      2429.7344       1893.3004
  -2465900.63447  -1921480.76346  20523595.1584   20523594.5494
     -1165.8754       -908.4744
 -22744648.82646 -17604979.54046  20624883.1044   20624881.9204
      3429.8914       2672.6424
         3.99454                  22483844.6664
      4797.7344
 96  8 31 16 54 29.9940000  0  6G26G 5G 6G10G17G23
   -608352.28445   -289002.49443  22262502.9554   22262503.9164
      4064.0164       3166.7654
   6667883.32044   5204506.96543  22452561.2364   22452561.1074
     -2320.4224      -1808.1214
 -18410670.97447 -14345974.96147  18836338.9864   18836337.0654
      2416.3284       1882.8534
  -2430708.98447  -1894058.71246  20530291.9404   20530291.1194
     -1180.3284       -919.7364
 -22847400.41746 -17685045.68246  20605330.2364   20605329.3224
      3420.1094       2665.0204
   -143815.41145                  22456475.7754
      4790.1414
 96  8 31 16 54 59.9940000  0  6G26G 5G 6G10G17G23
   -730145.83445   -383906.52043  22239325.7834   22239324.7754
      4056.0164       3160.5324
   6737577.53944   5258814.05143  22465822.6194   22465823.0764
     -2325.4374      -1812.0294
 -18482941.50447 -14402289.64847  18822586.5104   18822584.5884
      2402.1414       1871.7984
  -2395072.02147  -1866289.66246  20537073.1904   20537072.2874
     -1195.1094       -931.2544
 -22949837.35746 -17764866.65146  20585837.0254   20585836.1354
      3409.4844       2656.7414
   -287391.78745    -70830.62654  22429153.2214   22429153.5374
      4782.0164       3726.2464
 96  8 31 16 55 29.9940000  0  6G26G 5G 6G10G17G23
   -851717.74245   -478637.81343  22216192.2834   22216192.4714
      4049.3444       3155.3334
   6807410.24744   5313229.09442  22479112.0574   22479112.1974
     -2329.4844      -1815.1834
 -18554797.31047 -14458281.17647  18808912.4944   18808910.3384
      2388.4534       1861.1324
  -2358991.75047  -1838175.17746  20543939.3694   20543938.4674
     -1210.0624       -942.9064
 -23051972.49246 -17844452.43446  20566401.3694   20566400.1504
      3399.7344       2649.1444
   -430721.12445   -182515.72044  22401879.6664   22401879.5614
      4773.5314       3719.6354
 96  8 31 16 55 59.9940000  0  6G26G 5G 6G10G17G23
   -973101.11945   -573222.17943  22193093.9634   22193094.7134
      4043.0004       3150.3904
   6877337.51344   5367717.80043  22492419.4084   22492420.0414
     -2332.2974      -1817.3744
 -18626242.83547 -14513953.00747  18795316.9554   18795315.0104
      2374.6414       1850.3694
  -2322455.73647  -1809705.56646  20550891.7444   20550891.2174
     -1225.6724       -955.0694
 -23153814.54746 -17923809.85646  20547021.2524   20547020.4084
      3389.9064       2641.4854
   -573800.74145   -294006.25344  22374652.7914   22374653.3894
      4765.3444       3713.2554
 96  8 31 16 56 29.9940000  0  6G26G 5G 6G10G17G23
  -1094299.78445   -667662.59143  22170029.5494   22170030.2754
      4036.9534       3145.6784
   6947350.26944   5422273.11343  22505742.2054   22505743.6004
     -2335.3124      -1819.7244
 -18697272.87447 -14569301.07547  18781800.3854   18781798.2994
      2360.4844       1839.3384
  -2285450.35447  -1780870.21746  20557933.6974   20557933.1004
     -1241.3594       -967.2934
 -23255369.02346 -18002943.18046  20527696.0024   20527694.7954
      3380.5474       2634.1924
   -716643.27645   -405312.02344  22347470.4164   22347471.0254
      4757.5004       3707.1434
 96  8 31 16 56 59.9940000  0  6G26G 5G 6G10G17G23
  -1215323.35445   -761966.58844  22146999.8774   22147000.4044
      4031.4384       3141.3804
   7017460.48444   5476904.36043  22519083.3224   22519080.9794
     -2338.5314      -1822.2324
 -18767860.80947 -14624304.64947  18768368.0884   18768366.0724
      2345.5474       1827.6994
  -2247973.56847  -1751667.53246  20565065.2754   20565064.4554
     -1256.9844       -979.4684
 -23356649.18646 -18081862.75846  20508423.2524   20508422.3034
      3371.7194       2627.3134
   -859252.12445   -516435.72644  22320332.9324   22320333.8344
      4749.9844       3701.2874
 96  8 31 16 57 29.9940000  0  5G26G 6G10G17G23
  -1336165.97345   -856129.55644  22124004.4084   22124003.7054
      4024.5004       3135.9744
 -18837994.31647 -14678954.13047  18755022.1744   18755020.2644
      2329.8284       1815.4504
  -2210027.54546  -1722099.21546  20572285.9714   20572285.3154
     -1272.8124       -991.8024
 -23457660.83146 -18160573.10146  20489201.1664   20489200.3344
      3362.1094       2619.8254
  -1001636.39845   -627384.44144  22293238.5964   22293239.1354
      4742.4534       3695.4184
 96  8 31 16 57 59.9940000  0  5G26G 6G10G17G23
  -1456786.07945   -950119.14144  22101050.5334   22101049.5964
      4016.5314       3129.7654
 -18907660.45347 -14733239.42847  18741765.1744   18741763.2994
      2314.5784       1803.5674
  -2171619.77946  -1692171.09946  20579595.1744   20579594.1664
     -1287.6724      -1003.3814
 -23558380.87246 -18239056.22846  20470034.8544   20470033.8574
      3352.4694       2612.3134
  -1143819.60645   -738176.46544  22266181.6824   22266182.1624
      4736.3914       3690.6944
 96  8 31 16 58 29.9940000  0  5G26G 6G10G17G23
  -1577163.29145  -1043919.46044  22078143.5964   22078142.7754
      4008.4064       3123.4334
 -18976875.17147 -14787172.96247  18728593.8854   18728592.0334
      2299.7814       1792.0374
  -2132775.74946  -1661903.04346  20586986.6664   20586985.9044
     -1301.9374      -1014.4974
 -23658811.58546 -18317313.89746  20450923.7994   20450922.6974
      3342.7664       2604.7524
  -1285820.62845   -848826.52744  22239158.5494   22239159.2644
      4730.1094       3685.8004
 96  8 31 16 58 59.9940000  0  5G26G 6G10G17G23
  -1697294.70645  -1137528.24944  22055283.7754   22055283.3544
      4000.4694       3117.2484
 -19045655.51647 -14840768.02647  18715505.3544   18715503.4204
      2285.8134       1781.1534
  -2093507.39746  -1631304.33546  20594459.1274   20594458.6234
     -1315.8754      -1025.3574
 -23758948.88546 -18395342.93846  20431868.3854   20431867.4004
      3333.1564       2597.2654
  -1427628.85445   -959326.37844  22212174.4404   22212175.4944
      4723.8444       3680.9174
 96  8 31 16 59 29.9940000  0  5G26G 6G10G17G23
  -1817179.30845  -1230944.69844  22032470.2754   22032469.6434
      3991.7344       3110.4424
 -19114022.96747 -14894041.36047  18702495.7444   18702493.7644
      2271.8754       1770.2924
  -2053816.23346  -1600376.16946  20602012.2294   20602011.9004
     -1330.2344      -1036.5464
 -23858789.27946 -18473140.62046  20412868.5804   20412867.7014
      3322.7194       2589.1314
  -1569235.22945  -1069668.92244  22185227.2914   22185228.1234
      4716.3914       3675.1104
 96  8 31 16 59 59.9940000  0  5G26G 6G10G17G23
  -1936805.78045  -1324160.03344  22009705.6504   22009704.5144
      3983.5944       3104.0994
 -19181967.63447 -14946985.24947  18689566.2294   18689564.1194
      2257.8134       1759.3344
  -2013694.53846  -1569112.52446  20609646.9164   20609646.2134
     -1344.3914      -1047.5774
 -23958322.82346 -18550699.20246  20393928.5724   20393927.5884
      3313.0314       2581.5834
  -1710603.82345  -1179826.16844  22158325.8934   22158326.8654
      4708.0634       3668.6204
 96  8 31 17  0 29.9940000  0  5G26G 6G10G17G23
  -2056194.08445  -1417189.77244  21986987.5184   21986986.6274
      3975.5474       3097.8294
 -19249481.46547 -14999593.42247  18676718.7444   18676716.7524
      2242.8594       1747.6834
  -1973140.48146  -1537511.97646  20617364.6044   20617363.9474
     -1359.2814      -1059.1804
 -24057562.66846 -18628028.93346  20375043.8614   20375042.8774
      3302.8594       2573.6574
  -1851705.56745  -1289775.50544  22131474.7214   22131476.1974
      4698.6414       3661.2784
 96  8 31 17  0 59.9940000  0  5G26G 6G10G17G23
  -2175341.23545  -1510031.59544  21964314.3154   21964314.3264
      3967.4384       3091.5104
 -19316533.42347 -15051841.68847  18663959.1504   18663957.1824
      2227.0004       1735.3254
  -1932145.88646  -1505568.14946  20625165.5334   20625165.2754
     -1373.7664      -1070.4674
 -24156503.80046 -18705125.89546  20356215.7604   20356214.7294
      3293.1094       2566.0594
  -1992536.93645  -1399514.15244  22104676.1504   22104676.1624
      4690.0634       3654.5944
 96  8 31 17  1 29.9940000  0  5G26G 6G10G17G23
  -2294226.17045  -1602669.11844  21941690.7834   21941689.5534
      3958.3134       3084.3994
 -19383093.66147 -15103706.80547  18651293.2054   18651291.1544
      2210.4064       1722.3944
  -1890714.89446  -1473284.27946  20633049.4244   20633048.6624
     -1388.0944      -1081.6314
 -24255134.63546 -18781981.06746  20337447.2214   20337446.0844
      3282.3754       2557.6954
  -2133102.78745  -1509045.90344  22077926.1664   22077926.1664
      4681.1094       3647.6184
 96  8 31 17  1 59.9940000  0  5G26G 6G10G17G23
  -2412839.47845  -1695094.95744  21919119.6044   21919119.0884
      3949.2504       3077.3384
 -19449152.20747 -15155180.98447  18638722.4714   18638720.4324
      2193.5944       1709.2944
  -1848855.27546  -1440666.41046  20641015.1274   20641014.6114
     -1402.6414      -1092.9674
 -24353447.73946 -18858588.65546  20318738.4944   20318737.4864
      3271.8594       2549.5014
  -2273410.92645  -1618376.84144  22051226.8694   22051225.7794
      4672.9064       3641.2264
 96  8 31 17  2 29.9940000  0  5G26G 6G10G17G23
  -2531173.28845  -1787303.04345  21896601.0414   21896600.3264
      3939.5944       3069.8134
 -19514718.08047 -15206271.26747  18626245.8544   18626243.8854
      2177.5314       1696.7784
  -1806552.28046  -1407703.05846  20649065.2054   20649064.7254
     -1417.5164      -1104.5584
 -24451440.61246 -18934946.71446  20300091.5804   20300090.7014
      3260.9534       2541.0024
  -2413478.27045  -1727520.13944  22024572.9554   22024573.2484
      4664.9224       3635.0044
 96  8 31 17  2 59.9940000  0  5G26G 6G10G17G23
  -2649213.84945  -1879282.62945  21874138.6664   21874137.7294
      3929.6414       3062.0584
 -19579818.22947 -15256998.65047  18613857.9164   18613855.9004
      2162.4844       1685.0534
  -1763815.09946  -1374401.37146  20657197.7604   20657197.0454
     -1431.9374      -1115.7954
 -24549116.03946 -19011057.41546  20281504.3224   20281503.4084
      3250.4844       2532.8454
  -2553310.76745  -1836480.45145  21997963.1904   21997963.2014
      4656.9384       3628.7824
 96  8 31 17  3 29.9940000  0  5G26G 6G10G17G23
  -2766954.37745  -1971028.42645  21851733.6584   21851732.3224
      3920.2344       3054.7284
 -19644475.86447 -15307381.21447  18601553.7914   18601551.9284
      2148.4534       1674.1194
  -1720635.20446  -1340754.71546  20665414.3614   20665413.8114
     -1446.3594      -1127.0334
 -24646468.95846 -19086916.81446  20262978.7214   20262977.7484
      3240.1724       2524.8094
  -2692886.58045  -1945240.75645  21971403.9244   21971402.7524
      4648.4384       3622.1594
 96  8 31 17  3 59.9940000  0  5G26G 6G10G17G23
  -2884417.87145  -2062558.36645  21829381.0804   21829380.9044
      3910.7194       3047.3134
 -19708711.30147 -15357434.79347  18589330.3544   18589328.2564
      2134.0634       1662.9064
  -1677019.32946  -1306768.33746  20673714.7134   20673714.1044
     -1461.1414      -1138.5514
 -24743526.96146 -19162546.39646  20244508.9244   20244507.8464
      3230.5314       2517.2974
  -2832200.88945  -2053797.27645  21944892.4404   21944892.2174
      4639.1254       3614.9034
 96  8 31 17  4 29.9940000  0  5G26G 6G10G17G23
  -3001592.79545  -2153863.40644  21807082.6434   21807081.8694
      3900.8754       3039.6434
 -19772524.73647 -15407159.53947  18577186.9714   18577185.1314
      2119.9384       1651.8994
  -1632981.83046  -1272453.41246  20682094.6664   20682094.1624
     -1474.5944      -1149.0344
 -24840297.00246 -19237951.59946  20226094.2134   20226093.3464
      3220.6414       2509.5904
  -2971225.97445  -2162128.42545  21918437.1744   21918437.2564
      4629.0474       3607.0504
 96  8 31 17  4 59.9940000  0  5G26G 6G10G17G23
  -3118473.13145  -2244938.92945  21784841.3224   21784839.8114
      3890.9844       3031.9364
 -19835891.09047 -15456535.90947  18565128.5884   18565126.6904
      2104.1564       1639.6024
  -1588546.87446  -1237828.78746  20690550.2294   20690549.1154
     -1487.9374      -1159.4324
 -24936764.55746 -19313121.09846  20207737.0724   20207736.0294
      3210.3284       2501.5544
  -3109945.94845  -2270221.86545  21892039.2364   21892038.7914
      4618.7194       3599.0024
 96  8 31 17  5 29.9940000  0  5G26G 6G10G17G23
  -3235062.73945  -2335787.91645  21762655.3934   21762654.3384
      3881.6724       3024.6794
 -19898769.26747 -15505531.88447  18553163.4084   18553161.3574
      2087.6564       1626.7454
  -1543715.17646  -1202895.00546  20699081.2914   20699080.9754
     -1500.6414      -1169.3304
 -25032917.89946 -19388045.76646  20189439.5964   20189438.5064
      3200.0944       2493.5804
  -3248351.93445  -2378070.59045  21865701.4004   21865701.2254
      4608.4844       3591.0274
 96  8 31 17  5 59.9940000  0  5G26G 6G10G17G23
  -3351353.10145  -2426403.70445  21740525.5184   21740524.5924
      3869.4384       3015.1464
 -19961133.60647 -15554127.46647  18541295.9004   18541293.9324
      2068.4694       1611.7944
  -1498497.06046  -1167660.12846  20707685.9404   20707685.4594
     -1515.4694      -1180.8854
 -25128764.03547 -19462731.04446  20171200.7994   20171199.7794
      3187.9694       2484.1314
  -3386445.36645  -2485675.80145  21839423.1584   21839422.4554
      4596.3284       3581.5544
 96  8 31 17  6 29.9940000  0  5G26G 6G10G17G23
  -3467300.34845  -2516752.16345  21718461.4404   21718460.1154
      3860.6564       3008.3044
 -20022949.64047 -15602295.79647  18529532.7214   18529530.6004
      2052.6414       1599.4604
  -1452854.66646  -1132094.63746  20716372.0884   20716371.4904
     -1527.4534      -1190.2234
 -25224256.34347 -19537140.61846  20153029.1274   20153027.9324
      3178.3444       2476.6314
  -3524213.57445  -2593027.57945  21813206.9244   21813206.5724
      4588.5004       3575.4554
 96  8 31 17  6 59.9940000  0  5G26G 6G10G17G23
  -3582994.67445  -2606903.51845  21696445.4404   21696444.1504
      3852.3754       3001.8514
 -20084279.29447 -15650085.13047  18517862.0494   18517860.0334
      2036.3134       1586.7374
  -1406837.82546  -1096237.37146  20725128.3544   20725127.7684
     -1540.2344      -1200.1834
 -25319468.03147 -19611331.51946  20134911.2524   20134910.1394
      3169.4064       2469.6674
  -3661754.42645  -2700202.17545  21787034.2754   21787033.3854
      4581.0634       3569.6594
 96  8 31 17  7 29.9940000  0  5G26G 6G10G17G23
  -3698439.35345  -2696860.36245  21674477.4714   21674476.5684
      3843.8914       2995.2394
 -20145134.55747 -15697504.81047  18506281.5654   18506279.3974
      2020.7974       1574.6474
  -1360431.96446  -1060076.98346  20733959.2994   20733958.7484
     -1553.4064      -1210.4464
 -25414416.30947 -19685317.16546  20116843.1434   20116841.9944
      3160.6094       2462.8134
  -3799075.03045  -2807205.19845  21760902.2294   21760901.9244
      4573.7344       3563.9494
 96  8 31 17  7 59.9940000  0  5G26G 6G10G17G23
  -3813635.32145  -2786623.38344  21652556.1354   21652556.0764
      3835.5314       2988.7264
 -20205543.09647 -15744576.39347  18494786.4324   18494784.1234
      2006.1414       1563.2264
  -1313640.08146  -1023615.78446  20742863.4244   20742862.8974
     -1566.4694      -1220.6254
 -25509112.44247 -19759106.34146  20098823.0024   20098821.8894
      3151.8594       2455.9944
  -3936191.98445  -2914049.51845  21734810.5494   21734809.5414
      4567.0314       3558.7264
 96  8 31 17  8 29.9940000  0  5G26G 6G10G17G23
  -3928585.61245  -2876194.98944  21630681.6824   21630681.2484
      3828.1254       2982.9554
 -20265510.94147 -15791304.58247  18483374.5804   18483372.3304
      1991.9384       1552.1594
  -1266453.99546   -986847.42046  20751842.7754   20751842.3304
     -1578.9064      -1230.3174
 -25603531.84247 -19832679.87846  20080855.3934   20080854.2444
      3143.1254       2449.1884
  -4073102.11645  -3020732.67345  21708756.7444   21708756.3344
      4560.3754       3553.5394
 96  8 31 17  8 59.9930000  0  5G26G 6G10G17G23
  -4043293.24345  -2965577.49645  21608853.5754   21608852.8964
      3819.2974       2976.0754
 -20325041.23547 -15837691.81647  18472046.4974   18472044.4234
      1977.0784       1540.5804
  -1218895.93346   -949789.20046  20760893.0214   20760892.3534
     -1591.5474      -1240.1664
 -25697684.72847 -19906045.74546  20062938.8574   20062937.8844
      3133.9844       2442.0664
  -4209777.25945  -3127232.72145  21682748.3724   21682748.0914
      4551.6094       3546.7094
 96  8 31 17  9 29.9930000  0  5G26G 6G10G17G23
  -4157719.83045  -3054740.99945  21587079.3254   21587079.4194
      3809.0944       2968.1254
 -20384126.74947 -15883732.46847  18460803.1074   18460800.9974
      1961.8754       1528.7344
  -1170949.14646   -912428.07346  20770016.8884   20770016.2324
     -1604.7344      -1250.4424
 -25791551.16747 -19979188.40446  20045076.3174   20045075.1464
      3123.8444       2434.1644
  -4346174.68445  -3233516.37645  21656792.3174   21656791.5324
      4541.4224       3538.7704
 96  8 31 17  9 59.9930000  0  5G26G 6G10G17G23
  -4271838.46445  -3143664.55344  21565362.9584   21565362.5954
      3798.9534       2960.2234
 -20442753.24947 -15929415.45747  18449646.6614   18449644.5404
      1946.6884       1516.8994
  -1122619.51946   -874768.64046  20779213.5524   20779213.0954
     -1617.1094      -1260.0854
 -25885121.44447 -20052100.29046  20027270.4504   20027269.4194
      3114.2034       2426.6524
  -4482271.87045  -3339566.06845  21630894.3254   21630894.0564
      4531.7974       3531.2704
 96  8 31 17 10 29.9930000  0  6G26G28G 6G10G17G23
  -4385649.67245  -3232348.55545  21543705.3104   21543703.6694
      3788.3754       2951.9814
    -49618.46613    -38663.13715  22354446.833    22354446.888
      4510.516        3514.688
 -20500921.43547 -15974741.31347  18438577.6384   18438575.5174
      1931.2504       1504.8704
  -1073924.20946   -836824.26646  20788480.1534   20788479.5444
     -1629.0944      -1269.4244
 -25978409.89447 -20124792.57546  20009518.6924   20009517.5674
      3105.2504       2419.6754
  -4618069.33645  -3445382.23945  21605052.4584   21605051.7434
      4521.3284       3523.1134
 96  8 31 17 10 59.9930000  0  6G26G28G 6G10G17G23
  -4499128.11845  -3320773.28245  21522110.9824   21522109.5524
      3776.8444       2942.9954
   -184893.064 3   -144071.881 5  22328704.696    22328705.614
      4507.781        3512.557
 -20558629.67047 -16019708.76147  18427596.1924   18427593.9544
      1915.9224       1492.9264
  -1024878.08646   -798606.51646  20797813.0134   20797812.5094
     -1640.7194      -1278.4824
 -26071437.98547 -20197281.97846  19991815.6854   19991814.5484
      3096.5474       2412.8944
  -4753548.74845  -3550950.54345  21579271.8574   21579271.6464
      4510.7504       3514.8704
 96  8 31 17 11 29.9930000  0  6G26G28G 6G10G17G23
  -4612251.29545  -3408921.14845  21500584.8414   21500583.6344
      3764.8134       2933.6204
   -320075.845 3   -249409.081 5  22302980.067    22302980.817
      4504.531        3510.024
 -20615864.27247 -16064307.14747  18416704.8174   18416702.6734
      1899.7504       1480.3254
   -975472.44246   -760108.62645  20807214.5214   20807214.2634
     -1652.7194      -1287.8334
 -26164190.22747 -20269556.44046  19974165.6304   19974164.4234
      3086.9694       2405.4304
  -4888716.35545  -3656275.89745  21553549.9504   21553549.4354
      4500.6564       3507.0054
 96  8 31 17 11 59.9930000  0  6G26G28G 6G10G17G23
  -4725020.93145  -3496793.54345  21479124.9114   21479123.8214
      3753.3594       2924.6964
   -455170.073 3   -354677.270 5  22277272.642    22277273.255
      4501.875        3507.955
 -20672616.58347 -16108529.72547  18405905.2714   18405903.1854
      1883.9384       1468.0034
   -925717.09446   -721338.24446  20816682.8724   20816682.5214
     -1664.2814      -1296.8434
 -26256652.22647 -20341604.73846  19956570.6694   19956569.7204
      3077.1564       2397.7844
  -5023601.76745  -3761381.36545  21527882.5054   21527882.0364
      4491.8754       3500.1624
 96  8 31 17 12 29.9930000  0  6G26G28G 6G10G17G23
  -4837445.58045  -3584397.11045  21457731.1384   21457729.6494
      3741.7974       2915.6864
   -590180.184 3   -459879.921 4  22251580.505    22251581.942
      4499.063        3505.763
 -20728894.06047 -16152382.29647  18395195.7324   18395193.6224
      1868.0004       1455.5844
   -875610.18546   -682293.91745  20826217.8964   20826217.5324
     -1675.9844      -1305.9624
 -26348816.88647 -20413421.33246  19939032.4744   19939031.4544
      3067.2664       2390.0774
  -5158212.86445  -3866273.08045  21502266.7394   21502266.4824
      4482.5314       3492.8814
 96  8 31 17 12 59.9930000  0  6G26G28G 6G10G17G23
  -4949528.50445  -3671734.40845  21436402.7714   21436401.6224
      3730.5164       2906.8954
   -725110.322 2   -565020.253 4  22225904.243    22225905.317
      4496.203        3503.535
 -20784690.85047 -16195860.31047  18384577.9974   18384575.8764
      1851.5944       1442.8004
   -825150.18946   -642974.45945  20835820.2084   20835819.4114
     -1688.2664      -1315.5324
 -26440675.77247 -20484999.67546  19921552.0674   19921550.8844
      3056.6254       2381.7864
  -5292563.07245  -3970961.51045  21476700.2164   21476699.7824
      4474.2344       3486.4164
 96  8 31 17 13 29.9930000  0  6G26G28G 6G10G17G23
  -5061295.62645  -3758825.61445  21415133.8724   21415131.8574
      3720.5944       2899.1644
   -859958.991 2   -670097.104 4  22200243.208    22200244.497
      4493.656        3501.550
 -20839993.77247 -16238953.48547  18374054.5284   18374052.3494
      1835.2974       1430.1014
   -774319.26446   -603365.96345  20845493.0054   20845492.6534
     -1700.4374      -1325.0164
 -26532222.40947 -20556334.69846  19904131.1384   19904129.7554
      3046.4844       2373.8844
  -5426682.28045  -4075469.94545  21451178.4744   21451177.9354
      4466.9224       3480.7184
 96  8 31 17 13 59.9930000  0  6G26G28G 6G10G17G23
  -5172761.74645  -3845682.27345  21393922.5444   21393922.0404
      3710.5474       2891.3354
   -994724.650 2   -775109.271 4  22174597.970    22174599.622
      4490.703        3499.249
 -20894807.15947 -16281665.21147  18363623.7324   18363621.5524
      1818.9064       1417.3304
   -723114.63246   -563466.26345  20855236.9894   20855236.7084
     -1713.2974      -1335.0374
 -26623467.49847 -20627434.74946  19886768.0214   19886766.8374
      3036.6414       2366.2134
  -5560560.88645  -4179790.89945  21425702.5214   21425702.2744
      4458.1254       3473.8644
 96  8 31 17 14 29.9930000  0  6G26G28G 6G10G17G23
  -5283935.47546  -3932311.10745  21372766.9744   21372765.7554
      3701.1564       2884.0184
  -1129402.256 2   -880052.817 5  22148969.728    22148971.146
      4487.813        3496.997
 -20949125.89647 -16323991.49347  18353287.2784   18353285.1464
      1802.3594       1404.4364
   -671530.38046   -523270.76145  20865053.3104   20865053.0404
     -1725.5944      -1344.6194
 -26714431.92447 -20698316.10646  19869457.8884   19869456.8104
      3027.6564       2359.2134
  -5694161.52045  -4283895.24145  21400278.7164   21400278.0954
      4448.6414       3466.4734
 96  8 31 17 14 59.9930000  0  6G26G28G 6G10G17G23
  -5394839.98246  -4018730.16045  21351662.7394   21351661.5094
      3692.5314       2877.2974
  -1263995.904 2   -984930.937 5  22123357.317    22123358.622
      4485.063        3494.854
 -21002958.98647 -16365939.35347  18343043.1224   18343041.0014
      1786.6564       1392.2004
   -619582.19446   -482791.66845  20874938.6304   20874938.0564
     -1737.5474      -1353.9334
 -26805127.76247 -20768988.17346  19852199.2784   19852198.2824
      3018.8914       2352.3824
  -5827485.34945  -4387783.90445  21374907.8414   21374907.7244
      4439.4694       3459.3264
 96  8 31 17 15 29.9930000  0  6G26G28G 6G10G17G23
  -5505479.64546  -4104942.82545  21330608.6464   21330606.9704
      3683.0004       2869.8704
  -1398503.615 3  -1089742.105 5  22097761.431    22097762.732
      4481.875        3492.370
 -21056328.45547 -16407525.94847  18332887.2714   18332885.0674
      1771.0944       1380.0734
   -567284.08146   -442039.91545  20884890.6384   20884890.0644
     -1749.1414      -1362.9674
 -26895561.95647 -20839456.36546  19834990.3174   19834989.4504
      3009.7814       2345.2844
  -5960516.30245  -4491444.33145  21349593.5604   21349593.1384
      4428.8444       3451.0474
 96  8 31 17 15 59.9930000  0  6G26G28G 6G10G17G23
  -5615824.95746  -4190926.13945  21309610.3174   21309609.4034
      3672.9694       2862.0544
  -1532919.094 3  -1194481.403 5  22072182.978    22072184.083
      4478.813        3489.984
 -21109236.68347 -16448753.13047  18322819.2244   18322817.1034
      1755.5944       1367.9954
   -514647.69746   -401024.56445  20894906.9584   20894906.1264
     -1760.1724      -1371.5624
 -26985726.13047 -20909714.14346  19817832.5674   19817831.5604
      3000.7344       2338.2354
  -6093222.01446  -4594851.34445  21324340.6304   21324339.6694
      4418.0164       3442.6104
 96  8 31 17 16 29.9930000  0  6G26G28G 6G10G17G23
  -5725856.71546  -4276665.12945  21288672.2324   21288670.8604
      3662.0474       2853.5434
  -1667239.286 3  -1299146.448 5  22046622.673    22046623.552
      4475.531        3487.427
 -21161669.44347 -16489609.81947  18312841.5754   18312839.3144
      1739.6884       1355.6014
   -461686.20646   -359755.88945  20904985.2084   20904984.5644
     -1770.7664      -1379.8174
 -27075610.78447 -20979754.12346  19800728.0524   19800726.8214
      2991.2194       2330.8204
  -6225612.08745  -4698012.39645  21299147.1534   21299146.5214
      4407.7974       3434.6474
 96  8 31 17 16 59.9930000  0  6G26G28G 6G10G17G23
  -5835547.86146  -4362138.70845  21267798.2004   21267797.2284
      3650.0944       2844.2294
  -1801463.148 3  -1403736.422 5  22021080.911    22021081.763
      4472.281        3484.894
 -21213627.71947 -16530096.78747  18302954.1924   18302951.8964
      1723.6724       1343.1214
   -408411.09946   -318242.83845  20915123.3724   20915122.9744
     -1781.2504      -1387.9874
 -27165207.06947 -21049569.39346  19783678.5214   19783677.2434
      2981.5784       2323.3084
  -6357704.58546  -4800941.58945  21274010.8104   21274010.0014
      4397.8134       3426.8674
 96  8 31 17 17 29.9930000  0  6G26G28G 6G10G17G23
  -5944863.16646  -4447319.42445  21246996.4504   21246994.4934
      3637.5634       2834.4644
  -1935584.148 3  -1508246.243 5  21995558.571    21995559.146
      4469.125        3482.435
 -21265088.34947 -16570195.97547  18293161.3884   18293159.0564
      1706.9224       1330.0694
   -354822.05646   -276485.15645  20925320.7004   20925320.0914
     -1791.3594      -1395.8644
 -27254514.55147 -21119159.63246  19766683.8724   19766682.5134
      2972.2504       2316.0394
  -6489484.65146  -4903627.30345  21248933.9744   21248933.2824
      4387.5784       3418.8924
 96  8 31 17 17 59.9930000  0  6G26G28G 6G10G17G23
  -6053796.46246  -4532202.47345  21226267.0444   21226265.8374
      3624.7344       2824.4684
  -2069600.501 3  -1612674.517 5  21970056.220    21970057.107
      4465.359        3479.501
 -21316035.94447 -16609895.40147  18283466.4504   18283464.2824
      1689.7344       1316.6764
   -300919.83046   -234483.44545  20935578.3104   20935577.7124
     -1802.0164      -1404.1684
 -27343533.95147 -21188525.38446  19749743.9894   19749742.8764
      2962.4384       2308.3934
  -6620953.45246  -5006070.47545  21223915.6774   21223915.2784
      4377.1254       3410.7474
 96  8 31 17 18 29.9930000  0  6G26G28G 6G10G17G23
  -6162344.46546  -4616785.26445  21205611.3104   21205610.3844
      3612.1254       2814.6434
  -2203503.443 3  -1717014.433 5  21944575.157    21944576.372
      4461.734        3476.676
 -21366472.99947 -16649197.00147  18273868.6854   18273866.4704
      1673.1564       1303.7584
   -246697.32846   -192232.15445  20945896.2554   20945895.8804
     -1812.5004      -1412.3384
 -27432263.00747 -21257664.89246  19732859.4354   19732858.3104
      2953.1414       2301.1494
  -6752109.58946  -5108270.02145  21198958.2784   21198957.2004
      4366.8284       3402.7234
 96  8 31 17 18 59.9930000  0  6G26G28G 6G10G17G23
  -6270523.98746  -4701080.94545  21185024.9354   21185023.9974
      3600.0164       2805.2074
  -2337299.451 3  -1821271.021 5  21919114.439    21919115.786
      4458.172        3473.900
 -21416416.25047 -16688113.82147  18264364.7554   18264362.5404
      1656.5164       1290.7914
   -192158.08546   -149734.06945  20956274.5674   20956273.9354
     -1823.2814      -1420.7394
 -27520715.33247 -21326588.77846  19716027.2784   19716026.1184
      2943.9064       2293.9534
  -6882957.53646  -5210229.41645  21174058.5134   21174058.5954
      4356.4694       3394.6514
 96  8 31 17 19 29.9930000  0  6G26G28G 6G10G17G23
  -6378345.37046  -4785097.56145  21164507.6144   21164506.4664
      3588.0784       2795.9054
  -2470986.591 4  -1925442.795 5  21893674.634    21893676.075
      4454.344        3470.917
 -21465863.64647 -16726644.25747  18254955.3334   18254953.2354
      1640.0784       1277.9834
   -137296.64046   -106984.91845  20966714.5604   20966713.9274
     -1834.1414      -1429.2004
 -27608891.35447 -21395297.35946  19699247.9974   19699246.8024
      2934.4224       2286.5634
  -7013498.19046  -5311949.34745  21149216.4824   21149215.6494
      4346.4694       3386.8594
 96  8 31 17 19 59.9930000  0  6G26G28G 6G10G17G23
  -6485812.62546  -4868838.23845  21144057.1924   21144055.6814
      3576.1414       2786.6034
  -2604563.541 4  -2029528.684 5  21868255.880    21868257.200
      4450.688        3468.068
 -21514829.01247 -16764799.08747  18245637.5994   18245635.4074
      1624.0944       1265.5284
    -82107.91446    -63980.72845  20977216.6774   20977216.5014
     -1845.1414      -1437.7724
 -27696781.37347 -21463783.07546  19682523.2634   19682522.0674
      2924.8754       2279.1234
  -7143752.43946  -5413446.12045  21124430.0754   21124429.2904
      4337.0314       3379.5054
 96  8 31 17 20 29.9930000  0  6G26G28G 6G10G17G23
  -6592914.06845  -4952293.84645  21123676.2474   21123675.2864
      3563.9534       2777.1064
  -2738029.666 4  -2133528.233 5  21842858.001    21842859.302
      4447.125        3465.292
 -21563298.77947 -16802567.73647  18236413.8414   18236411.6854
      1607.1724       1252.3424
    -26589.60146    -20719.73245  20987781.4354   20987780.8964
     -1855.9064      -1446.1614
 -27784388.59047 -21532048.43146  19665852.3104   19665851.1494
      2915.5944       2271.8914
  -7273724.19046  -5514722.76745  21099697.3414   21099696.7084
      4327.8134       3372.3214
 96  8 31 17 20 59.9930000  0  6G26G28G 6G10G17G23
  -6699639.59745  -5035456.55445  21103366.9824   21103365.6344
      3551.1254       2767.1104
  -2871381.395 4  -2237438.644 5  21817482.052    21817483.466
      4443.141        3462.188
 -21611246.22647 -16839929.38247  18227290.0834   18227287.8214
      1589.4224       1238.5114
     29255.73846     22796.10945  20998408.5604   20998408.1144
     -1866.9534      -1454.7694
 -27871705.56947 -21600087.61446  19649236.1614   19649235.0244
      2905.6414       2264.1364
  -7403407.04646  -5615774.29045  21075019.3414   21075019.1304
      4317.7974       3364.5174
 96  8 31 17 21 29.9930000  0  6G26G28G 6G10G17G23
  -6805989.07545  -5118326.21945  21083129.1774   21083128.7784
      3538.5784       2757.3344
  -3004628.890 4  -2341267.823 5  21792126.110    21792127.263
      4439.766        3459.558
 -21658680.75347 -16876891.34047  18218263.6464   18218261.4424
      1572.5474       1225.3614
     85412.23346     66554.39045  21009094.8644   21009094.2554
     -1877.1094      -1462.6834
 -27958738.20347 -21667905.24046  19632674.5914   19632673.3144
      2896.2344       2256.8064
  -7532799.13046  -5716599.23645  21050396.8104   21050396.6924
      4308.0784       3356.9444
 96  8 31 17 21 59.9930000  0  6G26G28G 6G10G17G23
  -6911953.70645  -5200896.01545  21062964.6694   21062964.2594
      3525.7814       2747.3624
  -3137768.767 4  -2445013.159 5  21766790.200    21766791.325
      4436.172        3456.757
 -21705597.24647 -16913449.65447  18209335.5914   18209333.2124
      1555.0944       1211.7614
    141878.42046    110553.99045  21019839.9974   21019839.7744
     -1887.2814      -1470.6094
 -28045486.73247 -21735501.47846  19616166.3334   19616165.1034
      2886.9534       2249.5744
  -7661880.74846  -5817182.25445  21025833.9114   21025833.3254
      4297.2034       3348.4704
 96  8 31 17 22 29.9930000  0  6G26G28G 6G10G17G23
  -7017539.54046  -5283170.64545  21042872.8494   21042871.1854
      3513.4224       2737.7314
  -3270799.350 4  -2548673.316 5  21741475.302    21741476.333
      4432.594        3453.969
 -21751990.86347 -16949600.52347  18200506.9584   18200504.9194
      1538.0944       1198.5154
    198642.39846    154785.64245  21030641.7714   21030641.3144
     -1896.9064      -1478.1094
 -28131956.52547 -21802880.52146  19599711.9194   19599710.6534
      2877.7344       2242.3904
  -7790636.57446  -5917511.42245  21001332.4974   21001331.9354
      4286.5314       3340.1544
 96  8 31 17 22 59.9930000  0  6G26G28G 6G10G17G23
  -7122756.29446  -5365157.67845  21022850.0284   21022849.0674
      3501.2344       2728.2354
  -3403719.033 4  -2652247.069 5  21716181.513    21716182.583
      4428.828        3451.035
 -21797891.61547 -16985367.34247  18191772.6224   18191770.3964
      1522.1414       1186.0844
    255699.79746    199245.92345  21041499.0284   21041498.2204
     -1906.8754      -1485.8774
 -28218149.16047 -21870043.59846  19583309.9974   19583308.8144
      2868.5314       2235.2194
  -7919068.39246  -6017588.11745  20976892.3174   20976891.1694
      4275.7974       3331.7904
 96  8 31 17 23 29.9930000  0  6G26G28G 6G10G17G23
  -7227605.88046  -5446858.61545  21002897.9194   21002896.5834
      3488.7504       2718.5064
  -3536519.148 4  -2755727.643 5  21690910.138    21690911.419
      4424.516        3447.675
 -21843313.31447 -17020760.87447  18183129.0994   18183126.8724
      1505.9384       1173.4584
    313060.95646    243942.91945  21052414.9584   21052414.6304
     -1917.1874      -1493.9124
 -28304058.30647 -21936985.77346  19566962.1464   19566960.9854
      2858.8284       2227.6584
  -8047179.35146  -6117414.78445  20952513.8414   20952513.1144
      4264.9694       3323.3524
 96  8 31 17 23 59.9930000  0  6G26G28G 6G10G17G23
  -7332089.48446  -5528274.36145  20983016.1304   20983014.9704
      3476.7034       2709.1194
  -3669199.678 4  -2859115.039 5  21665662.271    21665663.357
      4420.719        3444.716
 -21888255.06447 -17055780.42447  18174576.8104   18174574.5014
      1490.2034       1161.1974
    370719.66546    288871.76145  21063386.8644   21063385.9504
     -1926.7034      -1501.3274
 -28389693.81147 -22003714.73046  19550666.1074   19550665.0174
      2850.0164       2220.7914
  -8174979.31146  -6216999.10945  20928194.1614   20928193.4234
      4255.0784       3315.6454
 96  8 31 17 24 29.9930000  0  6G26G28G 6G10G17G23
  -7436209.63646  -5609406.90045  20963202.5444   20963201.3604
      3464.3284       2699.4764
  -3801765.687 3  -2962413.189 5  21640435.681    21640436.724
      4416.781        3441.648
 -21932732.36747 -17090438.05947  18166113.2474   18166110.8454
      1474.6414       1149.0714
    428656.47946    334017.31045  21074411.8494   21074410.6304
     -1935.9694      -1508.5474
 -28475062.93647 -22070236.11446  19534420.9584   19534419.7864
      2841.0314       2213.7914
  -8302492.14146  -6316359.70545  20903929.2084   20903928.6464
      4245.4384       3308.1334
 96  8 31 17 24 59.9930000  0  6G26G28G 6G10G17G23
  -7539954.76246  -5690247.22145  20943460.2474   20943458.9824
      3451.7814       2689.7004
  -3934212.551 3  -3065618.508 5  21615231.728    21615232.771
      4412.797        3438.543
 -21976731.54047 -17124723.12047  18157740.5054   18157738.3844
      1458.2664       1136.3114
    486872.12446    379380.12645  21085490.2554   21085490.3024
     -1945.2194      -1515.7554
 -28560158.56747 -22136544.38046  19518227.4034   19518226.3254
      2831.7344       2206.5464
  -8429701.45846  -6415483.80245  20879722.2324   20879721.3064
      4235.0004       3300.0004
 96  8 31 17 25 29.9930000  0  6G26G28G 6G10G17G23
  -7643320.81946  -5770792.14545  20923789.9354   20923788.4824
      3439.1094       2679.8254
  -4066540.057 3  -3168730.823 5  21590050.610    21590051.825
      4409.063        3435.633
 -22020229.66648 -17158617.76647  18149463.0754   18149460.8724
      1441.6564       1123.3694
    545355.41246    424951.50845  21096618.7554   21096618.5214
     -1953.7034      -1522.3664
 -28644972.85347 -22202633.42246  19502088.3964   19502087.2004
      2822.6564       2199.4724
  -8556593.29846  -6514360.50945  20855575.2394   20855574.3494
      4224.2974       3291.6604
 96  8 31 17 25 59.9930000  0  6G26G28G 6G10G17G23
  -7746293.71946  -5851030.73145  20904195.2784   20904193.9074
      3425.6414       2669.3304
  -4198751.727 4  -3271752.867 5  21564891.528    21564892.794
      4404.922        3432.407
 -22063224.73147 -17192120.41647  18141281.2554   18141279.1924
      1424.5784       1110.0614
    604096.67046    470723.87045  21107797.1534   21107797.3064
     -1962.4374      -1529.1724
 -28729516.75147 -22268511.76946  19486000.1614   19485999.1304
      2813.3444       2192.2164
  -8683151.19146  -6612977.01545  20831492.4354   20831491.3454
      4212.7194       3282.6384
 96  8 31 17 26 29.9930000  0  6G26G28G 6G10G17G23
  -7848867.11646  -5930958.02945  20884675.9114   20884674.6104
      3412.5474       2659.1274
  -4330837.660 4  -3374676.931 5  21539756.306    21539757.771
      4400.750        3429.156
 -22105701.82647 -17225219.44847  18133198.1924   18133196.0014
      1407.0474       1096.4004
    663104.65246    516704.09145  21119025.9824   21119025.8174
     -1971.6414      -1536.3434
 -28813777.58747 -22334169.55246  19469965.7084   19469964.7354
      2804.0784       2184.9964
  -8809356.31346  -6711318.62245  20807476.3104   20807475.3374
      4200.7664       3273.3244
 96  8 31 17 26 59.9930000  0  6G26G28G 6G10G17G23
  -7951041.76746  -6010574.59245  20865232.5754   20865231.6264
      3399.1564       2648.6934
  -4462793.340 4  -3477499.504 5  21514646.040    21514647.435
      4396.344        3425.722
 -22147647.88647 -17257904.69447  18125216.0524   18125213.8604
      1389.5474       1082.7644
    722397.83246    562906.54345  21130309.2474   21130309.1774
     -1981.3124      -1543.8804
 -28897759.81647 -22399610.23546  19453984.2084   19453983.1074
      2794.9224       2177.8614
  -8935197.25846  -6809376.46245  20783529.2944   20783528.2514
      4188.9064       3264.0834
 96  8 31 17 27 29.9930000  0  6G26G28G 6G10G17G23
  -8052818.74846  -6089881.28845  20845864.9354   20845863.9274
      3386.2974       2638.6734
  -4594620.566 4  -3580221.999 5  21489560.181    21489561.747
      4392.469        3422.703
 -22189079.25448 -17290188.87547  18117332.1384   18117329.7594
      1372.9534       1069.8344
    781982.11746    609335.83945  21141647.7474   21141647.7824
     -1990.6564      -1551.1614
 -28981481.04747 -22464847.54546  19438052.7164   19438051.5214
      2786.8444       2171.5674
  -9060697.00546  -6907168.44945  20759647.5994   20759646.8964
      4178.0944       3255.6574
 96  8 31 17 27 59.9930000  0  6G26G28G 6G10G17G23
  -8154224.43046  -6168898.66945  20826568.4894   20826566.6264
      3374.0004       2629.0914
  -4726339.754 4  -3682860.293 5  21464494.942    21464496.239
      4388.531        3419.635
 -22230019.75347 -17322090.55847  18109541.2004   18109538.9394
      1356.0314       1056.6484
    841832.37046    655972.35845  21153037.4274   21153037.3454
     -1999.5624      -1558.1014
 -29064970.41947 -22529904.18246  19422165.2784   19422164.0954
      2778.7504       2165.2604
  -9185892.04946  -7004722.98745  20735823.8644   20735823.0564
      4168.1414       3247.9024
 96  8 31 17 28 29.9930000  0  6G26G28G 6G10G17G23
  -8255263.09146  -6247630.05345  20807341.1224   20807339.9504
      3361.5944       2619.4244
  -4857936.413 4  -3785403.113 5  21439452.739    21439454.310
      4384.281        3416.323
 -22270446.97148 -17353592.28647  18101848.3104   18101845.9544
      1338.9534       1043.3404
    901955.90846    702821.84345  21164477.7864   21164477.1424
     -2008.8754      -1565.3574
 -29148208.69747 -22594765.16546  19406325.2634   19406324.2084
      2770.1724       2158.5754
  -9310792.13146  -7102047.67745  20712055.8104   20712055.4234
      4158.2814       3240.2194
 96  8 31 17 28 59.9930000  0  6G26G28G 6G10G17G23
  -8355923.27046  -6326066.49945  20788186.0914   20788184.8844
      3349.0944       2609.6834
  -4989403.375 4  -3887844.870 5  21414435.220    21414436.817
      4380.188        3413.133
 -22310370.08848 -17384701.20647  18094251.1534   18094248.9394
      1322.5634       1030.5684
    962349.86646    749882.04645  21175971.2554   21175970.9974
     -2017.3754      -1571.9814
 -29231181.69347 -22659419.43246  19390536.3024   19390535.2354
      2761.3594       2151.7094
  -9435395.29646  -7199141.01345  20688344.9274   20688343.9664
      4148.6254       3232.6954
 96  8 31 17 29 29.9930000  0  6G26G28G 6G10G17G23
  -8456209.52546  -6404211.61645  20769102.2634   20769101.7714
      3336.5314       2599.8944
  -5120750.213 4  -3990193.032 5  21389440.864    21389442.200
      4376.172        3410.004
 -22349793.86948 -17415421.03847  18086749.1074   18086746.7634
      1305.5784       1017.3344
   1022991.08746    797134.91445  21187510.1144   21187510.0214
     -2025.3284      -1578.1784
 -29313888.07747 -22723865.95446  19374797.6304   19374796.5644
      2752.2814       2144.6354
  -9559706.91046  -7296007.17645  20664688.9744   20664688.0954
      4138.6254       3224.9034
 96  8 31 17 29 59.9930000  0  6G26G28G 6G10G17G23
  -8556107.29446  -6482053.99445  20750092.4034   20750090.3994
      3323.1564       2589.4724
  -5251968.801 4  -4092441.257 5  21364470.978    21364472.122
      4371.672        3406.498
 -22388703.18548 -17445739.98847  18079344.9424   18079342.5994
      1288.2664       1003.8434
   1083875.40546    844577.19945  21199096.3174   21199095.6854
     -2033.7504      -1584.7404
 -29396314.81147 -22788094.56946  19359112.5134   19359111.2714
      2742.9064       2137.3304
  -9683710.65846  -7392633.42845  20641091.9824   20641090.4704
      4128.0784       3216.6844
 96  8 31 17 30 29.9920000  0  6G26G28G 6G10G17G23
  -8655582.58946  -6559567.16545  20731162.5394   20731161.5314
      3308.6884       2578.1984
  -5383043.674 4  -4194577.488 5  21339528.227    21339529.578
      4367.016        3402.869
 -22427089.59648 -17475651.47447  18072040.4064   18072038.1334
      1271.0784        990.4504
   1145017.74046    892220.53945  21210731.5164   21210731.3994
     -2042.5004      -1591.5584
 -29478459.42247 -22852103.34246  19343480.8754   19343479.7974
      2733.7814       2130.2194
  -9807373.18846  -7488993.80745  20617559.4614   20617558.4184
      4116.3594       3207.5534
 96  8 31 17 30 59.9920000  0  6G26G28G 6G10G17G23
  -8754630.97546  -6636747.69045  20712314.6644   20712313.4574
      3294.3914       2567.0584
  -5513989.891 5  -4296613.480 5  21314609.731    21314611.274
      4362.594        3399.424
 -22464965.52648 -17505165.18647  18064832.6644   18064830.3094
      1253.7814        976.9724
   1206416.99546    940064.09945  21222415.4064   21222414.7854
     -2050.9064      -1598.1094
 -29560343.85447 -22915909.38246  19327898.6644   19327897.3634
      2725.1564       2123.4984
  -9930690.51546  -7585085.19145  20594093.2584   20594091.8054
      4104.6724       3198.4464
 96  8 31 17 31 29.9920000  0  6G26G28G 6G10G17G23
  -8853241.64746  -6713587.13545  20693549.3054   20693548.2624
      3279.7974       2555.6864
  -5644794.637 5  -4398539.217 5  21289718.633    21289719.938
      4357.828        3395.710
 -22502310.76648 -17534265.36847  18057726.2424   18057724.0394
      1236.1564        963.2394
   1268075.56846    988109.70545  21234148.8524   21234147.9734
     -2059.5314      -1604.8304
 -29641967.62247 -22979512.30646  19312366.3134   19312365.1174
      2716.4844       2116.7414
 -10053653.26946  -7680900.28045  20570694.1644   20570693.3444
      4092.9534       3189.3144
 96  8 31 17 31 59.9920000  0  6G26G28G 6G10G17G23
  -8951418.52746  -6790088.55945  20674867.3754   20674865.9924
      3265.1884       2544.3024
  -5775458.428 5  -4500355.131 5  21264854.086    21264855.500
      4352.906        3391.875
 -22539142.28148 -17562965.24647  18050717.1724   18050715.0274
      1219.0784        949.9314
   1329988.32246   1036353.38145  21245930.0164   21245929.1134
     -2068.1414      -1611.5384
 -29723332.47847 -23042913.47846  19296882.9144   19296881.7314
      2707.6884       2109.8864
 -10176269.55546  -7776445.40745  20547360.6884   20547360.5004
      4081.2504       3180.1954
 96  8 31 17 32 29.9920000  0  6G26G28G 6G10G17G23
  -9049171.21346  -6866259.43545  20656264.8204   20656263.6254
      3251.4534       2533.6004
  -5905987.322 5  -4602065.924 5  21240015.078    21240016.539
      4348.656        3388.563
 -22575470.86948 -17591273.23747  18043804.0314   18043801.7814
      1202.5164        937.0254
   1392145.71146   1084787.68945  21257758.5864   21257758.4104
     -2076.0164      -1617.6754
 -29804440.33747 -23106114.39546  19281448.7974   19281447.6724
      2699.0004       2103.1174
 -10298546.71746  -7871726.27145  20524092.5704   20524092.0904
      4070.3594       3171.7094
 96  8 31 17 32 59.9920000  0  6G26G28G 6G10G17G23
  -9146507.69946  -6942106.00345  20637742.7894   20637741.1724
      3237.7664       2522.9344
  -6036375.631 5  -4703667.186 5  21215203.000    21215204.399
      4344.016        3384.947
 -22611293.42648 -17619186.92347  18036987.3994   18036985.0664
      1185.7504        923.9614
   1454550.38346   1133414.67945  21269633.6724   21269632.8754
     -2084.0474      -1623.9334
 -29885268.17647 -23169097.12146  19266067.5004   19266066.2584
      2689.6254       2095.8124
 -10420497.15946  -7966752.56645  20500885.9534   20500885.0164
      4059.8444       3163.5154
 96  8 31 17 33 29.9920000  0  6G26G28G 6G10G17G23
  -9243426.69146  -7017627.24845  20619299.6954   20619298.2074
      3223.4224       2511.7574
  -6166622.295 5  -4805158.051 5  21190417.965    21190419.281
      4339.156        3381.161
 -22646609.26448 -17646705.75947  18030267.1414   18030265.0204
      1168.7194        910.6904
   1517198.25446   1182231.16445  21281555.2814   21281555.3164
     -2092.4064      -1630.4464
 -29965815.92847 -23231861.59546  19250739.9924   19250738.8674
      2680.1414       2088.4214
 -10542132.89346  -8061533.61645  20477739.3914   20477738.3594
      4049.2034       3155.2234
 96  8 31 17 33 59.9920000  0  6G26G28G 6G10G17G23
  -9339916.62846  -7092814.17745  20600937.7344   20600936.3754
      3208.8594       2500.4104
  -6296731.890 5  -4906542.123 5  21165659.051    21165660.211
      4334.531        3377.557
 -22681416.75948 -17673828.48247  18023643.4144   18023641.1294
      1151.3754        897.1754
   1580083.99346   1231233.02345  21293521.9534   21293520.9224
     -2100.2814      -1636.5834
 -30046088.59947 -23294411.71746  19235464.6024   19235463.4414
      2671.2194       2081.4694
 -10663448.29446  -8156065.06146  20454653.6644   20454652.5274
      4038.2194       3146.6644
 96  8 31 17 34 29.9920000  0  6G26G28G 6G10G17G23
  -9435963.20446  -7167655.62645  20582660.7664   20582659.7344
      3194.2814       2489.0504
  -6426698.077 5  -5007814.451 5  21140927.188    21140928.391
      4329.859        3373.916
 -22715690.02948 -17700534.92547  18017121.4924   18017119.3954
      1133.4534        883.2104
   1643211.71446   1280423.42945  21305534.7424   21305534.5434
     -2108.1414      -1642.7074
 -30126089.70347 -23356750.22946  19220241.0944   19220239.9454
      2662.1414       2074.3954
 -10784431.30646  -8250337.51245  20431631.3674   20431630.5124
      4027.2664       3138.1294
 96  8 31 17 34 59.9920000  0  6G26G28G 6G10G17G23
  -9531570.44146  -7242154.75045  20564467.6174   20564466.3634
      3179.2504       2477.3384
  -6556523.969 5  -5108977.466 5  21116222.090    21116223.305
      4324.969        3370.106
 -22749428.78148 -17726824.86847  18010701.1564   18010698.9064
      1115.5634        869.2694
   1706567.48446   1329791.52345  21317590.9774   21317590.5554
     -2115.5314      -1648.4664
 -30205824.98247 -23418881.60246  19205067.8754   19205066.7384
      2653.4064       2067.5894
 -10905078.22146  -8344348.06645  20408673.2974   20408672.5244
      4015.6414       3129.0714
 96  8 31 17 35 29.9920000  0  6G26G28G 6G10G17G23
  -9626730.11246  -7316305.11045  20546359.2974   20546358.0784
      3164.8594       2466.1244
  -6686207.661 5  -5210029.647 5  21091544.074    21091545.469
      4320.719        3366.794
 -22782635.67748 -17752700.37947  18004381.9304   18004379.6684
      1098.3914        855.8894
   1770131.82846   1379322.17045  21329686.6254   21329686.5554
     -2121.9064      -1653.4334
 -30285301.76647 -23480811.55346  19189943.7584   19189942.5744
      2645.0634       2061.0884
 -11025375.98846  -8438086.54646  20385781.5164   20385780.5314
      4004.2504       3120.1954
 96  8 31 17 35 59.9920000  0  6G26G28G 6G10G17G23
  -9721467.48646  -7390126.39545  20528331.1564   20528329.4104
      3151.0004       2455.3254
  -6815762.121 5  -5310981.157 5  21066890.438    21066892.047
      4316.188        3363.263
 -22815333.68648 -17778179.34547  17998159.7274   17998157.6294
      1081.5004        842.7274
   1833877.09945   1428993.77745  21341817.0394   21341816.3714
     -2127.8594      -1658.0724
 -30364525.87147 -23542544.60947  19174867.9454   19174866.7854
      2636.5164       2054.4284
 -11145325.64146  -8531553.77746  20362955.6494   20362954.7934
      3992.5004       3111.0394
 96  8 31 17 36 29.9920000  0  6G26G28G 6G10G17G23
  -9815796.65746  -7463629.60345  20510381.1884   20510379.5124
      3137.4064       2444.7324
  -6945179.119 5  -5411825.544 5  21042263.254    21042264.633
      4311.500        3359.610
 -22847536.08648 -17803272.13147  17992032.0314   17992029.8404
      1065.3284        830.1264
   1897797.28445   1478801.67945  21353981.3204   21353981.2154
     -2133.5474      -1662.5044
 -30443487.36447 -23604073.03846  19159842.2114   19159841.0864
      2627.4534       2047.3664
 -11264928.79246  -8624751.00646  20340195.8994   20340195.3954
      3980.8594       3101.9684
 96  8 31 17 36 59.9920000  0  6G26G28G 6G10G17G23
  -9909709.79646  -7536808.62745  20492510.0164   20492508.4344
      3123.5784       2433.9574
  -7074454.282 5  -5512559.410 5  21017663.051    21017664.445
      4307.000        3356.104
 -22879258.57248 -17827990.94947  17985995.4774   17985993.0394
      1049.6724        817.9264
   1961886.42045   1528741.22445  21366176.2894   21366176.6174
     -2138.7974      -1666.5954
 -30522184.39247 -23665395.38447  19144866.5554   19144865.3014
      2619.1564       2040.9014
 -11384177.63046  -8717672.15046  20317503.3914   20317502.4304
      3969.4064       3093.0444
 96  8 31 17 37 29.9920000  0  6G26G28G 6G10G17G23
 -10003205.07846  -7609662.04645  20474718.5004   20474716.9184
      3109.3914       2422.9024
  -7203593.886 5  -5613187.646 5  20993088.438    20993089.828
      4302.219        3352.378
 -22910506.58448 -17852340.05647  17980049.0864   17980046.7774
      1033.4064        805.2524
   2026136.26145   1578806.02745  21378402.7584   21378401.8324
     -2144.7344      -1671.2224
 -30600624.98347 -23726517.91547  19129939.8284   19129938.6454
      2610.1724       2033.9004
 -11503095.81546  -8810335.63346  20294874.0004   20294872.8994
      3958.3284       3084.4124
 96  8 31 17 37 59.9920000  0  6G26G28G 6G10G17G23
 -10096278.74746  -7682186.94545  20457007.0704   20457005.8524
      3095.2194       2411.8594
  -7332592.302 5  -5713705.859 5  20968540.895    20968542.258
      4297.438        3348.653
 -22941268.65748 -17876310.50647  17974195.2664   17974192.9344
      1017.0634        792.5164
   2090564.77845   1629010.01845  21390662.8834   21390662.7544
     -2150.8594      -1675.9944
 -30678812.12847 -23787442.95047  19115061.3524   19115060.1454
      2602.1884       2027.6794
 -11621685.90046  -8902743.46846  20272306.9534   20272305.9344
      3947.5314       3075.9984
 96  8 31 17 38 29.9920000  0  6G26G28G 6G10G17G23
 -10188920.64846  -7754375.39745  20439377.8444   20439376.6724
      3080.6884       2400.5364
  -7461446.238 5  -5814111.500 5  20944020.879    20944022.352
      4292.750        3345.000
 -22971531.06048 -17899891.60347  17968436.3204   17968434.1414
      1000.2344        779.4034
   2155182.07245   1679361.13245  21402959.5704   21402960.1454
     -2157.1724      -1680.9134
 -30756765.73447 -23848186.01447  19100227.4144   19100226.2194
      2594.6724       2021.8224
 -11739956.76346  -8994902.55846  20249800.6804   20249799.9414
      3937.0474       3067.8294
 96  8 31 17 38 59.9920000  0  6G26G28G 6G10G17G23
 -10281121.84746  -7826220.45045  20421832.7974   20421831.0044
      3065.8444       2388.9694
  -7590157.696 5  -5914406.124 5  20919527.813    20919529.328
      4287.703        3341.067
 -23001277.67848 -17923070.79047  17962775.8754   17962773.5784
       982.5474        765.6214
   2219998.59245   1729867.48045  21415293.3524   21415292.9534
     -2164.2034      -1686.3924
 -30834495.52247 -23908754.66947  19085435.9774   19085434.6644
      2586.9384       2015.7954
 -11857915.71646  -9086818.59446  20227353.9534   20227352.7344
      3926.6254       3059.7084
 96  8 31 17 39 29.9920000  0  6G26G28G 6G10G17G23
 -10372877.92546  -7897718.64545  20404372.0164   20404370.1764
      3051.4534       2377.7564
  -7718712.150 5  -6014578.391 5  20895064.629    20895066.133
      4282.672        3337.147
 -23030489.14148 -17945832.97147  17957217.2504   17957214.9654
       964.9534        751.9124
   2285032.20045   1780542.97944  21427669.2114   21427668.4734
     -2171.4224      -1692.0174
 -30911984.82247 -23969135.93247  19070690.1254   19070688.9414
      2579.2344       2009.7934
 -11975555.90746  -9178486.25046  20204968.0394   20204967.1844
      3915.8914       3051.3434
 96  8 31 17 39 59.9920000  0  6G26G28G 6G10G17G23
 -10464210.41046  -7968886.77645  20386991.5784   20386990.3484
      3036.9384       2366.4454
  -7847116.505 5  -6114633.718 5  20870630.258    20870631.570
      4277.313        3332.971
 -23059173.88848 -17968184.72847  17951758.7744   17951756.5704
       947.1254        738.0194
   2350278.56045   1831384.23944  21440085.3994   21440086.3134
     -2178.6094      -1697.6184
 -30989257.90147 -24029348.70847  19055985.3524   19055984.3444
      2571.8594       2004.0464
 -12092863.28146  -9269894.55946  20182644.5004   20182643.1414
      3904.3444       3042.3464
 96  8 31 17 40 29.9920000  0  6G26G28G 6G10G17G23
 -10555102.43546  -8039711.69245  20369695.6564   20369694.3794
      3022.4384       2355.1464
  -7975362.689 5  -6214565.775 5  20846225.902    20846227.078
      4272.375        3329.123
 -23087323.60348 -17990119.57847  17946401.8364   17946399.5634
       929.6564        724.4074
   2415731.24145   1882386.31245  21452540.2664   21452539.9614
     -2184.9224      -1702.5374
 -31066296.72847 -24089378.95447  19041325.2744   19041324.1724
      2563.9694       1997.8984
 -12209827.73746  -9361035.65746  20160387.1494   20160386.0594
      3893.1884       3033.6534
 96  8 31 17 40 59.9920000  0  6G26G28G 6G10G17G23
 -10645550.01846  -8110190.30645  20352483.7584   20352482.3874
      3007.5634       2343.5554
  -8103450.583 5  -6314374.507 5  20821851.551    20821852.828
      4266.984        3324.923
 -23114952.17948 -18011648.34947  17941144.3364   17941142.2034
       912.4384        710.9904
   2481379.89745   1933541.05945  21465033.1414   21465032.8014
     -2191.2814      -1707.4924
 -31143086.32547 -24149214.99847  19026713.0394   19026711.8444
      2555.5944       1991.3724
 -12326444.71346  -9451906.00946  20138195.9774   20138194.9694
      3881.3444       3024.4244
 96  8 31 17 41 29.9920000  0  6G26G28G 6G10G17G23
 -10735547.57346  -8180318.22945  20335358.0784   20335356.3794
      2992.2814       2331.6484
  -8231378.460 5  -6414058.541 5  20797507.621    20797508.899
      4261.609        3320.735
 -23142069.07448 -18032778.39747  17935984.4614   17935982.3524
       895.3444        697.6704
   2547209.97945   1984837.20045  21477559.8524   21477559.9454
     -2197.3124      -1712.1924
 -31219630.39947 -24208859.72447  19012146.9844   19012145.8244
      2547.4064       1984.9924
 -12442703.74546  -9542497.44146  20116072.6804   20116071.5314
      3869.3754       3015.0974
 96  8 31 17 41 59.9920000  0  6G26G28G 6G10G17G23
 -10825078.91346  -8250082.86845  20318321.0164   20318319.3994
      2976.3594       2319.2414
  -8359144.080 5  -6513616.143 5  20773194.539    20773195.953
      4256.188        3316.510
 -23168676.15348 -18053511.19147  17930921.1024   17930918.9344
       878.6414        684.6554
   2613213.36045   2036268.35545  21490120.3524   21490120.1524
     -2202.7504      -1716.4294
 -31295925.02647 -24268310.07547  18997628.3834   18997627.3284
      2538.9064       1978.3694
 -12558613.75246  -9632816.90146  20094015.3594   20094014.0594
      3858.2034       3006.3924
 96  8 31 17 42 29.9920000  0  6G26G28G 6G10G17G23
 -10914129.32046  -8319472.76845  20301374.9224   20301373.3404
      2960.4384       2306.8344
  -8486748.520 5  -6613048.155 5  20748912.223    20748913.727
      4250.828        3312.334
 -23194787.38047 -18073857.60747  17925952.2344   17925950.1954
       862.2344        671.8714
   2679378.85945   2087825.86845  21502711.4384   21502710.8524
     -2208.2194      -1720.6904
 -31371963.45747 -24327560.79147  18983158.7974   18983157.4264
      2530.4224       1971.7574
 -12674197.19346  -9722881.89246  20072020.8914   20072019.8594
      3847.3284       2997.9184
 96  8 31 17 42 59.9920000  0  6G26G28G 6G10G17G23
 -11002705.81246  -8388493.38445  20284519.3054   20284517.7584
      2944.3594       2294.3064
  -8614189.873 5  -6712353.079 5  20724660.961    20724662.547
      4244.984        3307.780
 -23220409.74947 -18093823.09547  17921076.4144   17921074.3164
       845.4534        658.7954
   2745710.22545   2139512.60745  21515333.7274   21515333.2704
     -2214.0944      -1725.2684
 -31447750.25047 -24386615.42447  18968737.2344   18968736.0744
      2521.7194       1964.9764
 -12789448.31946  -9812687.94246  20050089.1094   20050088.3954
      3835.7664       2988.9084
 96  8 31 17 43 29.9920000  0  6G26G28G 6G10G17G23
 -11090796.59146  -8457135.51845  20267756.5864   20267754.9454
      2928.3134       2281.8024
  -8741451.670 5  -6811518.095 5  20700443.664    20700445.227
      4239.031        3303.141
 -23245517.47148 -18113387.55747  17916298.7894   17916296.4924
       828.2814        645.4144
   2812219.61145   2191338.07545  21527989.9454   21527990.1914
     -2219.9694      -1729.8464
 -31523267.12347 -24445459.72847  18954366.9064   18954365.7114
      2512.6094       1957.8774
 -12904345.28946  -9902218.01646  20028224.8754   20028223.9844
      3824.0004       2979.7404
 96  8 31 17 43 59.9920000  0  6G26G28G 6G10G17G23
 -11178409.83946  -8525405.54245  20251084.2274   20251082.3994
      2912.7814       2269.7004
  -8868530.473 5  -6910540.518 5  20676261.449    20676263.055
      4233.063        3298.490
 -23270102.30948 -18132544.58347  17911620.2744   17911618.0244
       810.7974        631.7904
   2878904.98245   2243300.63645  21540679.5084   21540679.8594
     -2225.6094      -1734.2414
 -31598510.70047 -24504091.07847  18940048.5004   18940047.4574
      2503.8284       1951.0354
 -13018884.17346  -9991469.06046  20006429.0784   20006427.9184
      3811.9534       2970.3534
 96  8 31 17 44 29.9920000  0  6G26G28G 6G10G17G23
 -11265568.07446  -8593321.02845  20234498.3284   20234496.8634
      2897.7344       2257.9754
  -8995434.596 5  -7009426.824 5  20652112.285    20652113.922
      4227.047        3293.803
 -23294157.61448 -18151288.98547  17907042.8994   17907040.7074
       792.6884        617.6794
   2945754.93445   2295391.47245  21553400.3134   21553400.9104
     -2231.1724      -1738.5754
 -31673492.55447 -24562518.48547  18925780.0634   18925778.8324
      2494.7034       1943.9254
 -13133048.42146 -10080428.19146  19984704.3364   19984703.3754
      3798.7034       2960.0284
 96  8 31 17 44 59.9920000  0  6G26G28G 6G10G17G23
 -11352289.11546  -8660895.84145  20217995.9224   20217994.3874
      2883.4534       2246.8474
  -9122164.152 5  -7108177.093 5  20627996.547    20627998.047
      4221.375        3289.383
 -23317672.37147 -18169612.18547  17902568.1334   17902565.9184
       774.7194        603.6774
   3012756.77945   2347600.66145  21566150.7194   21566151.4694
     -2235.8444      -1742.2164
 -31748201.05647 -24620732.89347  18911563.5394   18911562.3324
      2485.7504       1936.9484
 -13246816.73546 -10169078.79846  19963054.9924   19963054.0554
      3785.7034       2949.8994
 96  8 31 17 45 29.9920000  0  7G26G28G 6G10G17G23G22
 -11438563.63246  -8728122.71245  20201578.8364   20201577.2314
      2868.3444       2235.0734
  -9248709.452 5  -7206783.804 5  20603915.563    20603917.047
      4215.125        3284.513
 -23340629.46147 -18187500.83347  17898199.3054   17898197.1724
       755.9384        589.0424
   3079914.38245   2399931.21845  21578930.5004   21578931.4264
     -2241.1564      -1746.3564
 -31822630.35247 -24678729.73747  18897399.8674   18897398.8014
      2476.3754       1929.6434
 -13360188.68246 -10257420.54946  19941480.7504   19941479.7074
      3772.6724       2939.7444
    -46961.63155                  21443971.4144
      2757.7504
 96  8 31 17 45 59.9920000  0  7G26G28G 6G10G17G23G22
 -11524390.12046  -8795000.46945  20185246.0004   20185244.7344
      2853.3444       2223.3854
  -9375077.642 5  -7305252.495 5  20579868.422    20579870.219
      4209.406        3280.057
 -23363032.61847 -18204957.84547  17893936.4924   17893934.3834
       737.6564        574.7974
   3147220.14245   2452377.22545  21591738.6174   21591738.8994
     -2245.9224      -1750.0694
 -31896794.02747 -24736519.60847  18883286.8524   18883285.7854
      2467.8754       1923.0194
 -13473186.29546 -10345470.61646  19919978.0314   19919977.3524
      3760.3754       2930.1624
   -129451.93545                  21728065.1024
      2741.5314
 96  8 31 17 46 29.9920000  0  7G26G28G 6G10G17G23G22
 -11609756.76246  -8861519.90145  20169001.3054   20168999.8994
      2837.7974       2211.2704
  -9501268.800 5  -7403583.242 5  20555855.164    20555856.789
      4203.422        3275.394
 -23384891.14747 -18221990.47647  17889776.8284   17889774.6724
       719.8134        560.8934
   3214672.32445   2504937.36044  21604574.6494   21604574.6604
     -2250.7974      -1753.8684
 -31970694.86247 -24794104.66647  18869224.1804   18869223.1024
      2459.0164       1916.1164
 -13585806.94646 -10433226.93246  19898546.8134   19898545.8874
      3748.0164       2920.5324
   -211448.78145     -2121.59553  21712462.1024   21712461.2934
      2724.9694       2123.3524
 96  8 31 17 46 59.9920000  0  7G26G28G 6G10G17G23G22
 -11694652.84146  -8927672.65746  20152846.0244   20152844.4304
      2821.7034       2198.7304
  -9627286.574 5  -7501778.891 5  20531874.891    20531876.320
      4197.750        3270.974
 -23406227.27047 -18238616.03247  17885716.6644   17885714.4964
       702.5164        547.4154
   3282265.22545   2557607.10344  21617436.8674   21617437.9924
     -2255.5474      -1757.5694
 -32044347.62147 -24851496.42247  18855208.4384   18855207.4304
      2451.3914       1910.1754
 -13698084.69046 -10520716.06246  19877181.3594   19877180.3404
      3737.2664       2912.1554
   -292952.81944    -65631.23943  21696950.5084   21696950.1804
      2708.6884       2110.6664
 96  8 31 17 47 29.9920000  0  7G26G28G 6G10G17G23G22
 -11779044.45946  -8993432.33545  20136786.9384   20136785.5434
      2804.1254       2185.0324
  -9753131.348 5  -7599839.738 5  20507927.211    20507928.852
      4191.641        3266.213
 -23427041.29247 -18254834.75247  17881755.9224   17881753.8134
       684.8134        533.6204
   3350009.98645   2610395.15843  21630328.4694   21630328.6094
     -2260.8444      -1761.6964
 -32117780.10647 -24908716.52947  18841235.0474   18841233.8634
      2443.8914       1904.3304
 -13810041.69546 -10607955.24946  19855876.7424   19855875.6414
      3726.2034       2903.5354
   -373970.30445   -128761.75842  21681534.9224   21681535.0984
      2692.1724       2097.7964
 96  8 31 17 47 59.9920000  0  7G26G28G 6G10G17G23G22
 -11862919.79046  -9058789.71446  20120825.9614   20120824.2744
      2787.1884       2171.8344
  -9878804.198 5  -7697766.616 5  20484012.645    20484014.117
      4186.063        3261.867
 -23447342.07447 -18270653.55747  17877892.9064   17877890.7854
       668.1724        520.6534
   3417895.71245   2663293.11344  21643246.8054   21643247.2154
     -2265.3444      -1765.2034
 -32191006.49047 -24965776.04747  18827300.2194   18827298.9884
      2437.4694       1899.3264
 -13921667.42046 -10694936.31346  19834635.1644   19834634.0274
      3715.0164       2894.8174
   -454495.44944   -191508.61543  21666210.5864   21666210.6214
      2675.6094       2084.8904
 96  8 31 17 48 29.9920000  0  7G26G28G 6G10G17G23G22
 -11946287.72746  -9123751.70445  20104961.6804   20104959.7704
      2770.3284       2158.6974
 -10004303.592 5  -7795558.332 5  20460130.731    20460132.297
      4180.359        3257.423
 -23467140.39347 -18286080.82047  17874125.2894   17874123.0514
       651.4694        507.6384
   3485918.21145   2716297.61543  21656190.2974   21656190.8594
     -2269.7194      -1768.6124
 -32264032.90047 -25022679.73147  18813403.7664   18813402.6174
      2430.8284       1894.1524
 -14032956.95146 -10781655.38946  19813457.0864   19813456.0314
      3704.2034       2886.3924
   -534515.70745   -253862.01243  21650984.9534   21650983.8404
      2659.0474       2071.9854
 96  8 31 17 48 59.9920000  0  7G26G28G 6G10G17G23G22
 -12029135.83446  -9188308.66145  20089195.8914   20089194.2034
      2752.9224       2145.1344
 -10129623.736 5  -7893210.366 5  20436283.078    20436284.625
      4174.297        3252.699
 -23486424.11947 -18301107.10347  17870455.8054   17870453.6844
       634.1094        494.1114
   3554084.80545   2769414.41443  21669161.8284   21669161.8054
     -2274.6874      -1772.4844
 -32336856.02747 -25079425.01347  18799545.9774   18799544.7464
      2424.0474       1888.8684
 -14143912.90646 -10868114.55646  19792342.6884   19792341.5634
      3692.7034       2877.4314
   -614037.34944   -315826.96043  21635849.8444   21635849.4224
      2642.4224       2059.0304
 96  8 31 17 49 29.9920000  0  7G26G28G 6G10G17G23G22
 -12111474.68846  -9252468.79446  20073527.4774   20073526.0354
      2736.6254       2132.4354
 -10254762.058 5  -7990720.729 5  20412470.043    20412471.617
      4168.250        3247.987
 -23505199.07247 -18315736.94547  17866883.0394   17866880.9654
       617.6254        481.2664
   3622394.91645   2822643.01943  21682162.0944   21682161.6604
     -2279.2344      -1776.0274
 -32409472.47347 -25136009.24447  18785727.5474   18785726.3634
      2416.8914       1883.2914
 -14254516.14046 -10954298.86846  19771295.6724   19771294.4654
      3680.7504       2868.1174
   -693060.56945   -377403.49743  21620814.2584   21620813.4614
      2625.6724       2045.9784
 96  8 31 17 49 59.9920000  0  7G26G28G 6G10G17G23G22
 -12193342.86946  -9316262.16945  20057948.5394   20057946.9574
      2721.3444       2120.5284
 -10379719.512 5  -8088090.151 5  20388691.484    20388692.969
      4162.297        3243.348
 -23523483.56047 -18329984.60247  17863403.4224   17863401.4534
       601.4534        468.6654
   3690839.90845   2875976.73643  21695186.3754   21695186.7154
     -2283.7034      -1779.5094
 -32481862.99547 -25192417.43747  18771952.3754   18771951.1564
      2409.1254       1877.2404
 -14364758.25846 -11040201.79446  19750317.4304   19750316.2934
      3668.9534       2858.9254
   -771580.01345   -438587.44243  21605871.6954   21605871.0394
      2609.2194       2033.1574
 96  8 31 17 50 29.9920000  0  7G26G28G 6G10G17G23G22
 -12274752.52346  -9379698.24246  20042456.7194   20042455.1024
      2705.8754       2108.4744
 -10504498.484 5  -8185320.504 5  20364946.676    20364948.242
      4156.344        3238.709
 -23541283.18147 -18343854.44647  17860016.3364   17860014.2744
       585.1884        455.9904
   3759411.31445   2929408.99043  21708235.3444   21708236.0824
     -2287.6254      -1782.5654
 -32554009.67947 -25248635.62247  18758222.7584   18758221.5044
      2400.6414       1870.6294
 -14474658.73346 -11125838.50546  19729403.9614   19729402.7664
      3657.7504       2850.1954
   -849615.77145   -499394.50043  21591023.0474   21591022.1334
      2593.1884       2020.6664
 96  8 31 17 50 59.9920000  0  7G26G28G 6G10G17G23G22
 -12355705.12946  -9442778.17246  20027051.5474   20027049.7314
      2691.0784       2096.9444
 -10629100.323 5  -8282412.818 5  20341235.766    20341237.313
      4150.344        3234.034
 -23558600.73647 -18357348.64447  17856720.9224   17856718.8134
       569.3134        443.6204
   3828094.48245   2982928.29843  21721304.9224   21721306.4574
     -2291.2974      -1785.4264
 -32625903.39847 -25304656.69547  18744542.2274   18744541.0664
      2392.0784       1863.9574
 -14584220.86346 -11211211.56846  19708555.0474   19708554.3094
      3646.3914       2841.3434
   -927167.43645   -559824.38643  21576264.4844   21576264.3204
      2576.7194       2007.8334
 96  8 31 17 51 29.9920000  0  7G26G28G 6G10G17G23G22
 -12436215.48446  -9505513.49246  20011730.9924   20011729.5864
      2676.1564       2085.3174
 -10753515.071 5  -8379359.358 5  20317560.348    20317562.086
      4143.844        3228.969
 -23575436.54547 -18370467.46047  17853517.0314   17853515.0634
       552.7194        430.6904
   3896888.79245   3036534.19043  21734396.2744   21734395.6414
     -2294.9694      -1788.2874
 -32697528.77847 -25360468.67447  18730912.2894   18730911.0354
      2382.7194       1856.6644
 -14693436.28146 -11296314.47446  19687771.8754   19687770.4814
      3634.4534       2832.0414
  -1004211.45245   -619858.65043  21561604.9614   21561604.1294
      2559.3284       1994.2824
 96  8 31 17 51 59.9920000  0  7G26G28G 6G10G17G23G22
 -12516269.37646  -9567893.12346  19996497.5164   19996496.1804
      2660.5634       2073.1664
 -10877737.697 5  -8476156.198 5  20293921.664    20293923.297
      4137.641        3224.136
 -23591760.04247 -18383187.07147  17850411.0634   17850408.9064
       535.3754        417.1754
   3965779.03145   3090214.85244  21747505.8364   21747506.0474
     -2297.7344      -1790.4424
 -32768874.20047 -25416062.49947  18717335.6334   18717334.3914
      2373.7664       1849.6884
 -14802291.48546 -11381136.69246  19667057.5784   19667056.5474
      3622.5634       2822.7764
  -1080736.34545   -679488.40644  21547042.2974   21547040.7274
      2542.3754       1981.0714
 96  8 31 17 52 29.9920000  0  7G26G28G 6G10G17G23G22
 -12595851.99646  -9629905.53146  19981353.4454   19981352.3564
      2644.9064       2060.9664
 -11001779.965 5  -8572812.491 5  20270317.211    20270318.680
      4131.781        3219.570
 -23607561.81047 -18395500.14547  17847403.6024   17847401.5514
       518.0784        403.6974
   4034746.31745   3143955.57144  21760630.1804   21760631.2584
     -2300.2974      -1792.4394
 -32839964.29547 -25471457.36547  18703807.5164   18703806.4264
      2365.5784       1843.3084
 -14910789.50646 -11465680.58246  19646410.9614   19646409.5554
      3610.4064       2813.3044
  -1156752.65145   -738721.89644  21532574.4614   21532573.2544
      2525.2034       1967.6914
 96  8 31 17 52 59.9920000  0  7G26G28G 6G10G17G23G22
 -12674959.65246  -9691547.83346  19966299.9844   19966298.3324
      2628.9384       2048.5234
 -11125637.726 5  -8669325.009 5  20246747.816    20246749.313
      4125.453        3214.639
 -23622836.09547 -18407402.19447  17844497.3054   17844495.2544
       500.2344        389.7934
   4103811.76045   3197772.74644  21773772.5474   21773772.1844
     -2304.0624      -1795.3734
 -32910811.35447 -25526662.85747  18690326.2974   18690325.0314
      2357.6884       1837.1594
 -15018902.32046 -11549924.30646  19625837.8054   19625836.7504
      3597.1724       2802.9914
  -1232242.41745   -797545.06444  21518211.5164   21518210.4144
      2507.5314       1953.9204
 96  8 31 17 53 29.9920000  0  7G26G28G 6G10G17G23G22
 -12753568.02546  -9752801.07846  19951340.9844   19951339.9774
      2611.3914       2034.8504
 -11249299.005 5  -8765684.430 5  20223215.774    20223217.320
      4118.594        3209.294
 -23637557.53347 -18418873.45347  17841695.9144   17841693.8404
       481.0474        374.8424
   4172998.42445   3251684.38844  21786938.5004   21786938.3364
     -2308.3594      -1798.7224
 -32981425.21547 -25581686.63847  18676888.5634   18676887.2744
      2349.9694       1831.1444
 -15126606.51446 -11633849.63046  19605342.2424   19605341.2814
      3583.0314       2791.9724
  -1307199.50145   -855953.18944  21503946.7344   21503945.9264
      2489.5634       1939.9194
 96  8 31 17 53 59.9910000  0  7G26G28G 6G10G17G23G22
 -12831651.06346  -9813644.99846  19936482.4254   19936481.0304
      2594.1414       2021.4084
 -11372761.441 5  -8861888.910 5  20199721.648    20199723.316
      4112.313        3204.399
 -23651714.62747 -18429904.96447  17839002.0344   17839000.0544
       462.7504        360.5844
   4242302.19145   3305687.28744  21800126.4804   21800126.9724
     -2312.4844      -1801.9364
 -33051825.60847 -25636544.07847  18663491.7304   18663490.3474
      2343.5004       1826.1044
 -15233899.75046 -11717454.73046  19584925.0344   19584924.0034
      3569.9844       2781.8064
  -1381631.91845   -913952.44044  21489783.9874   21489783.4954
      2472.6414       1926.7334
 96  8 31 17 54 29.9910000  0  6G26G28G 6G17G23G22
 -12909219.84646  -9874088.18046  19921721.6914   19921720.3554
      2577.0634       2008.1014
 -11496032.564 5  -8957944.308 5  20176263.831    20176265.722
      4105.609        3199.176
 -23665330.95447 -18440515.09847  17836410.9254   17836408.8044
       444.9534        346.7174
 -33122037.77547 -25691254.85547  18650130.7534   18650129.5584
      2337.1884       1821.1854
 -15340806.86046 -11800758.94146  19564581.3004   19564579.9874
      3557.2034       2771.8474
  -1455555.28345   -971555.07444  21475715.5344   21475715.2064
      2455.4844       1913.3644
 96  8 31 17 54 59.9910000  0  6G26G28G 6G17G23G22
 -12986280.42746  -9934135.35746  19907057.2374   19907055.6914
      2560.0634       1994.8544
 -11619103.887 5  -9053844.022 5  20152844.284    20152845.925
      4099.000        3194.026
 -23678415.08747 -18450710.53947  17833921.1914   17833919.1634
       427.1254        332.8254
 -33192063.98147 -25745820.72547  18636805.3704   18636804.0114
      2331.1884       1816.5104
 -15447346.30746 -11883776.67946  19544307.7144   19544306.3554
      3545.4844       2762.7154
  -1528977.92045  -1028767.49944  21461743.6124   21461742.7804
      2439.3134       1900.7634
 96  8 31 17 55 29.9910000  0  6G26G28G 6G17G23G22
 -13062820.87046  -9993777.24146  19892492.2304   19892490.6714
      2542.6724       1981.3034
 -11741970.991 5  -9149584.601 5  20129463.444    20129465.011
      4092.063        3188.620
 -23690960.03847 -18460485.83947  17831534.0034   17831531.9764
       409.2664        318.9084
 -33261899.97847 -25800238.37647  18623516.0034   18623514.8434
      2324.4224       1811.2384
 -15553537.52246 -11966523.05346  19524100.0504   19524099.0774
      3533.9384       2753.7184
  -1601914.05245  -1085600.83545  21447864.5814   21447864.4524
      2422.9694       1888.0284
 96  8 31 17 55 59.9910000  0  6G26G28G 6G17G23G22
 -13138844.89646 -10053016.70946  19878025.0974   19878023.4914
      2525.8444       1968.1904
 -11864623.726 5  -9245158.147 5  20106123.425    20106124.964
      4084.969        3183.093
 -23702979.61347 -18469851.74947  17829246.4874   17829244.3194
       392.3444        305.7224
 -33331517.13747 -25854485.51047  18610268.2844   18610266.8784
      2316.8754       1805.3574
 -15659385.06346 -12049001.63446  19503958.0814   19503957.0734
      3522.7974       2745.0374
  -1674354.17045  -1142047.67644  21434080.4874   21434080.6634
      2406.5004       1875.1954
 96  8 31 17 56 29.9910000  0  6G26G28G 6G17G23G22
 -13214361.73546 -10111860.97446  19863654.6444   19863653.5194
      2508.4064       1954.6024
 -11987058.921 5  -9340562.173 5  20082824.667    20082826.269
      4077.250        3177.078
 -23714490.96347 -18478821.63847  17827056.1444   17827054.1054
       374.8444        292.0864
 -33400896.51947 -25908547.35647  18597065.6514   18597064.4334
      2308.0784       1798.5024
 -15764895.21746 -12131217.32146  19483880.0584   19483878.8274
      3511.1254       2735.9424
  -1746287.89545  -1198099.91544  21420391.9334   21420391.5344
      2388.9064       1861.4854
 96  8 31 17 56 59.9910000  0  6G26G28G 6G17G23G22
 -13289363.25246 -10170303.69546  19849382.5734   19849380.6874
      2491.4534       1941.3924
 -12109271.921 5  -9435793.068 5  20059568.378    20059569.933
      4070.063        3171.477
 -23725484.04347 -18487387.68647  17824964.1204   17824962.1514
       357.8594        278.8514
 -33470009.42547 -25962401.56347  18583913.9334   18583912.7264
      2299.1724       1791.5634
 -15870063.36346 -12213166.50246  19463867.0814   19463865.8624
      3499.7814       2727.1024
  -1817700.58045  -1253746.16645  21406801.9484   21406801.1404
      2371.6254       1848.0194
 96  8 31 17 57 29.9910000  0  6G26G28G 6G17G23G22
 -13363846.17246 -10228342.29946  19835208.7694   19835207.2454
      2474.2034       1927.9504
 -12231257.162 5  -9530846.472 5  20036355.358    20036356.894
      4062.328        3165.450
 -23735965.84447 -18495555.33147  17822969.5974   17822967.7224
       341.0634        265.7634
 -33538838.11547 -26016034.30047  18570816.4334   18570815.0624
      2289.4384       1783.9774
 -15974874.63046 -12294837.59446  19443922.3164   19443921.3434
      3487.6414       2717.6424
  -1888569.32645  -1308968.55044  21393315.2374   21393314.3584
      2352.9224       1833.4464
 96  8 31 17 57 59.9910000  0  6G26G28G 6G17G23G22
 -13437812.16646 -10285978.11846  19821133.5034   19821131.8864
      2456.6094       1914.2414
 -12353007.681 5  -9625716.993 5  20013187.019    20013188.605
      4054.219        3159.131
 -23745940.21847 -18503327.58147  17821071.7224   17821069.7654
       323.7034        252.2364
 -33607375.15947 -26069439.78747  18557773.9414   18557772.6514
      2279.6254       1776.3314
 -16079319.81846 -12376223.43046  19424046.9484   19424045.7654
      3475.1564       2707.9144
  -1958870.63945  -1363748.77345  21379939.2844   21379938.9214
      2333.7664       1818.5194
 96  8 31 17 58 29.9910000  0  6G26G28G 6G17G23G22
 -13511247.25946 -10343200.24246  19807159.2924   19807157.5464
      2438.8284       1900.3864
 -12474523.214 5  -9720404.407 5  19990063.362    19990064.847
      4046.688        3153.263
 -23755395.15247 -18510695.06947  17819272.4724   17819270.3864
       306.4534        238.7954
 -33675630.55047 -26122625.79847  18544785.3784   18544784.1484
      2270.5944       1769.2944
 -16183393.48746 -12457319.77846  19404242.2614   19404241.3234
      3462.8914       2698.3564
  -2028611.99845  -1418092.67945  21366667.0424   21366665.7884
      2315.5314       1804.3104
 96  8 31 17 58 59.9910000  0  6G26G28G 6G17G23G22
 -13584139.20646 -10399999.13546  19793288.6204   19793286.9214
      2420.8754       1886.3964
 -12595802.943 5  -9814908.075 5  19966984.616    19966986.050
      4038.844        3147.151
 -23764325.50247 -18517653.79147  17817573.0584   17817570.9374
       289.1724        225.3294
 -33743615.31647 -26175600.93447  18531848.5664   18531847.3354
      2262.1724       1762.7314
 -16287082.91547 -12538116.71646  19384511.0344   19384509.9684
      3449.9384       2688.2634
  -2097802.08345  -1472007.03345  21353500.5504   21353498.9334
      2297.3754       1790.1624
 96  8 31 17 59 29.9910000  0  6G26G28G 6G17G23G22
 -13656496.44146 -10456381.37346  19779519.1594   19779517.3314
      2402.8754       1872.3704
 -12716853.078 5  -9909232.830 5  19943949.620    19943950.948
      4031.125        3141.136
 -23772740.19747 -18524210.70847  17815971.8164   17815969.8584
       271.7034        211.7174
 -33811361.89347 -26228390.47147  18518956.9804   18518955.5974
      2254.2664       1756.5714
 -16390391.87847 -12618617.18646  19364852.0114   19364850.6634
      3437.2344       2678.3644
  -2166456.37945  -1525503.89844  21340435.0664   21340433.0734
      2279.6564       1776.3564
 96  8 31 17 59 59.9910000  0  6G26G28G 6G17G23G22
 -13728303.53746 -10512334.93946  19765854.9094   19765853.0934
      2384.2814       1857.8814
 -12837664.087 5 -10003371.263 5  19920959.983    19920961.487
      4023.000        3134.805
 -23780617.47147 -18530348.85547  17814472.8394   17814470.7884
       253.5164        197.5454
 -33878866.76747 -26280991.66847  18506110.9014   18506109.6364
      2246.1254       1750.2274
 -16493308.87547 -12698812.23046  19345267.3084   19345266.2654
      3423.8594       2667.9424
  -2234577.45545  -1578585.23945  21327472.7064   21327471.5344
      2261.9064       1762.5244
 96  8 31 18  0 29.9910000  0  6G26G28G 6G17G23G22
 -13799558.60146 -10567858.33746  19752295.4484   19752293.6324
      2366.3914       1843.9414
 -12958236.211 5 -10097323.560 5  19898015.855    19898017.323
      4015.313        3128.815
 -23787958.12947 -18536068.86447  17813076.1124   17813074.1554
       236.0314        183.9204
 -33946136.64847 -26333409.75247  18493310.1834   18493308.9874
      2238.7194       1744.4564
 -16595826.17347 -12778695.81646  19325758.8944   19325757.6404
      3410.8594       2657.8134
  -2302176.17845  -1631259.58644  21314610.0584   21314609.5424
      2244.6414       1749.0714
 96  8 31 18  0 59.9910000  0  6G26G28G 6G17G23G22
 -13870299.81546 -10622981.34546  19738833.9094   19738832.1164
      2349.5314       1830.8044
 -13078583.073 5 -10191100.313 5  19875114.491    19875116.105
      4007.594        3122.800
 -23794779.98047 -18541384.60747  17811777.9174   17811775.9374
       218.5634        170.3084
 -34013195.58647 -26385663.47047  18480549.0664   18480547.9294
      2231.6884       1738.9774
 -16697964.99947 -12858284.49746  19306322.3784   19306321.2764
      3398.1884       2647.9384
  -2369256.37945                  21301845.1594
      2227.0944
 96  8 31 18  1 29.9910000  0  6G26G28G 6G17G23G22
 -13940527.39546 -10677704.11046  19725470.0344   19725468.2534
      2332.2814       1817.3624
 -13198691.714 5 -10284691.452 5  19852258.659    19852260.112
      3999.688        3116.640
 -23801071.26747 -18546286.92047  17810580.6364   17810578.5974
       200.9694        156.5994
 -34080026.64447 -26437739.61247  18467831.7304   18467830.4524
      2223.7344       1732.7804
 -16799714.86747 -12937570.08846  19286959.8704   19286958.5694
      3385.0164       2637.6754
  -2435799.31745                  21289180.3624
      2209.1094
 96  8 31 18  1 59.9910000  0  6G26G28G 6G17G23G22
 -14010237.22246 -10732023.42746  19712204.3864   19712203.1324
      2315.1094       1803.9814
 -13318563.158 5 -10378097.762 5  19829447.784    19829449.339
      3991.797        3110.491
 -23806840.64447 -18550782.55047  17809482.6204   17809480.5694
       183.7344        143.1704
 -34146628.34247 -26489637.03547  18455157.8704   18455156.7574
      2216.5164       1727.1554
 -16901064.09047 -13016543.49446  19267674.1284   19267673.1554
      3371.6884       2627.2894
  -2501796.76845         0.95155  21276623.4644   21276623.4174
      2190.8284       1707.1394
 96  8 31 18  2 29.9910000  0  6G26G28G 6G17G23G22
 -14079424.89646 -10785935.88846  19699038.8234   19699037.0074
      2297.5004       1790.2604
 -13438195.676 6 -10471317.885 5  19806682.507    19806684.097
      3983.813        3104.269
 -23812088.40947 -18554871.73847  17808484.1674   17808482.1984
       166.2344        129.5334
 -34213018.40147 -26541369.54647  18442524.0344   18442522.7804
      2209.5634       1721.7374
 -17002011.70047 -13095203.94646  19248464.1594   19248463.3164
      3358.3754       2616.9164
  -2567240.93045    -50994.48944  21264169.3084   21264169.4834
      2172.2034       1692.6264
 96  8 31 18  2 59.9910000  0  6G26G28G 6G17G23G22
 -14148086.35846 -10839438.30346  19685972.6984   19685970.8584
      2279.5944       1776.3074
 -13557595.692 6 -10564356.842 5  19783961.300    19783963.011
      3975.984        3098.170
 -23816818.23647 -18558557.32847  17807584.1364   17807582.2494
       148.8914        116.0194
 -34279203.57147 -26592942.40247  18429929.4254   18429928.1484
      2202.5474       1716.2704
 -17102568.11247 -13173559.57746  19229328.9874   19229327.6984
      3345.0474       2606.5304
  -2632137.57745   -101563.31645  21251819.9564   21251818.6204
      2154.1724       1678.5754
 96  8 31 18  3 29.9910000  0  6G26G28G 6G17G23G22
 -14216190.22546 -10892506.23946  19673013.1364   19673011.2374
      2260.7504       1761.6234
 -13676754.179 6 -10657207.605 5  19761286.319    19761287.987
      3967.969        3091.924
 -23821020.42947 -18561831.77847  17806784.4644   17806782.5664
       131.2974        102.3094
 -34345166.63247 -26644342.18647  18417377.0344   18417375.8744
      2195.1094       1710.4754
 -17202716.65647 -13251597.38946  19210271.4954   19210270.3354
      3331.6254       2596.0714
  -2696498.15945   -151714.41445  21239573.1204   21239571.6324
      2136.6564       1664.9274
 96  8 31 18  3 59.9910000  0  6G26G28G 6G17G23G22
 -14283732.30146 -10945136.40846  19660160.4414   19660158.7884
      2242.3594       1747.2934
 -13795674.658 6 -10749872.894 5  19738656.425    19738658.042
      3960.344        3085.982
 -23824693.48547 -18564693.90747  17806085.4174   17806083.4254
       113.7974         88.6734
 -34410917.90347 -26695576.93447  18404865.0114   18404863.7694
      2188.4694       1705.3004
 -17302472.72447 -13329329.36946  19191288.3234   19191287.1874
      3319.1414       2586.3434
  -2760346.78945   -201466.57945  21227422.7844   21227422.2574
      2120.3444       1652.2164
 96  8 31 18  4 29.9910000  0  6G26G28G 6G17G23G22
 -14350706.89346 -10997324.37946  19647415.6054   19647413.9294
      2223.0634       1732.2564
 -13914346.792 6 -10842344.677 5  19716073.937    19716075.550
      3951.547        3079.127
 -23827820.96047 -18567130.90647  17805490.4254   17805488.3624
        95.1884         74.1724
 -34476436.62647 -26746630.48447  18392397.4954   18392396.4294
      2179.7034       1698.4704
 -17401837.59747 -13406756.52646  19172379.8864   19172378.6554
      3305.6884       2575.8604
  -2823695.41445   -250829.14844  21215368.1364   21215367.2454
      2103.2504       1638.8964
 96  8 31 18  4 59.9910000  0  6G26G28G 6G17G23G22
 -14417128.49646 -11049081.45946  19634775.8004   19634774.0304
      2204.9064       1718.1094
 -14032773.524 6 -10934625.230 5  19693538.054    19693539.597
      3943.281        3072.687
 -23830417.54547 -18569154.23547  17804996.2764   17804994.3194
        77.7194         60.5604
 -34541702.27347 -26797486.82847  18379977.4644   18379976.4444
      2171.0164       1691.7004
 -17500824.51347 -13483889.17346  19153543.2144   19153542.0194
      3293.1414       2566.0844
  -2886551.72545   -299808.09445  21203405.1594   21203403.6124
      2086.8914       1626.1494
 96  8 31 18  5 29.9910000  0  6G26G28G 6G17G23G22
 -14483013.60046 -11100420.48046  19622238.4254   19622236.8314
      2187.2034       1704.3144
 -14150957.176 6 -11026716.370 5  19671048.405    19671050.066
      3935.328        3066.489
 -23832500.18447 -18570777.08847  17804600.0504   17804597.9874
        60.8594         47.4234
 -34606711.23447 -26848143.15847  18367606.7144   18367605.5424
      2162.6724       1685.1994
 -17599441.67447 -13560733.69846  19134777.0894   19134775.8474
      3281.0634       2556.6724
  -2948914.66345   -348402.56045  21191540.1284   21191537.7614
      2070.2504       1613.1824
 96  8 31 18  5 59.9910000  0  6G26G28G 6G17G23G22
 -14548365.14446 -11151343.74546  19609802.2374   19609800.4444
      2169.6564       1690.6414
 -14268892.471 6 -11118613.986 5  19648605.925    19648607.659
      3927.078        3060.061
 -23834071.97647 -18572001.87647  17804300.8004   17804298.8904
        44.0164         34.2984
 -34671465.15747 -26898600.75747  18355284.5734   18355283.2614
      2154.2974       1678.6734
 -17697686.23647 -13637287.88846  19116081.4174   19116080.2334
      3268.6564       2547.0054
  -3010759.53745   -396593.38745  21179771.6514   21179770.7374
      2052.5634       1599.3994
 96  8 31 18  6 29.9910000  0  6G26G28G 6G17G23G22
 -14613197.61046 -11201862.52946  19597464.8944   19597463.3944
      2152.5784       1677.3344
 -14386580.137 6 -11210318.651 5  19626210.726    19626212.401
      3918.891        3053.681
 -23835143.13347 -18572836.56247  17804096.8474   17804094.9954
        27.5634         21.4774
 -34735964.93647 -26948860.32347  18343010.5974   18343009.3904
      2145.9224       1672.1474
 -17795563.75947 -13713556.07146  19097456.3864   19097455.2494
      3256.6414       2537.6424
  -3072058.43245   -444358.77145  21168106.1444   21168103.7304
      2034.0634       1584.9844
 96  8 31 18  6 59.9910000  0  6G26G28G 6G17G23G22
 -14677510.34046                  19585226.6054
      2134.7664
 -14504019.332 6 -11301829.693 5  19603862.894    19603864.331
      3910.141        3046.863
 -23835718.16547 -18573284.65147  17803987.5894   17803985.7264
        10.3594          8.0724
 -34800226.30847 -26998934.10647  18330781.9334   18330780.8434
      2138.0314       1665.9984
 -17893075.43147 -13789539.17446  19078900.4804   19078899.4954
      3243.7814       2527.6224
  -3132801.75345   -491691.21544  21156545.7764   21156544.8394
      2015.2974       1570.3614
 96  8 31 18  7 29.9910000  0  6G26G28G 6G17G23G22
 -14741286.82146     -6600.27156  19573090.2924   19573088.5694
      2116.7974       1649.4524
 -14621195.611 6 -11393135.869 5  19581564.858    19581566.464
      3901.578        3040.191
 -23835762.47247 -18573319.18747  17803979.0664   17803977.0154
        -7.4374         -5.7954
 -34864262.88147 -27048832.74147  18318596.2064   18318595.0114
      2131.0634       1660.5684
 -17990196.16847 -13865217.65646  19060418.8314   19060417.5664
      3231.0004       2517.6624
  -3192982.91445   -538585.62845  21145095.1054   21145094.0974
      1996.8444       1555.9824
 96  8 31 18  7 59.9910000  0  6G26G28G 6G17G23G22
 -14804517.33446    -55870.78946  19561058.0894   19561056.1914
      2098.5784       1635.2564
 -14738109.053 6 -11484237.238 5  19559316.964    19559318.620
      3892.609        3033.202
 -23835267.50047 -18572933.50947  17804073.2694   17804071.2764
       -25.5314        -19.8944
 -34928085.31047 -27098564.50047  18306451.5424   18306450.2884
      2123.6884       1654.8214
 -18086931.63947 -13940595.92746  19042010.6914   19042009.8704
      3218.0004       2507.5324
  -3252612.01745   -585049.87245  21133747.1514   21133745.9444
      1978.4224       1541.6274
 96  8 31 18  8 29.9910000  0  6G26G28G 6G17G23G22
 -14867202.69746   -104716.52346  19549129.3314   19549127.6324
      2080.2504       1620.9744
 -14854754.065 6 -11575129.451 5  19537120.054    19537121.816
      3883.594        3026.177
 -23834229.84847 -18572124.97347  17804270.6364   17804268.7614
       -43.7664        -34.1034
 -34991683.13747 -27148121.24947  18294349.1594   18294347.9294
      2116.1414       1648.9414
 -18183274.69947 -14015668.43146  19023677.3944   19023676.4094
      3204.5474       2497.0504
  -3311699.88645   -631092.35044  21122504.5894   21122504.8474
      1960.8444       1527.9304
 96  8 31 18  8 59.9910000  0  6G26G28G 6G17G23G22
 -14929333.43946   -153130.06946  19537306.5584   19537304.7764
      2061.8914       1606.6684
 -14971127.039 6 -11665809.679 5  19514975.112    19514976.917
      3874.578        3019.152
 -23832645.76947 -18570890.64147  17804572.3084   17804570.3514
       -61.7974        -48.1534
 -35055055.93947 -27197502.65247  18282289.5814   18282288.1634
      2108.5944       1643.0604
 -18279208.56547 -14090422.08046  19005421.7454   19005420.9254
      3191.0784       2486.5544
  -3370270.50145   -676731.79544  21111357.7224   21111357.9444
      1943.8594       1514.6964
 96  8 31 18  9 29.9910000  0  6G26G28G 6G17G23G22
 -14990917.91746   -201117.96446  19525587.2764   19525585.8824
      2043.7034       1592.4964
 -15087233.372 6 -11756282.137 5  19492880.823    19492882.472
      3865.953        3012.431
 -23830536.64047 -18569247.17747  17804973.6984   17804971.5664
       -78.5004        -61.1694
 -35118195.01247 -27246701.92747  18270274.7694   18270273.4334
      2100.7194       1636.9244
 -18374746.61147 -14164867.29646  18987241.5264   18987240.2494
      3178.2504       2476.5584
  -3428337.50445   -721978.81145  21100308.0734   21100306.9724
      1927.3914       1501.8634
 96  8 31 18  9 59.9910000  0  6G26G28G 6G17G23G22
 -15051957.45746   -248681.22546  19513971.7304   19513970.0894
      2025.6254       1578.4094
 -15203081.878 6 -11846553.686 5  19470835.624    19470837.292
      3857.172        3005.588
 -23827939.03547 -18567223.08747  17805468.0194   17805466.1324
       -94.8754        -73.9294
 -35181095.85847 -27295715.56947  18258304.9954   18258303.9174
      2092.7194       1630.6904
 -18469900.20847 -14239012.94046  18969134.3474   18969133.1634
      3165.2194       2466.4044
  -3485912.54445   -766842.46944  21089353.8624   21089352.9134
      1910.8134       1488.9454
 96  8 31 18 10 29.9910000  0  7G26G28G 6G16G17G23G22
 -15112454.58746   -295821.83246  19502459.5814   19502457.9174
      2007.4844       1564.2744
 -15318664.730 6 -11936618.238 5  19448840.890    19448842.667
      3848.547        2998.868
 -23824843.63247 -18564811.10047  17806056.8784   17806055.0154
      -111.2814        -86.7134
     53586.72355                  20714520.0344
     -2331.0164
 -35243759.97247 -27344544.74947  18246380.3864   18246379.0734
      2085.2344       1624.8584
 -18564664.12147 -14312854.94146  18951101.4254   18951100.3004
      3152.5944       2456.5674
  -3542989.33845   -811317.91444  21078490.0504   21078488.8554
      1894.4844       1476.2224
 96  8 31 18 10 59.9910000  0  6G26G28G 6G17G23G22
 -15172388.59646   -342523.64246  19491054.4484   19491052.4684
      1988.4384       1549.4324
 -15433982.390 6 -12026476.135 5  19426896.808    19426898.472
      3839.641        2991.928
 -23821255.05147 -18562014.81847  17806739.9174   17806738.0074
      -127.6254        -99.4484
 -35306197.15147 -27393197.09347  18234499.0734   18234497.9134
      2077.5004       1618.8314
 -18659049.60647 -14386402.05346  18933140.2694   18933139.2374
      3140.1884       2446.8994
  -3599561.01145   -855399.72644  21067727.0664   21067726.6204
      1877.2344       1462.7804
 96  8 31 18 11 29.9910000  0  6G26G28G 6G17G23G22
 -15231759.74346   -388786.86146  19479756.5814   19479754.8354
      1969.6094       1534.7614
 -15549043.094 6 -12116133.816 5  19405001.327    19405003.183
      3831.141        2985.304
 -23817180.41747 -18558839.79347  17807515.1984   17807513.3234
      -144.1414       -112.3174
 -35368416.12547 -27441679.41147  18222659.0584   18222657.9564
      2070.6724       1613.5114
 -18753072.98747 -14459667.01246  18915248.2694   18915247.0264
      3128.1414       2437.5124
  -3655618.44945   -899080.86444  21057057.7374   21057055.8744
      1859.9064       1449.2784
 96  8 31 18 11 59.9910000  0  6G26G28G 6G17G23G22
 -15290564.27546   -434608.56446  19468566.3784   19468564.4334
      1951.0474       1520.2964
 -15663847.297 6 -12205591.632 5  19383154.874    19383156.597
      3822.656        2978.693
 -23812598.76847 -18555269.69147  17808387.1364   17808385.2264
      -161.1254       -125.5524
 -35430438.32447 -27490008.39547  18210856.6204   18210855.2964
      2064.3284       1608.5674
 -18846738.26147 -14532652.92446  18897424.4094   18897423.2374
      3116.5004       2428.4424
  -3711142.20445   -942346.10344  21046492.3864   21046490.8514
      1841.8134       1435.1794
 96  8 31 18 12 29.9910000  0  6G26G28G 6G17G23G22
 -15348815.65746   -479999.23846  19457481.3314   19457479.3984
      1932.4064       1505.7714
 -15778394.349 6 -12294849.055 5  19361357.265    19361359.089
      3813.953        2971.912
 -23807510.21747 -18551304.59747  17809355.5664   17809353.6444
      -177.8124       -138.5554
 -35492265.33847 -27538185.28347  18199091.3944   18199090.1754
      2057.6094       1603.3324
 -18940047.75047 -14605361.59646  18879668.1674   18879667.1014
      3104.1884       2418.8474
  -3766117.58945   -985184.05444  21036029.8704   21036030.4094
      1823.4224       1420.8484
 96  8 31 18 12 59.9910000  0  6G26G28G 6G17G23G22
 -15406508.07746   -524954.36946  19446503.0344   19446501.2534
      1913.9224       1491.3684
 -15892678.973 6 -12383902.000 6  19339609.605    19339611.339
      3804.984        2964.923
 -23801927.33447 -18546954.32447  17810417.8624   17810415.9524
      -194.4534       -151.5224
 -35553889.38047 -27586204.01947  18187365.1204   18187363.7614
      2050.6564       1597.9144
 -19032984.13047 -14677779.54546  18861982.9334   18861981.9134
      3091.5634       2409.0104
  -3820543.06045  -1027593.52244  21025674.6754   21025673.1404
      1805.0004       1406.4944
 96  8 31 18 13 29.9910000  0  6G26G28G 6G17G23G22
 -15463662.66346   -569490.40246  19435626.8474   19435624.8664
      1896.1724       1477.5374
 -16006699.482 6 -12472749.145 6  19317912.108    19317913.800
      3796.250        2958.117
 -23795848.50747 -18542217.59447  17811574.9174   17811572.8664
      -210.8444       -164.2944
 -35615321.17047 -27634072.94547  18175674.6444   18175673.4134
      2044.7034       1593.2754
 -19125549.37447 -14749908.29146  18844368.4014   18844367.3004
      3079.3754       2399.5134
  -3874431.07745  -1069584.20344  21015420.5584   21015419.7844
      1787.5314       1392.8814
 96  8 31 18 13 59.9910000  0  6G26G28G 6G17G23G22
 -15520267.09346   -613597.72746  19424855.1124   19424853.6714
      1877.9384       1463.3284
 -16120442.095 6 -12561379.738 6  19296267.753    19296269.386
      3786.969        2950.885
 -23789278.09647 -18537097.80947  17812825.1444   17812823.1284
      -226.6874       -176.6404
 -35676557.14047 -27681789.27947  18164021.9724   18164020.7064
      2037.9844       1588.0404
 -19217733.35347 -14821739.94346  18826826.5894   18826825.4994
      3066.4694       2389.4564
  -3927790.42445  -1111162.92544  21005266.7454   21005265.0344
      1770.2814       1379.4404
 96  8 31 18 14 29.9910000  0  6G26G28G 6G17G23G22
 -15576334.25846   -657286.42446  19414186.0734   19414184.1754
      1859.6564       1449.0834
 -16233911.456 6 -12649797.410 6  19274675.171    19274676.917
      3777.656        2943.628
 -23782239.57947 -18531613.26647  17814164.4334   17814162.5234
      -242.5474       -188.9984
 -35737591.50447 -27729348.52247  18152407.4724   18152406.3004
      2030.9384       1582.5494
 -19309528.82147 -14893268.87046  18809358.4094   18809357.1674
      3053.2814       2379.1804
  -3980651.12245  -1152353.06044  20995206.6284   20995206.7574
      1753.9224       1366.6924
 96  8 31 18 14 59.9910000  0  6G26G28G 6G17G23G22
 -15631836.54946   -700534.95746  19403624.1914   19403622.5154
      1840.7814       1434.3754
 -16347096.454 6 -12737993.503 6  19253136.714    19253138.433
      3768.250        2936.299
 -23774715.94047 -18525750.71247  17815596.2764   17815594.4254
      -258.9064       -201.7454
 -35798406.92947 -27776737.16647  18140834.8004   18140833.5584
      2023.7194       1576.9244
 -19400932.90647 -14964492.82146  18791964.6834   18791963.4054
      3040.5784       2369.2824
  -4033019.40745  -1193159.50444  20985238.4014   20985236.6914
      1737.4384       1353.8474
 96  8 31 18 15 29.9910000  0  6G26G28G 6G17G23G22
 -15686768.68546   -743339.20946  19393170.8314   19393168.8984
      1821.7814       1419.5704
 -16459995.199 6 -12825966.540 6  19231652.812    19231654.573
      3758.781        2928.920
 -23766694.72947 -18519500.43547  17817122.4094   17817120.6284
      -275.3754       -214.5784
 -35858998.83547 -27823951.63747  18129304.5974   18129303.2964
      2016.0164       1570.9214
 -19491953.10647 -15035417.64146  18774643.9804   18774642.6914
      3027.7814       2359.3104
  -4084882.30545  -1233572.17644  20975370.8784   20975370.6794
      1720.4844       1340.6374
 96  8 31 18 15 59.9910000  0  6G26G28G 6G17G23G22
 -15741147.03946   -785711.93946  19382823.3394   19382821.3004
      1803.5314       1405.3494
 -16572624.137 6 -12913729.341 6  19210220.312    19210221.925
      3749.766        2921.895
 -23758194.21247 -18512876.67547  17818740.1914   17818738.3984
      -291.5164       -227.1554
 -35919361.49447 -27870987.47647  18117817.9014   18117816.5664
      2008.0314       1564.7004
 -19582593.19947 -15106046.26946  18757395.7924   18757394.6084
      3014.7504       2349.1564
  -4136243.68545  -1273594.06044  20965595.6984   20965593.4954
      1703.5634       1327.4514
 96  8 31 18 16 29.9910000  0  6G26G28G 6G17G23G22
 -15794966.11146   -827648.86446  19372581.9094   19372580.0814
      1784.3284       1390.3864
 -16684966.672 6 -13001268.964 6  19188842.206    19188843.862
      3739.813        2914.140
 -23749182.33647 -18505854.45447  17820455.0814   17820453.3704
      -309.2034       -240.9374
 -35979471.58047 -27917826.50247  18106379.2224   18106377.8164
      1999.5164       1558.0644
 -19672832.09447 -15176362.28046  18740224.0194   18740222.8234
      3001.3444       2338.7094
  -4187083.66745  -1313209.61544  20955922.3944   20955920.9054
      1685.8284       1313.6324
 96  8 31 18 16 59.9910000  0  6G26G28G 6G17G23G22
 -15848214.69546   -869141.26046  19362448.9564   19362447.1404
      1765.5944       1375.7874
 -16797020.282 6 -13088583.453 6  19167519.069    19167520.745
      3730.250        2906.688
 -23739654.81047 -18498430.43447  17822268.2614   17822266.3864
      -326.2194       -254.1964
 -36039347.21047 -27964482.84047  18094985.2534   18094983.9874
      1992.0784       1552.2694
 -19762685.42647 -15246377.85146  18723125.4644   18723124.3624
      2988.6254       2328.7994
  -4237396.19845  -1352414.19544  20946348.4804   20946347.7304
      1668.0784       1299.8014
 96  8 31 18 17 29.9910000  0  6G26G28G 6G17G23G22
 -15900903.55846   -910197.51446  19352422.3554   19352420.7264
      1746.9844       1361.2874
 -16908778.001 6 -13175667.386 6  19146252.245    19146253.948
      3720.250        2898.896
 -23729610.27147 -18490603.53447  17824179.5344   17824177.5894
      -343.3914       -267.5774
 -36098993.12647 -28010960.17747  18083635.1444   18083633.8904
      1984.3284       1546.2304
 -19852148.23347 -15316089.11146  18706101.0814   18706100.0154
      2975.6094       2318.6574
  -4287170.19445  -1391199.14244  20936876.4484   20936875.6284
      1650.1884       1285.8604
 96  8 31 18 17 59.9910000  0  6G26G28G 6G17G23G22
 -15953036.23746   -950820.37246  19342502.0424   19342500.3784
      1728.4384       1346.8344
 -17020238.622 6 -13262519.808 6  19125042.085    19125043.800
      3710.406        2891.226
 -23719053.05147 -18482377.15147  17826188.2764   17826186.4834
      -360.5164       -280.9214
 -36158422.53447 -28057268.80547  18072325.9644   18072324.8274
      1977.7034       1541.0674
 -19941230.71547 -15385504.02146  18689149.3554   18689148.2534
      2963.3134       2309.0754
  -4336414.20545  -1429571.09944  20927507.6594   20927505.1284
      1632.8134       1272.3214
 96  8 31 18 18 29.9900000  0  6G26G28G 6G17G23G22
 -16004611.86246   -991009.16146  19332687.3974   19332685.2644
      1709.7974       1332.3094
 -17131402.587 6 -13349141.063 6  19103888.182    19103889.818
      3700.516        2883.519
 -23707987.50947 -18473754.66447  17828294.2484   17828292.5254
      -377.3124       -294.0104
 -36217662.65447 -28103429.93247  18061052.9674   18061051.9124
      1971.4534       1536.1974
 -20029954.38447 -15454639.33046  18672265.6474   18672264.4164
      2951.6094       2299.9554
  -4385141.05745  -1467540.05544  20918235.5924   20918233.9044
      1615.3754       1258.7344
 96  8 31 18 18 59.9900000  0  7G26G28G 6G21G17G23G22
 -16055625.95046  -1030760.38046  19322979.8894   19322977.8504
      1691.2664       1317.8694
 -17242269.260 6 -13435530.667 6  19082790.924    19082792.647
      3690.563        2875.763
 -23696420.55647 -18464741.47647  17830495.2404   17830493.6004
      -393.8914       -306.9284
         3.99154                  21705169.9904
      4196.8284
 -36276699.04547 -28149432.31447  18049818.5924   18049817.5374
      1964.2344       1530.5724
 -20118321.05947 -15523496.46946  18655450.1004   18655448.9404
      2939.4384       2290.4714
  -4433334.63345  -1505093.49044  20909062.5064   20909061.8854
      1597.4844       1244.7934
 96  8 31 18 19 29.9900000  0  7G26G28G 6G21G17G23G22
 -16106075.90446  -1070072.02546  19313379.6864   19313377.5764
      1672.0944       1302.9304
 -17352832.186 6 -13521683.582 6  19061751.525    19061753.186
      3680.406        2867.849
 -23684349.03047 -18455335.10547  17832792.5224   17832790.6354
      -410.6874       -320.0164
   -125838.37344    -42477.32753  21681225.9984   21681226.1274
      4192.7504       3267.0784
 -36335513.03647 -28195261.39147  18038626.5614   18038625.4004
      1956.8284       1524.8014
 -20206317.60347 -15592065.18746  18638704.8894   18638703.6354
      2927.1724       2280.9134
  -4480989.62945  -1542227.27044  20899994.3654   20899994.4244
      1579.6884       1230.9254
 96  8 31 18 19 59.9900000  0  7G26G28G 6G21G17G23G22
 -16155955.57246  -1108939.29046  19303887.4594   19303885.7724
      1653.2504       1288.2474
 -17463096.466 6 -13607603.792 6  19040768.955    19040770.732
      3670.531        2860.154
 -23671782.41447 -18445542.96147  17835183.9204   17835181.9754
      -427.1254       -332.8254
   -251563.54044   -140444.92843  21657300.6004   21657302.1234
      4188.8284       3264.0224
 -36394112.97547 -28240923.68247  18027475.5144   18027474.4004
      1949.7034       1519.2494
 -20293952.90947 -15660352.42646  18622028.2404   18622027.0334
      2915.0164       2271.4414
  -4528122.21145  -1578953.96444  20891025.4674   20891024.1664
      1562.6414       1217.6424
 96  8 31 18 20 29.9900000  0  7G26G28G 6G21G17G23G22
 -16205272.21146  -1147367.83346  19294502.8654   19294501.2364
      1634.6094       1273.7224
 -17573062.145 6 -13693291.326 6  19019843.248    19019844.904
      3660.578        2852.399
 -23658724.21547 -18435367.75047  17837668.6784   17837666.8734
      -443.3444       -345.4634
   -377167.50144   -238318.06443  21633397.4674   21633398.4864
      4184.8594       3260.9294
 -36452484.88047 -28286408.28247  18016367.8734   18016366.5614
      1941.7974       1513.0884
 -20381209.57947 -15728344.62046  18605424.1004   18605422.8694
      2902.1564       2261.4204
  -4574743.93445  -1615282.59344  20882153.2324   20882152.0374
      1545.5004       1204.2864
 96  8 31 18 20 59.9900000  0  7G26G28G 6G21G17G23G22
 -16254023.64346  -1185355.95246  19285225.8974   19285223.9514
      1615.5314       1258.8564
 -17682729.622 6 -13778746.489 6  18998974.170    18998975.740
      3650.594        2844.619
 -23645177.31047 -18424811.73847  17840246.8574   17840244.9714
      -459.8444       -358.3204
   -502648.60544   -336095.48843  21609517.8654   21609518.1474
      4180.5474       3257.5694
 -36510621.77847 -28331709.76247  18005304.5684   18005303.2564
      1934.3134       1507.2564
 -20468082.17947 -15796037.54046  18588892.8034   18588891.5374
      2889.3914       2251.4734
  -4620851.63545  -1651210.67744  20873380.4674   20873379.4474
      1528.5474       1191.0754
 96  8 31 18 21 29.9900000  0  7G26G28G 6G21G17G23G22
 -16302215.27646  -1222907.87046  19276055.6234   19276053.9244
      1597.0944       1244.4894
 -17792101.488 6 -13863971.308 6  18978161.346    18978163.061
      3640.688        2836.899
 -23631139.38647 -18413873.11847  17842918.1864   17842916.2054
      -476.2194       -371.0804
   -627998.48044   -433770.65643  21585665.5534   21585665.3544
      4175.8754       3253.9294
 -36568554.46247 -28376852.11347  17994280.4124   17994279.2874
      1927.5944       1502.0214
 -20554576.61047 -15863435.78746  18572433.3264   18572431.9904
      2876.7194       2241.5994
  -4666466.92745  -1686755.07644  20864701.1544   20864700.5804
      1512.2814       1178.4014
 96  8 31 18 21 59.9900000  0  7G26G28G 6G21G17G23G22
 -16349855.97146  -1260030.48046  19266989.7174   19266988.0764
      1579.2664       1230.5974
 -17901165.637 6 -13948956.358 6  18957407.115    18957408.826
      3630.547        2828.998
 -23616597.05047 -18402541.44747  17845685.2324   17845683.4754
      -493.0164       -384.1684
   -753198.16745   -531328.79943  21561841.6074   21561841.9004
      4171.1414       3250.2394
 -36626277.49747 -28421831.10347  17983296.0224   17983294.8854
      1920.9384       1496.8344
 -20640676.06447 -15930526.25946  18556049.2484   18556047.7604
      2863.3914       2231.2134
  -4711581.84345  -1721909.56044  20856114.6234   20856114.3774
      1495.6414       1165.4344
 96  8 31 18 22 29.9900000  0  7G26G28G 6G21G17G23G22
 -16396957.47046  -1296732.95146  19258026.5614   19258024.7444
      1560.6564       1216.0964
 -18009929.790 6 -14033707.640 6  18936709.912    18936711.615
      3620.297        2821.011
 -23601557.32347 -18390822.19947  17848547.5294   17848545.7014
      -509.6094       -397.0984
   -878263.52245   -628782.25744  21538041.9904   21538042.0494
      4166.3914       3246.5384
 -36683806.88247 -28466659.19547  17972348.6474   17972347.6274
      1914.3134       1491.6724
 -20726373.67547 -15997303.60546  18539741.3504   18539739.9904
      2849.8444       2220.6574
  -4756197.57545  -1756675.06744  20847623.1624   20847622.5884
      1478.5784       1152.1394
 96  8 31 18 22 59.9900000  0  7G26G28G 6G21G17G23G22
 -16443490.90546  -1332992.76046  19249171.3504   19249170.0844
      1541.5164       1201.1814
 -18118382.346 6 -14118216.120 6  18916072.018    18916073.826
      3609.719        2812.768
 -23586019.70047 -18378714.97947  17851503.9284   17851502.2404
      -526.2974       -410.1014
  -1003179.17545   -726119.07143  21514269.7794   21514270.3074
      4161.1724       3242.4724
 -36741135.43347 -28511330.79547  17961439.3184   17961438.0654
      1907.5314       1486.3884
 -20811668.94747 -16063767.43746  18523510.1934   18523509.1274
      2836.2974       2210.1014
  -4800302.77645  -1791042.77545  20839230.8974   20839229.9824
      1461.7504       1139.0264
 96  8 31 18 23 29.9900000  0  7G26G28G 6G21G17G23G22
 -16489465.32746  -1368816.97546  19240422.7644   19240421.4404
      1523.0474       1186.7904
 -18226525.094 6 -14202483.190 6  18895493.178    18895494.920
      3599.609        2804.890
 -23569993.49647 -18366227.04647  17854553.5764   17854551.8774
      -542.2194       -422.5084
  -1127942.07745   -823336.86944  21490529.1624   21490530.1004
      4156.1254       3238.5394
 -36798267.17947 -28555849.03647  17950567.5684   17950566.3734
      1900.9534       1481.2624
 -20896561.79447 -16129917.69046  18507355.8654   18507354.7994
      2823.1564       2199.8624
  -4843915.67145  -1825026.85444  20830933.1074   20830931.5964
      1445.5004       1126.3644
 96  8 31 18 23 59.9900000  0  7G26G28G 6G21G17G23G22
 -16534860.50846  -1404189.84046  19231784.2564   19231782.8504
      1503.2974       1171.4004
 -18334354.503 6 -14286506.096 6  18874974.018    18874975.592
      3589.094        2796.696
 -23553487.40747 -18353365.17847  17857694.9674   17857693.1624
      -557.9374       -434.7564
  -1252548.01045   -920432.34544  21466817.2874   21466819.1744
      4151.0784       3234.6064
 -36855193.59847 -28600207.28347  17939734.9674   17939733.8074
      1894.2194       1476.0154
 -20981059.75847 -16195760.24846  18491276.4284   18491275.1274
      2810.2034       2189.7694
  -4887029.70045  -1858622.21844  20822727.9824   20822727.3154
      1428.8754       1113.4094
 96  8 31 18 24 29.9900000  0  7G26G28G 6G21G17G23G22
 -16579662.87346  -1439100.77546  19223258.9594   19223257.4364
      1483.5314       1155.9984
 -18441872.192 6 -14370286.115 6  18854514.057    18854515.725
      3578.688        2788.588
 -23536523.84647 -18340146.85347  17860922.9434   17860921.0454
      -573.0474       -446.5304
  -1377002.68745  -1017409.99344  21443134.1234   21443135.2134
      4145.7344       3230.4424
 -36911913.75347 -28644404.81447  17928941.2484   17928940.1704
      1887.0634       1470.4384
 -21065178.71347 -16261307.47646  18475268.9824   18475267.7874
      2797.8594       2180.1504
  -4929650.94645  -1891833.56344  20814617.5144   20814616.1904
      1412.4694       1100.6254
 96  8 31 18 24 59.9900000  0  7G26G28G 6G21G17G23G22
 -16623883.72946  -1473558.57646  19214843.7794   19214842.3504
      1464.5314       1141.1934
 -18549077.488 6 -14453822.694 6  18834113.650    18834115.178
      3568.250        2780.455
 -23519102.13747 -18326571.51247  17864238.2014   17864236.4434
      -588.4534       -458.5354
  -1501296.08845  -1114261.91544  21419481.4754   21419482.8344
      4140.5004       3226.3644
 -36968423.73347 -28688438.55947  17918187.7874   17918186.6744
      1880.2814       1465.1544
 -21148937.85547 -16326574.32246  18459330.0144   18459328.6664
      2786.0634       2170.9584
  -4971782.56245  -1924663.41944  20806601.4824   20806600.5104
      1396.1564       1087.9144
 96  8 31 18 25 29.9900000  0  7G26G28G 6G21G17G23G22
 -16667533.97346  -1507571.74046  19206537.5844   19206535.7564
      1445.6884       1126.5104
 -18655964.987 6 -14537111.641 6  18813773.580    18813775.186
      3557.906        2772.394
 -23501215.57147 -18312633.94647  17867641.9754   17867640.2404
      -603.6564       -470.3814
  -1625433.78245  -1210992.53844  21395858.6474   21395858.9754
      4135.6564       3222.5894
 -37024732.22847 -28732315.31247  17907472.7484   17907471.5884
      1873.8444       1460.1384
 -21232340.33147 -16391563.25246  18443459.3344   18443458.2094
      2774.5164       2161.9604
  -5013407.05345  -1957098.09144  20798680.7174   20798680.3074
      1379.0784       1074.6064
 96  8 31 18 25 59.9900000  0  7G26G28G 6G21G17G23G22
 -16710618.16447  -1541143.84346  19198338.8734   19198337.2094
      1426.7194       1111.7294
 -18762538.916 6 -14620156.259 6  18793493.158    18793494.920
      3546.969        2763.872
 -23482866.90747 -18298336.31047  17871133.4204   17871131.8734
      -619.6874       -482.8734
  -1749427.92845  -1307611.30344  21372263.5614   21372263.6664
      4130.5634       3218.6204
 -37080839.80547 -28776035.50647  17896795.7644   17896794.6394
      1866.5784       1454.4764
 -21315389.89547 -16456277.18946  18427655.4364   18427654.0184
      2761.9534       2152.1714
  -5054514.73345  -1989130.05345  20790857.0144   20790856.2294
      1361.4064       1060.8364
 96  8 31 18 26 29.9900000  0  7G26G28G 6G21G17G23G22
 -16753146.03646  -1574282.44346  19190245.6004   19190243.8774
      1408.1884       1097.2894
 -18868788.745 6 -14702948.326 6  18773274.393    18773276.295
      3536.125        2755.422
 -23464033.79747 -18283661.17547  17874717.4124   17874715.8774
      -636.0944       -495.6574
  -1873266.29245  -1404108.69143  21348697.6784   21348696.4474
      4125.0944       3214.3594
 -37136730.23247 -28819586.48847  17886160.1934   17886158.9634
      1859.3444       1448.8394
 -21398059.10647 -16520694.74246  18411923.9204   18411922.6434
      2749.1724       2142.2124
  -5095095.17445  -2020751.18745  20783135.7724   20783135.1274
      1343.7814       1047.1024
 96  8 31 18 26 59.9900000  0  7G26G28G 6G21G17G23G22
 -16795116.84046  -1606986.96146  19182259.1934   19182257.4594
      1389.4064       1082.6544
 -18974714.974 6 -14785488.230 6  18753117.389    18753119.115
      3525.203        2746.912
 -23444716.42747 -18268608.69447  17878393.3654   17878391.5614
      -652.0164       -508.0644
  -1996952.24445  -1500487.28043  21325160.7564   21325160.0884
      4120.2664       3210.5974
 -37192413.49047 -28862976.04047  17875564.0534   17875562.8344
      1852.4844       1443.4944
 -21480349.57647 -16584817.17046  18396264.4594   18396263.3344
      2736.3914       2132.2524
  -5135153.80545  -2051965.71444  20775512.5764   20775511.9554
      1326.3444       1033.5154
 96  8 31 18 27 29.9900000  0  7G26G28G 6G21G17G23G22
 -16836515.19547  -1639245.41546  19174381.6394   19174379.6474
      1370.3444       1067.8004
 -19080307.549 6 -14867768.151 6  18733023.764    18733025.576
      3514.219        2738.352
 -23424923.60447 -18253185.73747  17882159.7954   17882158.0024
      -667.7344       -520.3124
  -2120487.31845  -1596748.36244  21301654.2564   21301654.4794
      4115.2664       3206.7004
 -37247882.55347 -28906198.68847  17865008.6314   17865007.4244
      1845.3444       1437.9304
 -21562246.72547 -16648633.11546  18380680.1544   18380679.0764
      2723.2194       2121.9894
  -5174682.01045  -2082766.92044  20767990.4514   20767990.1704
      1308.9384       1019.9514
 96  8 31 18 27 59.9900000  0  7G26G28G 6G21G17G23G22
 -16877345.62847  -1671061.33546  19166611.8504   19166609.6004
      1352.0004       1053.5064
 -19185567.694 6 -14949789.034 6  18712993.393    18712995.193
      3503.297        2729.842
 -23404651.35247 -18237389.20147  17886017.3654   17886015.5724
      -683.5314       -532.6224
  -2243873.34145  -1692893.23144  21278174.3574   21278174.0294
      4110.7344       3203.1704
 -37303132.15447 -28949250.32647  17854495.0454   17854493.8264
      1838.3134       1432.4514
 -21643747.09647 -16712139.88946  18365171.0144   18365169.7484
      2710.3444       2111.9564
  -5213698.96745  -2113169.77145  20760565.6314   20760565.7134
      1292.3134       1006.9974
 96  8 31 18 28 29.9900000  0  7G26G28G 6G21G17G23G22
 -16917629.55346  -1702451.39646  19158945.9434   19158944.2214
      1333.8134       1039.3344
 -19290500.404 6 -15031554.775 6  18693025.404    18693027.170
      3492.391        2721.343
 -23383914.51847 -18221230.65047  17889963.7094   17889961.9164
      -698.6254       -544.3834
  -2367131.39345  -1788938.40944  21254718.2404   21254718.9904
      4106.7034       3200.0284
 -37358180.49347 -28992145.13447  17844019.7644   17844018.6504
      1831.7664       1427.3504
 -21724875.53947 -16775356.84346  18349732.9124   18349731.6704
      2698.4384       2102.6794
  -5252217.34245  -2143184.07945  20753236.3184   20753235.2294
      1275.7664        994.1034
 96  8 31 18 28 59.9900000  0  7G26G28G 6G21G17G23G22
 -16957363.57947  -1733412.97446  19151384.8894   19151383.1784
      1315.2194       1024.8464
 -19395098.206 6 -15113059.547 6  18673121.096    18673122.912
      3480.797        2712.309
 -23362723.12447 -18204717.90147  17893996.2174   17893994.4004
      -714.2664       -556.5714
  -2490268.86645  -1884889.65544  21231286.0144   21231287.5374
      4102.3754       3196.6564
 -37413025.97947 -29034881.87547  17833582.9984   17833581.8034
      1824.5634       1421.7374
 -21805639.05647 -16838289.44446  18334363.8184   18334362.6824
      2685.7814       2092.8174
  -5290231.40345  -2172805.43645  20746002.5534   20746001.2404
      1258.4384        980.6014
 96  8 31 18 29 29.9900000  0  7G26G28G 6G21G17G23G22
 -16996537.60247  -1763938.19046  19143930.3734   19143928.6504
      1296.6414       1010.3694
 -19499339.785 6 -15194286.748 6  18653284.576    18653286.389
      3468.969        2703.093
 -23341042.50147 -18187823.93147  17898121.8654   17898120.0254
      -730.8444       -569.4894
  -2613257.64945  -1980725.03444  21207882.9824   21207882.5254
      4097.1564       3192.5894
 -37467640.60547 -29077438.72847  17823190.2174   17823188.8694
      1816.7194       1415.6254
 -21886012.75247 -16900918.28346  18319069.3424   18319068.1474
      2672.7504       2082.6624
  -5327711.16245  -2202010.45945  20738869.2254   20738867.9824
      1240.6254        966.7214
 96  8 31 18 29 59.9900000  0  7G26G28G 6G21G17G23G22
 -17035172.58347  -1794043.37046  19136578.1784   19136576.4904
      1278.7814        996.4534
 -19603246.215 6 -15275252.789 6  18633511.850    18633513.545
      3457.813        2694.399
 -23318886.00347 -18170559.14947  17902338.1704   17902336.6004
      -746.3444       -581.5674
  -2736107.66145  -2076452.27044  21184504.6394   21184504.6154
      4092.4384       3188.9124
 -37522037.76147 -29119826.12547  17812838.7724   17812837.3774
      1809.5474       1410.0374
 -21966017.98047 -16963260.00646  18303845.1154   18303843.9554
      2660.7344       2073.3004
  -5364681.27145  -2230818.33945  20731835.6544   20731834.6004
      1223.7194        953.5474
 96  8 31 18 30 29.9900000  0  7G26G28G 6G21G17G23G22
 -17073278.31647  -1823736.14846  19129326.9754   19129325.1584
      1262.1254        983.4744
 -19706834.573 6 -15355970.981 6  18613799.686    18613801.428
      3448.734        2687.325
 -23296292.80547 -18152954.08447  17906637.5224   17906635.8114
      -759.2504       -591.6234
  -2858822.93945  -2172074.51844  21161152.8264   21161153.5184
      4089.1254       3186.3314
 -37576243.08047 -29162064.03447  17802523.5454   17802522.3034
      1804.7194       1406.2744
 -22045677.33547 -17025332.21846  18288686.3734   18288685.0254
      2650.4064       2065.2524
  -5401165.18545  -2259247.40445  20724891.4204   20724889.6974
      1209.2344        942.2614
 96  8 31 18 30 59.9900000  0  7G26G28G 6G21G17G23G22
 -17110840.09347  -1853005.06646  19122179.2874   19122177.5884
      1242.1094        967.8774
 -19810113.904 6 -15436448.377 6  18594146.248    18594148.131
      3436.766        2677.999
 -23273271.20747 -18135015.19947  17911018.2484   17911016.5494
      -775.4064       -604.2134
  -2981393.92545  -2267584.35144  21137827.7324   21137826.9714
      4082.5164       3181.1814
 -37630264.85647 -29204158.92147  17792243.4514   17792242.3614
      1797.0164       1400.2724
 -22124979.80747 -17087126.33946  18273595.4904   18273594.3184
      2636.6724       2054.5504
  -5437181.11445  -2287311.75945  20718038.6864   20718037.4554
      1192.0784        928.8924
 96  8 31 18 31 29.9900000  0  7G26G28G 6G21G17G23G22
 -17147797.80747  -1881803.28446  19115146.3574   19115144.4824
      1221.6094        951.9034
 -19913034.118 6 -15516645.947 6  18574561.123    18574562.951
      3424.641        2668.551
 -23249766.28447 -18116699.69947  17915491.2094   17915489.6044
      -791.4224       -616.6924
  -3103768.01045  -2362940.70244  21114541.4674   21114541.6074
      4075.9534       3176.0674
 -37684057.19747 -29246075.03547  17782007.3034   17782006.0724
      1789.2814       1394.2454
 -22203876.64147 -17148604.38346  18258581.8574   18258580.6624
      2623.1564       2044.0184
  -5472690.63645  -2314981.53745  20711279.2404   20711278.6664
      1175.4844        915.9624
 96  8 31 18 31 59.9900000  0  7G26G28G 6G21G17G23G22
 -17184124.80647  -1910110.03946  19108233.4434   19108231.7444
      1200.5314        935.4794
 -20015579.313 6 -15596551.284 6  18555047.393    18555049.209
      3411.953        2658.665
 -23225778.28047 -18098007.77147  17920056.2254   17920054.4674
      -807.4844       -629.2094
  -3225945.33045  -2458143.77544  21091290.9594   21091290.8184
      4069.5314       3171.0634
 -37737620.35847 -29287812.56747  17771814.7644   17771813.6864
      1781.8914       1388.4864
 -22282360.79047 -17209760.84746  18243646.8264   18243645.4204
      2609.4224       2033.3164
  -5507702.89645  -2342263.81145  20704618.5614   20704618.0804
      1158.9064        903.0444
 96  8 31 18 32 29.9900000  0  7G26G28G 6G21G17G23G22
 -17219837.57647  -1937938.16946  19101437.5064   19101435.6314
      1180.3444        919.7484
 -20117760.892 6 -15676173.283 6  18535602.955    18535604.709
      3400.219        2649.521
 -23201324.30547 -18078952.74947  17924709.2874   17924707.6584
      -822.7814       -641.1284
  -3347951.92745  -2553213.80644  21068075.4434   21068074.3774
      4064.3914       3167.0584
 -37790985.01747 -29329395.41547  17761659.7954   17761658.5064
      1775.7344       1383.6894
 -22360451.75647 -17270610.93746  18228786.5684   18228785.4434
      2596.6094       2023.3324
  -5542234.53845  -2369171.60245  20698045.9284   20698044.8034
      1143.2194        890.8204
 96  8 31 18 32 59.9900000  0  7G26G28G 6G21G17G23G22
 -17254989.92347  -1965329.61446  19094748.5064   19094746.8074
      1161.7504        905.2604
 -20219630.372 6 -15755552.096 6  18516217.764    18516219.607
      3389.625        2641.266
 -23176451.41847 -18059571.30547  17929442.5924   17929441.0224
      -836.8124       -652.0624
  -3469850.23945  -2648199.47244  21044878.8974   21044879.0614
      4060.6884       3164.1724
 -37844197.46347 -29370859.65947  17751533.7404   17751532.4044
      1770.3444       1379.4894
 -22438199.88147 -17331193.88046  18213991.3504   18213990.1314
      2585.3594       2014.5664
  -5576332.73445  -2395741.64045  20691557.6394   20691557.0764
      1128.5784        879.4124
 96  8 31 18 33 29.9900000  0  7G26G28G 6G21G17G23G22
 -17289552.85747  -1992261.76746  19088171.3654   19088169.9124
      1142.0314        889.8944
 -20321143.465 6 -15834653.206 6  18496900.455    18496902.232
      3377.438        2631.769
 -23151120.15547 -18039832.67847  17934263.2724   17934261.5374
      -852.3444       -664.1644
  -3591597.12045  -2743067.11145  21021709.6934   21021709.0254
      4055.2504       3159.9354
 -37897204.84347 -29412164.11647  17741446.6704   17741445.4404
      1763.0004       1373.7664
 -22515580.13347 -17391490.16546  18199266.5684   18199265.2444
      2572.8284       2004.8014
  -5609952.52745  -2421938.90445  20685161.1234   20685159.5534
      1112.2504        866.6884
 96  8 31 18 33 59.9900000  0  7G26G28G 6G21G17G23G22
 -17323526.84346  -2018735.00246  19081706.4824   19081704.8304
      1122.7974        874.9074
 -20422284.922 6 -15913464.726 6  18477653.799    18477655.662
      3365.125        2622.175
 -23125319.38547 -18019728.20347  17939172.9754   17939171.3464
      -867.9534       -676.3274
  -3713170.48045  -2837799.54244  20998575.8734   20998576.1194
      4049.3754       3155.3574
 -37949988.01747 -29453293.86147  17731402.7094   17731401.4904
      1755.5314       1367.9464
 -22592574.62447 -17451485.86146  18184614.9984   18184613.8034
      2559.9224       1994.7444
  -5643066.65645  -2447742.12145  20678859.5294   20678858.1114
      1094.9694        853.2224
 96  8 31 18 34 29.9900000  0  7G26G28G 6G21G17G23G22
 -17356919.66547  -2044755.38946  19075351.8184   19075350.0844
      1103.1724        859.6144
 -20523048.958 6 -15991982.150 6  18458479.170    18458480.943
      3352.266        2612.155
 -23099039.63647 -17999250.49847  17944173.9124   17944172.2484
      -884.3124       -689.0754
  -3834551.51045  -2932382.11845  20975477.7724   20975478.1474
      4042.5944       3150.0734
 -38002530.92347 -29494236.38347  17721403.9594   17721402.8814
      1747.1254       1361.3964
 -22669173.88247 -17511173.57746  18170038.7874   18170037.7214
      2546.4694       1984.2614
  -5675646.93145  -2473129.36445  20672659.9364   20672658.9044
      1076.8914        839.1364
 96  8 31 18 34 59.9900000  0  7G26G28G 6G21G17G23G22
 -17389728.20547  -2070320.48446  19069108.3424   19069106.7954
      1084.0634        844.7244
 -20623424.906 6 -16070197.168 6  18439378.256    18439380.061
      3339.422        2602.147
 -23072265.54647 -17978387.60247  17949268.8814   17949267.1234
      -900.7974       -701.9204
  -3955730.86545  -3026807.54245  20952418.2174   20952418.2054
      4036.0634       3144.9844
 -38054817.60547 -29534979.25447  17711454.1784   17711453.0414
      1738.7664       1354.8824
 -22745369.01147 -17570546.39346  18155539.2404   18155538.1274
      2533.3444       1974.0344
  -5707684.51645  -2498093.72545  20666564.7174   20666563.5104
      1058.8444        825.0734
 96  8 31 18 35 29.9900000  0  7G26G28G 6G21G17G23G22
 -17421952.21946  -2095430.10746  19062976.4434   19062975.0374
      1064.1414        829.2004
 -20723402.730 6 -16148101.966 6  18420353.068    18420354.920
      3325.719        2591.469
 -23044979.50947 -17957125.77747  17954461.1004   17954459.5884
      -918.2504       -715.5194
  -4076708.56145  -3121075.84045  20929397.6004   20929397.0024
      4029.1724       3139.6144
 -38106847.98647 -29575522.40347  17701552.9984   17701551.6974
      1729.9384       1348.0034
 -22821161.11147 -17629605.15646  18141116.4594   18141115.4044
      2519.3284       1963.1134
  -5739160.09145  -2522620.18345  20660573.8974   20660572.0454
      1039.5474        810.0374
 96  8 31 18 35 59.9900000  0  7G26G28G 6G21G17G23G22
 -17453592.66247  -2120084.99946  19056955.6314   19056953.8974
      1045.2814        814.5054
 -20822987.297 6 -16225700.322 6  18401402.842    18401404.600
      3313.422        2581.887
 -23017198.09647 -17935477.94447  17959747.8814   17959746.2294
      -933.6414       -727.5124
  -4197504.81745  -3215202.74945  20906409.8034   20906410.7054
      4024.0784       3135.6454
 -38158640.76547 -29615880.41847  17691697.0844   17691695.7954
      1723.0474       1342.6344
 -22896553.30547 -17688352.31546  18126769.8574   18126768.7914
      2507.1564       1953.6284
  -5770081.39345  -2546714.70645  20654689.9204   20654689.0764
      1022.2194        796.5344
 96  8 31 18 36 29.9900000  0  7G26G28G 6G21G17G23G22
 -17484647.44247  -2144283.52546  19051046.1624   19051044.4404
      1024.8594        798.5924
 -20922191.006 6 -16303001.912 6  18382524.967    18382526.717
      3299.938        2571.380
 -22988944.37547 -17913462.07747  17965124.2324   17965122.5224
      -950.0474       -740.2964
  -4318138.04545  -3309202.62145  20883453.9754   20883453.8694
      4018.0634       3130.9584
 -38210215.78547 -29656068.74847  17681882.7644   17681881.5684
      1715.1254       1336.4614
 -22971577.70047 -17746812.86646  18112493.0224   18112492.0494
      2494.2344       1943.5594
  -5800485.93045  -2570406.57045  20648904.2874   20648903.5374
      1004.7194        782.8984
 96  8 31 18 36 59.9900000  0  7G26G28G 6G21G17G23G22
 -17515085.59846  -2168001.57646  19045253.7564   19045252.0924
      1004.5474        782.7644
 -21020983.687 6 -16379983.218 6  18363725.365    18363727.107
      3286.438        2560.860
 -22960198.24447 -17891062.51747  17970594.3814   17970592.6704
      -966.0314       -752.7524
  -4438589.38145  -3403060.75045  20860532.9514   20860532.7054
      4012.1414       3126.3434
 -38261545.42247 -29696065.87047  17672115.1394   17672113.8504
      1707.0164       1330.1424
 -23046196.69347 -17804957.52546  18098293.6624   18098292.4434
      2480.5474       1932.8944
  -5830368.20945  -2593691.45844  20643217.3034   20643216.4004
       987.5474        769.5174
 96  8 31 18 37 29.9900000  0  7G26G28G 6G21G17G23G22
 -17544908.18646  -2191239.95846  19039578.7254   19039577.1904
       983.8444        766.6314
 -21119369.662 6 -16456647.608 6  18345003.092    18345004.811
      3272.781        2550.219
 -22930978.37047 -17868293.80747  17976154.8734   17976153.1744
      -981.6874       -764.9514
  -4558856.43145  -3496775.29745  20837646.9594   20837646.9244
      4005.6724       3121.3034
 -38312626.06847 -29735868.97047  17662394.9514   17662393.8384
      1698.5784       1323.5674
 -23120400.57747 -17862778.72046  18084172.9824   18084171.9864
      2466.3754       1921.8514
  -5859735.01545  -2616574.70645  20637628.8894   20637627.8934
       970.5784        756.2954
 96  8 31 18 37 59.9900000  0  7G26G28G 6G21G17G23G22
 -17574114.58446  -2213998.18846  19034020.9514   19034019.5454
       963.3284        750.6454
 -21217352.595 6 -16532997.943 6  18326357.592    18326359.209
      3259.500        2539.870
 -22901297.45347 -17845165.84947  17981803.0684   17981801.4164
      -997.0474       -776.9204
  -4678925.86245  -3590335.85745  20814797.9984   20814797.6704
      3999.0784       3116.1654
 -38363464.74047 -29775483.52547  17652720.5614   17652719.4004
      1690.7814       1317.4924
 -23194183.34047 -17920271.77246  18070132.6154   18070131.2684
      2452.4844       1911.0274
  -5888615.59045  -2639079.08445  20632132.9594   20632132.6784
       954.8444        744.0344
 96  8 31 18 38 29.9900000  0  7G26G28G 6G21G17G23G22
 -17602706.28547  -2236277.43546  19028580.3504   19028578.6154
       942.7664        734.6234
 -21314934.172 6 -16609035.527 6  18307788.412    18307790.045
      3245.734        2529.144
 -22871144.85547 -17821670.34647  17987540.8114   17987539.1584
     -1013.2344       -789.5334
  -4798794.16645  -3683739.69445  20791988.0844   20791987.8384
      3992.0634       3110.6984
 -38414068.53947 -29814915.05847  17643090.6544   17643089.4594
      1682.6884       1311.1854
 -23267535.75547 -17977429.48846  18056174.3264   18056172.8504
      2437.3754       1899.2534
  -5917012.36745  -2661206.45745  20626729.9984   20626728.5804
       937.9384        730.8604
 96  8 31 18 38 59.9900000  0  7G26G28G 6G21G17G23G22
 -17630684.68547  -2258078.78946  19023256.2014   19023254.7724
       922.2344        718.6244
 -21412099.227 6 -16684748.552 6  18289298.557    18289300.240
      3231.813        2518.295
 -22840509.77547 -17797798.87347  17993370.5454   17993368.7994
     -1029.2034       -801.9764
  -4918450.67245  -3776978.50145  20769217.5144   20769216.6114
      3984.9384       3105.1464
 -38464425.32347 -29854154.11447  17633508.3974   17633507.2254
      1674.4224       1304.7444
 -23340431.52647 -18034231.37446  18042302.4204   18042301.1074
      2422.4384       1887.6144
  -5944893.38045                  20621424.2174
       920.5474
 96  8 31 18 39 29.9900000  0  7G26G28G 6G21G17G23G22
 -17658046.20946  -2279399.46246  19018049.2484   19018047.7134
       901.8134        702.7114
 -21508855.165 6 -16760142.785 6  18270886.576    18270888.154
      3218.453        2507.886
 -22809405.01447 -17773561.41247  17999289.3734   17999287.6624
     -1044.6414       -814.0064
  -5037900.66845  -3870056.37445  20746487.8184   20746488.7914
      3978.2194       3099.9114
 -38514551.72547 -29893213.64947  17623969.6004   17623968.3114
      1667.3444       1299.2294
 -23412910.66647 -18090708.61346  18028510.2254   18028509.1824
      2409.4224       1877.4724
  -5972255.03045                  20616217.3114
       903.5634
 96  8 31 18 39 59.9900000  0  7G26G28G 6G21G17G23G22
 -17684797.12947  -2300244.33846  19012958.9364   19012957.2014
       881.9844        687.2614
 -21605205.743 6 -16835221.151 6  18252551.654    18252553.240
      3205.172        2497.537
 -22777827.43547 -17748955.54047  18005298.4904   18005296.7684
     -1060.2504       -826.1694
  -5157150.14245  -3962978.00945  20723794.8034   20723795.0254
      3972.1094       3095.1504
 -38564463.53247 -29932105.97147  17614471.6864   17614470.4674
      1660.3594       1293.7874
 -23484999.45347 -18146881.68746  18014792.0534   18014790.7404
      2396.8284       1867.6584
  -5999108.46045     -6930.49955  20611107.1934   20611106.3504
       886.8134        691.0234
 96  8 31 18 40 29.9900000  0  7G26G28G 6G21G17G23G22
 -17710960.44346  -2320631.34546  19007980.2014   19007978.5964
       862.4224        672.0174
 -21701150.471 6 -16909983.272 6  18234293.857    18234295.568
      3191.156        2486.615
 -22745782.48947 -17723985.48247  18011396.4514   18011394.9284
     -1076.0164       -838.4544
  -5276216.40945  -4055756.88545  20701136.7874   20701136.7874
      3965.6094       3090.0854
 -38614158.40647 -29970829.25547  17605015.0454   17605013.6744
      1652.5164       1287.6754
 -23556706.14947 -18202757.02446  18001146.8894   18001145.6114
      2383.7194       1857.4434
  -6025444.14045    -27451.83645  20606095.4984   20606094.2684
       869.0474        677.1794
 96  8 31 18 40 59.9900000  0  7G26G28G 6G21G17G23G22
 -17736557.28846  -2340576.94346  19003109.1234   19003107.4944
       843.7034        657.4314
 -21796692.915 6 -16984431.933 6  18216112.752    18216114.498
      3178.109        2476.449
 -22713285.37547 -17698663.08247  18017580.5534   18017579.0294
     -1090.7814       -849.9594
  -5395103.68445  -4148396.28545  20678513.7644   20678513.7644
      3959.9694       3085.6904
 -38663626.14047 -30009375.54347  17595601.7014   17595600.6704
      1645.1414       1281.9284
 -23628041.04347 -18258342.64746  17987572.1544   17987570.9004
      2371.7664       1848.1294
  -6051274.80745    -47579.62645  20601180.2174   20601178.9514
       852.7814        664.5054
 96  8 31 18 41 29.9900000  0  7G26G28G 6G21G17G23G22
 -17761582.92546  -2360077.44946  18998346.9434   18998345.1274
       824.9384        642.8084
 -21891829.889 6 -17058564.630 6  18198008.768    18198010.529
      3164.406        2465.771
 -22680325.59847 -17672980.17047  18023852.4284   18023851.0224
     -1106.5004       -862.2084
  -5513804.30245  -4240890.23045  20655926.5224   20655926.2754
      3953.3914       3080.5644
 -38712862.67647 -30047741.67947  17586232.6074   17586231.5184
      1637.3594       1275.8644
 -23699002.23047 -18313637.06746  17974068.5844   17974067.3894
      2358.8134       1838.0364
  -6076603.46545    -67316.29645  20596360.1864   20596359.2724
       835.9844        651.4164
 96  8 31 18 41 59.9900000  0  7G26G28G 6G21G17G23G22
 -17786061.34846  -2379151.54946  18993688.9434   18993687.5144
       806.5944        628.5154
 -21986557.826 6 -17132378.605 6  18179982.658    18179984.451
      3150.484        2454.923
 -22646897.43947 -17646932.28347  18030213.7874   18030212.2404
     -1122.1414       -874.3954
  -5632313.80945  -4333235.25645  20633374.7174   20633374.9754
      3946.9844       3075.5724
 -38761866.72747 -30085926.65547  17576907.1784   17576905.8774
      1629.2664       1269.5584
 -23769561.57147 -18368618.35546  17960641.5454   17960640.5144
      2344.8754       1827.1754
  -6101438.63645    -86668.36944  20591634.4824   20591633.0414
       819.3594        638.4624
 96  8 31 18 42 29.9900000  0  7G26G28G 6G21G17G23G22
 -17809975.63946  -2397786.06646  18989138.1624   18989136.5804
       787.6414        613.7464
 -22080864.940 6 -17205864.666 6  18162036.619    18162038.381
      3136.844        2444.294
 -22613011.71847 -17620527.85147  18036662.1624   18036660.5804
     -1136.7664       -885.7914
  -5750625.79945  -4425426.38945  20610859.7174   20610859.1664
      3940.5164       3070.5324
 -38810623.23547 -30123918.74447  17567628.9044   17567627.8034
      1621.2344       1263.3004
 -23839702.05847 -18423273.27546  17947294.4594   17947293.2404
      2331.4224       1816.6924
  -6125769.99545   -105627.89445  20587004.7564   20587002.7294
       802.9384        625.6664
 96  8 31 18 42 59.9890000  0  7G26G28G 6G21G17G23G22
 -17833292.81646  -2415955.30746  18984701.2204   18984699.7084
       767.1254        597.7604
 -22174745.311 6 -17279018.193 6  18144171.802    18144173.642
      3122.328        2432.983
 -22578669.65747 -17593767.83447  18043197.2354   18043195.6424
     -1152.4374       -898.0034
  -5868718.26245  -4517446.45145  20588387.3684   20588387.3334
      3932.9534       3064.6394
 -38859120.77047 -30161709.03447  17558400.2434   17558399.0014
      1612.5004       1256.4944
 -23909426.96247 -18477604.35846  17934026.1814   17934024.7864
      2317.3754       1805.7474
  -6149596.23345   -124193.80745  20582470.1424   20582469.9074
       785.7814        612.2974
 96  8 31 18 43 29.9890000  0  7G26G28G 6G21G17G23G22
 -17856020.10146  -2433664.89246  18980376.0644   18980374.6344
       747.7504        582.6624
 -22268214.385 6 -17351851.243 6  18126385.208    18126386.993
      3108.703        2422.366
 -22543881.53047 -17566660.23247  18049817.3374   18049815.8024
     -1167.0314       -909.3754
  -5986613.40245  -4609312.75145  20565953.8214   20565953.9274
      3926.4694       3059.5864
 -38907390.61247 -30199321.89847  17549214.8374   17549213.5834
      1605.2664       1250.8564
 -23978756.98647 -18531627.74146  17920833.1264   17920831.9664
      2304.3284       1795.5804
  -6172934.41145   -142379.40245  20578029.0014   20578027.7124
       769.8914        599.9154
 96  8 31 18 43 59.9890000  0  7G26G28G 6G21G17G23G22
 -17878138.60346  -2450900.08746  18976167.2204   18976165.5564
       726.8284        566.3604
 -22361256.919 6 -17424351.919 6  18108679.778    18108681.618
      3094.250        2411.104
 -22508637.14447 -17539197.10347  18056524.0404   18056522.4824
     -1182.4064       -921.3564
  -6104302.20745  -4701018.28745  20543557.2354   20543556.5914
      3919.6094       3054.2414
 -38955424.02647 -30236750.53247  17540074.2124   17540072.9234
      1597.0164       1244.4284
 -24047681.87747 -18585335.43646  17907717.3374   17907715.9784
      2290.9534       1785.1584
  -6195784.37745   -160184.60245  20573681.0244   20573681.3764
       753.4064        587.0704
 96  8 31 18 44 29.9890000  0  7G26G28G 6G21G17G23G22
 -17899630.15346  -2467646.75946  18972077.5094   18972076.0564
       705.9224        550.0694
 -22453873.126 6 -17496520.386 6  18091055.513    18091057.345
      3080.016        2400.012
 -22472938.97647 -17511380.38047  18063317.2124   18063315.6654
     -1197.7664       -933.3244
  -6221789.85545  -4792567.05945  20521200.7204   20521200.8374
      3912.7504       3048.8964
 -39003218.05747 -30273992.63847  17530979.5244   17530978.3994
      1589.1884       1238.3284
 -24116222.93947 -18638744.04546  17894674.3684   17894672.9504
      2278.3444       1775.3334
  -6218140.58145   -177605.06145  20569427.2984   20569425.6814
       736.8444        574.1644
 96  8 31 18 44 59.9890000  0  7G26G28G 6G21G17G23G22
 -17920514.94246  -2483920.62446  18968103.0644   18968101.6344
       686.4844        534.9234
 -22546069.229 6 -17568361.502 6  18073511.243    18073512.978
      3066.391        2389.395
 -22436780.47647 -17483204.95746  18070197.7594   18070196.1184
     -1212.6564       -944.9274
  -6339083.04245  -4883964.31545  20498881.0644   20498880.8644
      3907.0474       3044.4524
 -39050796.24447 -30311066.54847  17521925.6574   17521924.4624
      1582.8754       1233.4094
 -24184392.23447 -18691862.96246  17881702.1344   17881700.9034
      2266.3754       1766.0064
  -6240011.93845   -194647.67345  20565265.3844   20565264.5404
       721.2664        562.0254
 96  8 31 18 45 29.9890000  0  7G26G28G 6G21G17G23G22
 -17940807.24546  -2499732.81846  18964241.5794   18964240.2784
       666.2034        519.1194
 -22637844.647 6 -17639874.814 6  18056046.962    18056048.728
      3051.891        2378.097
 -22400169.10547 -17454676.64846  18077165.0564   18077163.4034
     -1228.2504       -957.0784
  -6456204.27645  -4975227.56945  20476592.3144   20476592.1144
      3900.8594       3039.6314
 -39098175.56647 -30347985.50247  17512909.6894   17512908.3644
      1575.5474       1227.6994
 -24252196.62247 -18744697.54246  17868799.3064   17868798.0404
      2253.8754       1756.2664
  -6261404.88545   -211317.52745  20561194.5714   20561193.1184
       704.8134        549.2054
 96  8 31 18 45 59.9890000  0  7G26G28G 6G21G17G23G22
 -17960484.17146  -2515065.49746  18960497.5954   18960496.1894
       646.0004        503.3774
 -22729182.297 6 -17711047.007 6  18038665.884    18038667.743
      3037.547        2366.920
 -22363090.62047 -17425784.36046  18084220.8374   18084219.2904
     -1243.1724       -968.7054
  -6573130.23145  -5066338.67945  20454342.0714   20454341.8724
      3894.5164       3034.6884
 -39145327.40347 -30384727.19947  17503937.1894   17503935.9704
      1568.2034       1221.9764
 -24319628.02147 -18797241.47846  17855967.4154   17855966.3024
      2241.8594       1746.9034
  -6282299.27145   -227598.88645  20557217.4314   20557216.9034
       688.3754        536.3964
 96  8 31 18 46 29.9890000  0  7G26G28G 6G21G17G23G22
 -17979554.12346  -2529925.20946  18956868.3924   18956866.8214
       625.9384        487.7444
 -22820076.915 6 -17781873.978 6  18021369.325    18021371.048
      3022.563        2355.244
 -22325565.82547 -17396544.29846  18091361.4154   18091359.8104
     -1257.9694       -980.2354
  -6689851.79845  -5157290.51445  20432130.5644   20432130.4824
      3887.4694       3029.1964
 -39192248.81047 -30421289.33247  17495008.0714   17495006.8294
      1560.3594       1215.8644
 -24386683.41947 -18849492.42446  17843207.3994   17843206.3804
      2228.8914       1736.7984
  -6302687.20645   -243485.59145  20553338.7824   20553338.4194
       671.3594        523.1374
 96  8 31 18 46 59.9890000  0  7G26G28G 6G21G17G23G22
 -17998041.64346  -2544331.06546  18953350.6894   18953349.1074
       606.6094        472.6834
 -22910537.337 6 -17852362.620 6  18004155.239    18004156.985
      3008.266        2344.103
 -22287615.92147 -17366972.97446  18098583.0094   18098581.3574
     -1271.8284       -991.0354
  -6806380.33645  -5248091.93845  20409956.2204   20409955.9274
      3881.3134       3024.3994
 -39238949.87547 -30457679.77647  17486121.1104   17486119.9394
      1553.1724       1210.2644
 -24453357.05647 -18901445.89646  17830519.6344   17830518.5324
      2216.1724       1726.8874
  -6322587.17345   -258992.09245  20549550.9394   20549550.4464
       655.5634        510.8284
 96  8 31 18 47 29.9890000  0  7G26G28G 6G21G17G23G22
 -18015939.11646  -2558277.16146  18949944.8994   18949943.5754
       586.5944        457.0864
 -23000561.931 6 -17922511.647 6  17987024.079    17987025.915
      2993.328        2332.463
 -22249246.60947 -17337074.84346  18105884.3844   18105882.7084
     -1286.2034      -1002.2364
  -6922714.40545  -5338741.83145  20387818.9314   20387818.6494
      3874.0314       3018.7264
 -39285420.60047 -30493890.73247  17477277.9934   17477276.6924
      1544.7974       1203.7384
 -24519637.22847 -18953092.77446  17817906.6894   17817905.8454
      2202.2814       1716.0634
  -6342011.39245   -274127.85845  20545855.2434   20545854.9154
       639.4224        498.2514
 96  8 31 18 47 59.9890000  0  7G26G28G 6G21G17G23G22
 -18033263.03046  -2571776.32246  18946647.9464   18946646.3174
       568.1094        442.6834
 -23090156.089 6 -17992325.277 6  17969974.931    17969976.735
      2979.281        2321.518
 -22210469.88447 -17306859.24946  18113263.4624   18113261.9624
     -1299.1414      -1012.3174
  -7038836.82746  -5429226.79245  20365721.4704   20365721.0134
      3867.2814       3013.4664
 -39331665.45647 -30529925.68947  17468478.1264   17468476.9894
      1537.8754       1198.3444
 -24585510.88247 -19004422.88446  17805371.6574   17805370.3574
      2188.9064       1705.6414
  -6360967.72445   -288899.07045  20542247.1104   20542245.9974
       624.0164        486.2464
 96  8 31 18 48 29.9890000  0  7G26G28G 6G21G17G23G22
 -18050035.77346  -2584846.00146  18943456.3604   18943454.7784
       549.7344        428.3644
 -23179324.772 6 -18061807.368 6  17953006.708    17953008.540
      2964.984        2310.377
 -22171300.06847 -17276337.35346  18120717.6034   18120715.7984
     -1312.6254      -1022.8254
  -7154761.63046  -5519557.77945  20343662.4154   20343662.2984
      3860.7504       3008.3774
 -39377697.71047 -30565794.98247  17459718.4934   17459717.2634
      1530.6094       1192.6834
 -24650978.18947 -19055436.36546  17792913.6574   17792912.5444
      2175.1884       1694.9514
  -6379459.81945   -303308.51045  20538728.9154   20538727.3924
       608.5634        474.2054
 96  8 31 18 48 59.9890000  0  7G26G28G 6G21G17G23G22
 -18066237.20247  -2597470.49746  18940373.1494   18940371.6264
       530.4694        413.3524
 -23268048.716 6 -18130942.908 6  17936122.993    17936124.931
      2950.063        2298.750
 -22131704.10047 -17245483.38146  18128252.1034   18128250.4854
     -1326.9224      -1033.9654
  -7270478.07846  -5609726.40145  20321641.8294   20321641.4784
      3853.7664       3002.9344
 -39423499.97947 -30601485.06647  17451002.5014   17451001.3414
      1523.0314       1186.7784
 -24716018.97547 -19106117.48646  17780536.5954   17780535.1894
      2161.0784       1683.9574
  -6397482.31945   -317352.05945  20535299.6734   20535298.7594
       593.0944        462.1514
 96  8 31 18 49 29.9890000  0  7G26G28G 6G21G17G23G22
 -18081872.16446  -2609653.59146  18937398.0324   18937396.5564
       512.1094        399.0464
 -23356331.429 6 -18199734.632 6  17919323.462    17919325.274
      2935.656        2287.524
 -22091691.60047 -17214304.83546  18135866.4934   18135865.0284
     -1340.3914      -1044.4604
  -7385990.35945  -5699735.93945  20299660.3294   20299660.1534
      3847.2664       2997.8694
 -39469076.49547 -30636999.23647  17442329.5174   17442328.4154
      1515.5944       1180.9824
 -24780653.84047 -19156482.30846  17768236.9624   17768235.9314
      2148.1254       1673.8644
  -6415038.81945   -331032.45545  20531959.0244   20531958.1344
       577.3444        449.8784
 96  8 31 18 49 59.9890000  0  7G26G28G 6G21G17G23G22
 -18096951.87646  -2621404.02546  18934528.4854   18934526.9154
       493.0164        384.1684
 -23444177.024 6 -18268185.743 6  17902607.013    17902608.829
      2920.625        2275.812
 -22051267.55447 -17182805.61046  18143559.0174   18143557.3064
     -1354.6564      -1055.5764
  -7501313.28046  -5789597.91545  20277715.4154   20277715.1574
      3841.0164       2992.9994
 -39514429.60247 -30672339.32447  17433699.2434   17433698.1074
      1507.7664       1174.8824
 -24844904.81247 -19206547.99446  17756010.2514   17756009.1264
      2135.2194       1663.8074
  -6432110.22445   -344334.87945  20528709.9544   20528710.3174
       560.6724        436.8874
 96  8 31 18 50 29.9890000  0  7G26G28G 6G21G17G23G22
 -18111455.89646  -2632705.86446  18931768.5324   18931766.8454
       473.5314        368.9854
 -23531579.681 6 -18336291.709 6  17885974.747    17885976.618
      2905.922        2264.355
 -22010416.39047 -17150973.56446  18151332.6104   18151331.4034
     -1369.1094      -1066.8384
  -7616463.65046  -5879325.44645  20255803.3294   20255803.3994
      3835.3594       2988.5924
 -39559546.56547 -30707495.40147  17425113.4934   17425112.2744
      1499.7504       1168.6364
 -24908778.26847 -19256319.51046  17743855.8534   17743854.5054
      2122.6724       1654.0304
  -6448694.51145   -357257.71545  20525554.0404   20525553.3724
       544.6884        424.4324
 96  8 31 18 50 59.9890000  0  7G26G28G 6G21G17G23G22
 -18125366.31346  -2643545.15546  18929121.5714   18929119.8254
       453.3444        353.2554
 -23618538.818 6 -18404052.072 6  17869426.931    17869428.806
      2890.906        2252.654
 -21969129.91347 -17118802.31646  18159188.9154   18159187.2514
     -1383.7664      -1078.2594
  -7731443.20246  -5968919.87045  20233922.5874   20233922.3764
      3829.4224       2983.9654
 -39604422.76847 -30742463.87947  17416573.8844   17416572.6774
      1491.5004       1162.2084
 -24972276.39047 -19305798.55746  17731772.8764   17731771.6694
      2110.2194       1644.3264
  -6464794.68245   -369803.35045  20522490.3684   20522490.0174
       528.0474        411.4654
 96  8 31 18 51 29.9890000  0  7G26G28G 6G21G17G23G22
 -18138677.53446  -2653917.54346  18926588.3374   18926586.5214
       433.5474        337.8294
 -23705048.997 6 -18471462.598 6  17852964.739    17852966.431
      2875.953        2241.002
 -21927402.81447 -17086287.72646  18167129.6184   18167128.2474
     -1398.6094      -1089.8254
  -7846243.76746  -6058374.84145  20212076.8064   20212076.4784
      3823.4224       2979.2904
 -39649046.59147 -30777235.69347  17408082.5874   17408081.2744
      1482.9844       1155.5724
 -25035407.08947 -19354991.29946  17719759.0564   17719757.6494
      2097.9694       1634.7814
  -6480388.74145   -381954.54745  20519522.3454   20519521.0564
       511.1414        398.2914
 96  8 31 18 51 59.9890000  0  7G26G28G 6G21G17G23G22
 -18151390.69146  -2663823.90746  18924169.0874   18924167.6464
       413.7664        322.4154
 -23791108.715 6 -18538522.118 6  17836588.052    17836589.892
      2861.047        2229.387
 -21885222.85147 -17053420.25046  18175156.3374   18175154.5214
     -1413.5944      -1101.5024
  -7960861.79246  -6147687.55445  20190265.8924   20190265.5754
      3817.3134       2974.5294
 -39693421.98547 -30811813.92147  17399638.0564   17399636.8604
      1475.0784       1149.4124
 -25098161.63047 -19403890.93446  17707817.4074   17707816.1654
      2085.3914       1624.9804
  -6495490.74645   -393722.37845  20516649.2354   20516648.5444
       495.5164        386.1164
 96  8 31 18 52 29.9890000  0  7G26G28G 6G21G17G23G22
 -18163515.21546  -2673271.59246  18921862.0324   18921860.5214
       394.6094        307.4884
 -23876720.828 6 -18605232.851 6  17820296.607    17820298.423
      2846.281        2217.881
 -21842599.30247 -17020207.12746  18183267.2984   18183265.5644
     -1428.0944      -1112.8004
  -8075286.75846  -6236849.82645  20168491.7204   20168491.7434
      3810.8754       2969.5134
 -39737557.03347 -30846204.87047  17391239.5484   17391238.2944
      1467.1724       1143.2514
 -25160545.03847 -19452501.37446  17695946.1964   17695944.9424
      2073.4384       1615.6664
  -6510132.74045   -405131.74444  20513862.7984   20513862.7984
       480.5314        374.4404
 96  8 31 18 52 59.9890000  0  7G26G28G 6G21G17G23G22
 -18175063.28346  -2682270.09846  18919664.5174   18919662.7944
       375.4844        292.5854
 -23961878.456 6 -18671589.446 6  17804091.626    17804093.454
      2831.000        2205.974
 -21799539.27647 -16986653.89546  18191461.6344   18191459.9824
     -1442.3124      -1123.8804
  -8189506.73546  -6325852.37845  20146756.7434   20146757.2354
      3803.8594       2964.0464
 -39781450.94647 -30880407.92347  17382886.6894   17382885.3884
      1459.3444       1137.1514
 -25222566.94147 -19500830.12146  17684143.8454   17684142.5564
      2061.4224       1606.3034
  -6524316.82345   -416184.31344  20511164.4154   20511163.8064
       465.2664        362.5454
 96  8 31 18 53 29.9890000  0  7G26G28G 6G21G17G23G22
 -18186060.22146  -2690839.14746  18917571.6894   18917570.0364
       357.5944        278.6444
 -24046589.010 6 -18737597.665 6  17787971.794    17787973.579
      2816.359        2194.566
 -21756070.31747 -16952782.01046  18199733.4544   18199731.8374
     -1455.5474      -1134.1924
  -8303524.49846  -6414697.36745  20125059.7824   20125059.7354
      3797.2664       2958.9084
 -39825129.60047 -30914443.24147  17374574.8454   17374573.7554
      1452.6254       1131.9164
 -25284235.72847 -19548883.70946  17672408.7514   17672407.6734
      2049.8594       1597.2934
  -6538065.78945   -426897.82344  20508546.9234   20508546.3144
       451.4384        351.7694
 96  8 31 18 53 59.9890000  0  7G26G28G 6G21G17G23G22
 -18196500.95846  -2698974.79946  18915585.1494   18915583.5214
       338.3284        263.6324
 -24130849.774 6 -18803255.402 6  17771937.544    17771939.282
      2800.906        2182.524
 -21712202.37247 -16918599.23846  18208081.1574   18208079.5404
     -1468.9844      -1144.6634
  -8417335.45146  -6503381.20245  20103401.6894   20103401.2204
      3790.0314       2953.2714
 -39868598.77247 -30948315.32947  17366303.1494   17366301.8604
      1445.2034       1126.1324
 -25345547.06147 -19596658.76846  17660741.5564   17660740.5484
      2037.5004       1587.6624
  -6551394.33745   -437283.73945  20506011.2594   20506010.7434
       436.9384        340.4714
 96  8 31 18 54 29.9890000  0  7G26G28G 6G21G17G23G22
 -18206364.25346  -2706660.48946  18913708.1344   18913706.4824
       319.2034        248.7304
 -24214644.756 6 -18868550.188 6  17755991.864    17755993.681
      2785.422        2170.459
 -21667936.21647 -16884106.15846  18216504.6964   18216503.2204
     -1482.0474      -1154.8424
  -8530931.59646  -6591897.64245  20081783.8844   20081783.1694
      3783.1254       2947.8904
 -39911838.74847 -30982008.82047  17358074.9704   17358073.8104
      1437.5944       1120.2034
 -25406488.82847 -19644145.85446  17649144.6734   17649143.3964
      2025.2194       1578.0934
  -6564280.25845   -447324.73644  20503559.6574   20503558.3924
       422.1414        328.9414
 96  8 31 18 54 59.9890000  0  7G26G28G 6G21G17G23G22
 -18215653.89146  -2713899.17946  18911940.4074   18911939.0134
       300.1884        233.9124
 -24297981.176 6 -18933487.664 6  17740133.442    17740135.189
      2770.391        2158.746
 -21623290.13747 -16849317.04746  18225000.4234   18224999.0054
     -1494.2974      -1164.3874
  -8644326.48446  -6680257.26445  20060206.7124   20060206.5014
      3776.5314       2942.7524
 -39954866.50347 -31015536.94747  17349886.7284   17349885.5094
      1430.9694       1115.0414
 -25467056.55547 -19691341.47846  17637619.1184   17637617.9354
      2012.6414       1568.2914
  -6576729.64545   -457025.56144  20501189.5954   20501189.7944
       407.8594        317.8134
 96  8 31 18 55 29.9890000  0  7G26G28G 6G21G17G23G22
 -18224370.19446  -2720691.11046  18910281.7044   18910280.2284
       280.5314        218.5964
 -24380859.481 6 -18998068.162 6  17724362.122    17724363.962
      2754.609        2146.449
 -21578260.71847 -16814229.22346  18233569.4784   18233568.0954
     -1507.9694      -1175.0414
  -8757517.32346  -6768457.89245  20038666.2124   20038665.3684
      3769.3444       2937.1514
 -39997678.81647 -31048897.19347  17341739.8844   17341738.7004
      1422.7814       1108.6614
 -25527237.54747 -19738235.74646  17626167.0794   17626165.9664
      1999.2504       1557.8574
  -6588741.68345   -466385.61744  20498903.8144   20498902.5134
       392.6564        305.9664
 96  8 31 18 55 59.9890000  0  7G26G28G 6G21G17G23G22
 -18232488.68746  -2727017.20946  18908736.8924   18908735.3104
       260.6414        203.0974
 -24463262.480 6 -19062278.288 6  17708681.411    17708683.306
      2738.781        2134.115
 -21532818.46947 -16778819.72046  18242216.8454   18242215.4624
     -1521.6874      -1185.7314
  -8870496.84646  -6856493.84845  20017167.6964   20017167.4504
      3762.4384       2931.7694
 -40040235.93047 -31082058.58347  17333641.5244   17333640.4464
      1414.2504       1102.0134
 -25587009.19547 -19784811.05446  17614792.6574   17614791.5324
      1985.3914       1547.0584
  -6600289.65745   -475384.05744  20496706.3844   20496705.2474
       377.0944        293.8394
 96  8 31 18 56 29.9890000  0  7G26G28G 6G21G17G23G22
 -18240011.26446  -2732878.96646  18907305.3764   18907303.2904
       240.9384        187.7444
 -24545178.512 6 -19126108.962 6  17693093.251    17693095.212
      2722.359        2121.319
 -21486949.75347 -16743077.89646  18250945.1964   18250943.9424
     -1536.1414      -1196.9934
  -8983248.28846  -6944352.08945  19995712.1424   19995711.8254
      3754.3914       2925.4994
 -40082529.76447 -31115014.81947  17325593.1894   17325591.9934
      1405.5474       1095.2314
 -25646359.04747 -19831057.68746  17603498.8684   17603497.5674
      1971.3594       1536.1244
  -6611360.83445   -484010.97944  20494600.0794   20494600.6894
       361.0314        281.3234
 96  8 31 18 56 59.9890000  0  7G26G28G 6G21G17G23G22
 -18246953.07846  -2738288.18146  18905984.5014   18905983.0244
       221.2974        172.4394
 -24626614.988 6 -19189565.956 6  17677596.458    17677598.329
      2706.109        2108.657
 -21440659.00947 -16707007.22546  18259754.2514   18259753.1734
     -1550.5164      -1208.1944
  -9095768.51146  -7032030.14545  19974299.8374   19974300.3414
      3746.3444       2919.2294
 -40124577.60347 -31147779.37147  17317591.9624   17317590.7674
      1396.8594       1088.4624
 -25705301.38547 -19876986.77246  17592282.5874   17592281.5324
      1957.6884       1525.4714
  -6621960.23545   -492270.30044  20492583.1264   20492582.2354
       344.9064        268.7584
 96  8 31 18 57 29.9890000  0  7G26G28G 6G21G17G23G22
 -18253310.74346  -2743242.21046  18904774.6964   18904773.1854
       202.6254        157.8904
 -24707561.893 6 -19252641.465 6  17662192.743    17662194.571
      2690.469        2096.469
 -21393934.80447 -16670598.79846  18268645.5644   18268644.2514
     -1564.1724      -1218.8354
  -9208052.89546  -7119524.44345  19952933.0954   19952932.7554
      3739.4384       2913.8474
 -40166354.73247 -31180332.98347  17309641.9854   17309640.7674
      1388.5634       1081.9974
 -25763842.52647 -19922603.23746  17581142.4394   17581141.2674
      1945.2194       1515.7554
  -6632070.82745   -500148.70944  20490658.5174   20490658.0364
       329.3284        256.6194
 96  8 31 18 57 59.9890000  0  7G26G28G 6G21G17G23G22
 -18259108.69346  -2747760.09746  18903671.0954   18903669.3844
       184.2664        143.5844
 -24788035.352 6 -19315348.049 6  17646879.290    17646881.056
      2674.656        2084.148
 -21346809.98847 -16633878.19846  18277613.3294   18277612.0054
     -1577.1874      -1228.9774
  -9320121.91046  -7206850.91845  19931606.9624   19931606.8214
      3732.0474       2908.0884
 -40207894.29547 -31212701.47947  17301737.3604   17301736.0134
      1381.0474       1076.1404
 -25822007.21947 -19967926.36546  17570074.2354   17570072.9584
      1932.8914       1506.1494
  -6641718.40245   -507666.30844  20488823.6034   20488823.4274
       314.1724        244.8094
 96  8 31 18 58 29.9890000  0  7G26G28G 6G21G17G23G22
 -18264362.36646  -2751853.88146  18902671.3064   18902669.9824
       165.8914        129.2654
 -24868030.322 6 -19377681.795 6  17631656.646    17631658.548
      2658.219        2071.339
 -21299290.72547 -16596850.23946  18286656.0244   18286654.5954
     -1590.7504      -1239.5454
  -9431965.79646  -7294001.97145  19910323.7284   19910323.2004
      3724.2814       2902.0374
 -40249208.90047 -31244894.67847  17293875.2594   17293874.1464
      1373.1094       1069.9554
 -25879813.09747 -20012969.90046  17559073.8144   17559072.7354
      1920.6254       1496.5914
  -6650915.47745   -514832.88744  20487072.3604   20487071.5404
       298.9224        232.9264
 96  8 31 18 58 59.9890000  0  7G26G28G 6G21G17G23G22
 -18269068.74746  -2755521.19346  18901775.9464   18901774.4464
       147.6724        115.0694
 -24947536.864 6 -19439634.943 6  17616527.048    17616528.868
      2641.891        2058.616
 -21251376.72147 -16559514.69646  18295773.5794   18295772.2324
     -1603.8914      -1249.7854
  -9543593.52446  -7380984.57945  19889081.6344   19889081.2124
      3717.2814       2896.5834
 -40290279.58647 -31276897.81347  17286059.9234   17286058.8334
      1364.5944       1063.3204
 -25937249.98447 -20057725.90946  17548144.0324   17548142.7674
      1908.2664       1486.9604
  -6659667.27145   -521652.48944  20485407.8924   20485407.3174
       284.2664        221.5064
 96  8 31 18 59 29.9890000  0  7G26G28G 6G21G17G23G22
 -18273228.76946  -2758762.77846  18900984.1654   18900982.6074
       129.7034        101.0674
 -25026547.322 6 -19501201.533 6  17601491.896    17601493.743
      2625.594        2045.917
 -21203060.77447 -16521865.94246  18304967.9624   18304966.5094
     -1617.0474      -1260.0374
  -9655008.55946  -7467801.46645  19867880.6184   19867880.2324
      3710.3914       2891.2134
 -40331096.63647 -31308703.30947  17278292.7354   17278291.4114
      1356.8284       1057.2694
 -25994308.76247 -20102187.28946  17537286.2824   17537285.1344
      1895.7194       1477.1834
  -6667979.18845   -528129.34644  20483826.3684   20483827.0834
       270.0944        210.4634
 96  8 31 18 59 59.9890000  0  7G26G28G 6G21G17G23G22
 -18276833.36746  -2761571.56446  18900298.2824   18900296.9354
       110.8284         86.3604
 -25105060.209 6 -19562380.406 6  17586551.360    17586553.235
      2608.906        2032.914
 -21154336.81847 -16483899.26446  18314240.0244   18314238.5714
     -1631.0624      -1270.9584
  -9766198.31946  -7554442.81345  19846721.0954   19846720.8604
      3702.6414       2885.1754
 -40371675.77347 -31340323.41947  17270571.0014   17270569.8534
      1348.6564       1050.9014
 -26050977.44047 -20146344.69546  17526502.5714   17526501.2944
      1882.4844       1466.8714
  -6675864.63645   -534273.87944  20482324.8214   20482324.6924
       255.8134        199.3344
 96  8 31 19  0 29.9890000  0  7G26G28G 6G21G17G23G22
 -18279872.96946  -2763940.09046  18899719.8064   18899718.2824
        91.7194         71.4694
 -25183083.353 6 -19623177.662 6  17571704.103    17571705.923
      2592.625        2020.227
 -21105197.22747 -16445608.71646  18323590.9784   18323589.2784
     -1644.7814      -1281.6484
  -9877172.22046  -7640915.96245  19825603.5714   19825603.2904
      3695.6724       2879.7444
 -40412017.01747 -31371758.16147  17262894.1104   17262892.8804
      1340.8134       1044.7894
 -26107253.79347 -20190196.39346  17515793.4464   17515792.2864
      1869.1564       1456.4854
  -6683323.42345   -540085.94344  20480905.5324   20480906.4464
       241.4064        188.1094
 96  8 31 19  0 59.9890000  0  7G26G28G 6G21G17G23G22
 -18282326.25546  -2765851.74746  18899253.1574   18899251.7634
        71.8914         56.0194
 -25260612.702 6 -19683590.142 6  17556950.735    17556952.517
      2576.094        2007.346
 -21055647.58947 -16406998.64546  18333019.8844   18333018.4784
     -1658.4374      -1292.2894
  -9987930.41946  -7727221.03245  19804527.4234   19804526.9894
      3688.2504       2873.9614
 -40452117.85147 -31403005.56747  17255262.9854   17255261.8024
      1332.7974       1038.5434
 -26163120.40847 -20233728.81246  17505162.3684   17505161.1854
      1855.5944       1445.9174
  -6690335.03445   -545549.57344  20479572.3764   20479571.6614
       225.9694        176.0804
 96  8 31 19  1 29.9890000  0  7G26G28G 6G21G17G23G22
 -18284182.17346  -2767297.92046  18898899.8764   18898898.1894
        51.7034         40.2884
 -25337647.956 6 -19743617.617 6  17542291.380    17542293.243
      2559.484        1994.403
 -21005694.07947 -16368073.87746  18342525.7984   18342524.3684
     -1671.7814      -1302.6874
 -10098469.31346  -7813355.21145  19783492.4234   19783492.0714
      3680.8284       2868.1784
 -40491987.78747 -31434073.05247  17247676.3144   17247675.0604
      1324.9844       1032.4554
 -26218587.48047 -20276949.89946  17494607.2434   17494606.1074
      1842.1724       1435.4594
  -6696883.10145   -550651.99944  20478326.3064   20478326.9974
       210.5314        164.0504
 96  8 31 19  1 59.9890000  0  7G26G28G 6G21G17G23G22
 -18285439.26946  -2768277.48546  18898660.9234   18898659.4354
        31.9534         24.8994
 -25414185.868 6 -19803257.549 6  17527726.782    17527728.501
      2542.844        1981.437
 -20955350.89947 -16328845.46646  18352105.4704   18352104.1924
     -1684.5474      -1312.6344
 -10208787.38346  -7899317.32645  19762499.3374   19762498.7514
      3673.5784       2862.5284
 -40531616.01047 -31464952.19247  17240135.3144   17240134.0714
      1316.5944       1025.9174
 -26273663.25047 -20319866.07946  17484126.6574   17484125.2164
      1829.4384       1425.5364
  -6702967.14945   -555392.83044  20477168.0174   20477168.7204
       194.7194        151.7294
 96  8 31 19  2 29.9890000  0  7G26G28G 6G21G17G23G22
 -18286123.80046  -2768810.89046  18898530.4464   18898528.8764
        13.2974         10.3614
 -25490232.311 6 -19862514.508 6  17513255.575    17513257.399
      2526.453        1968.665
 -20904644.15847 -16289333.77046  18361754.6964   18361753.5014
     -1696.2344      -1321.7414
 -10318902.71746  -7985121.46345  19741544.8064   19741544.8174
      3666.8914       2857.3174
 -40570997.53447 -31495639.09647  17232641.2904   17232640.1894
      1308.4384       1019.5624
 -26328374.54047 -20362498.24946  17473715.4234   17473714.0174
      1817.6094       1416.3194
  -6708582.61545   -559768.54843  20476099.9704   20476098.7634
       179.3754        139.7734
 96  8 31 19  2 59.9890000  0  7G26G28G 6G21G17G23G22
 -18286257.70946  -2768915.24646  18898505.1104   18898503.3884
        -4.1564         -3.2394
 -25565785.296 6 -19921386.966 6  17498878.290    17498880.235
      2510.563        1956.282
 -20853592.71047 -16249553.45446  18371469.6104   18371468.4974
     -1707.0474      -1330.1664
 -10428809.45246  -8070763.04245  19720630.6104   19720630.2354
      3660.3914       2852.2524
 -40610131.80947 -31526133.34047  17225194.0404   17225192.9504
      1300.7664       1013.5844
 -26382738.85147 -20404860.04646  17463370.3764   17463369.0174
      1806.8914       1407.9674
  -6713745.59745   -563791.66744  20475117.4394   20475116.5954
       165.0314        128.5964
 96  8 31 19  3 29.9890000  0  7G26G28G 6G21G17G23G22
 -18285865.71846  -2768609.79646  18898579.9234   18898578.4704
       -22.3284        -17.3994
 -25640855.355 6 -19979883.117 6  17484592.888    17484594.821
      2493.766        1943.194
 -20802210.99647 -16209515.80346  18381247.3294   18381245.9354
     -1718.7194      -1339.2614
 -10538517.46846  -8156249.79245  19699753.5794   19699753.4154
      3653.0634       2846.5424
 -40649033.71547 -31556446.51947  17217791.3064   17217790.0754
      1292.3754       1007.0454
 -26436774.19247 -20446965.50146  17453087.5794   17453086.2904
      1795.0004       1398.7014
  -6718486.89845   -567486.22544  20474214.8534   20474214.8764
       150.7974        117.5044
 96  8 31 19  3 59.9890000  0  7G26G28G 6G21G17G23G22
 -18284935.67046  -2767885.08946  18898756.4074   18898754.7674
       -40.2974        -31.4004
 -25715427.858 6 -20037991.565 6  17470402.341    17470404.134
      2477.219        1930.300
 -20750485.07547 -16169209.93346  18391090.5714   18391089.4114
     -1730.2344      -1348.2354
 -10648007.89346  -8241566.98245  19678918.6734   19678917.9234
      3645.9064       2840.9664
 -40687693.78247 -31586571.25047  17210434.5324   17210433.3964
      1284.5164       1000.9214
 -26490458.36847 -20488797.32446  17442872.0014   17442870.9824
      1783.2664       1389.5584
  -6722804.31745   -570850.48944  20473393.0794   20473392.8454
       136.6254        106.4614
 96  8 31 19  4 29.9890000  0  7G26G28G 6G21G17G23G22
 -18283460.06346  -2766735.27546  18899037.1814   18899035.8214
       -58.1564        -45.3174
 -25789501.997 6 -20095711.674 6  17456306.407    17456308.290
      2460.984        1917.650
 -20698409.18947 -16128631.36546  18401000.0714   18400998.7594
     -1741.6874      -1357.1594
 -10757285.65646  -8326718.45645  19658123.3144   19658122.4234
      3639.3284       2835.8404
 -40726123.50247 -31616516.49347  17203121.8534   17203120.4704
      1277.5314        995.4794
 -26543776.37347 -20530343.81446  17432725.8214   17432724.7904
      1771.2664       1380.2074
  -6726710.68345   -573894.40844  20472649.7904   20472649.0994
       123.8284         96.4894
 96  8 31 19  4 59.9890000  0  8G26G28G 6G21G 3G17G23G22
 -18281435.04446  -2765157.34246  18899422.7434   18899421.3374
       -76.9064        -59.9274
 -25863079.992 6 -20153045.179 6  17442305.052    17442306.829
      2444.172        1904.550
 -20645975.38646 -16087773.89446  18410977.9784   18410976.7594
     -1753.9534      -1366.7174
 -10866359.96046  -8411711.39945  19637367.5644   19637367.4584
      3632.4844       2830.5074
    -18099.36855                  20871741.8994
      4525.2974
 -40764337.40047 -31646293.55647  17195849.9234   17195848.6694
      1269.9384        989.5624
 -26596727.06947 -20571604.08946  17422649.7824   17422648.5644
      1758.7194       1370.4304
  -6730221.30245   -576630.00644  20471981.8924   20471981.3414
       110.1254         85.8124
 96  8 31 19  5 29.9890000  0  8G26G28G 6G21G 3G17G23G22
 -18278854.57646  -2763146.59646  18899913.9074   18899912.2084
       -95.7194        -74.5864
 -25936165.394 6 -20209994.841 6  17428397.290    17428399.306
      2427.531        1891.583
 -20593179.94946 -16046634.63746  18421024.7434   18421023.7474
     -1766.4694      -1376.4694
 -10975251.84746  -8496562.19445  19616645.7434   19616645.5914
      3626.2814       2825.6744
   -153794.36145                  20845920.3534
      4520.3914
 -40802328.88747 -31675897.32247  17188620.1104   17188618.9504
      1262.1724        983.5114
 -26649311.37347 -20612578.86846  17412643.3294   17412642.0994
      1746.3594       1360.8004
  -6733334.57645   -579055.97344  20471389.5244   20471389.1034
        96.7974         75.4264
 96  8 31 19  5 59.9890000  0  8G26G28G 6G21G 3G17G23G22
 -18275719.86346  -2760703.96846  18900510.4154   18900509.1734
      -113.4694        -88.4174
 -26008756.580 6 -20266559.407 6  17414583.665    17414585.603
      2411.531        1879.115
 -20540009.41546 -16005203.09746  18431142.7824   18431141.3534
     -1778.6094      -1385.9294
 -11083962.52946  -8581271.78645  19595958.8214   19595958.1074
      3620.8594       2821.4494
   -289340.97745    -24631.23453  20820127.5094   20820127.3924
      4515.6254       3518.6694
 -40840088.22947 -31705320.18747  17181434.9234   17181433.8334
      1254.7504        977.7274
 -26701540.23847 -20653276.67646  17402704.5014   17402703.1304
      1735.2504       1352.1434
  -6736051.54945   -581173.12643  20470871.7824   20470872.4854
        84.0784         65.5154
 96  8 31 19  6 29.9890000  0  8G26G28G 6G21G 3G17G23G22
 -18272038.62946  -2757835.48846  18901211.0094   18901209.3454
      -131.8284       -102.7234
 -26080847.515 6 -20322734.168 6  17400865.239    17400866.978
      2394.578        1865.905
 -20486451.31746 -15963469.55146  18441334.5094   18441333.3024
     -1791.9064      -1396.2914
 -11192490.42446  -8665838.95045  19575306.4704   19575306.0714
      3614.2814       2816.3234
   -424719.10145   -130120.66743  20794364.7984   20794363.7084
      4509.6254       3513.9944
 -40877607.83347 -31734556.24947  17174295.1104   17174293.9624
      1246.5314        971.3234
 -26753421.84447 -20693703.90446  17392831.6894   17392830.2474
      1723.6724       1343.1214
  -6738367.64245   -582977.90844  20470431.4314   20470430.9974
        70.2664         54.7524
 96  8 31 19  6 59.9880000  0  8G26G28G 6G21G 3G17G23G22
 -18267814.09746  -2754543.65146  18902014.6134   18902013.0784
      -149.5314       -116.5184
 -26152435.392 6 -20378516.927 6  17387242.531    17387244.410
      2378.297        1853.218
 -20432509.95346 -15921437.36246  18451599.3714   18451598.6454
     -1804.0624      -1405.7634
 -11300820.29346  -8750251.80745  19554691.6994   19554691.1844
      3608.1254       2811.5264
   -559925.29545   -235476.10043  20768636.2934   20768635.3794
      4504.7504       3510.1954
 -40914879.10647 -31763598.80147  17167202.8324   17167201.7314
      1238.3284        964.9314
 -26804965.85047 -20733868.05646  17383023.2074   17383021.9064
      1712.8134       1334.6594
  -6740269.02245   -584459.53344  20470070.2314   20470069.8794
        56.8444         44.2944
 96  8 31 19  7 29.9880000  0  8G26G28G 6G21G 3G17G23G22
 -18263060.52146  -2750839.57646  18902919.2464   18902917.5354
      -167.0624       -130.1794
 -26223534.823 6 -20433919.090 6  17373712.785    17373714.715
      2361.828        1840.386
 -20378201.03346 -15879118.76846  18461933.9964   18461932.8134
     -1816.3914      -1415.3694
 -11408961.66546  -8834517.79145  19534113.7074   19534113.4844
      3601.3754       2806.2664
   -694997.86945   -340727.40643  20742933.0354   20742933.7384
      4500.3284       3506.7494
 -40951903.47447 -31792448.96447  17160157.0904   17160155.9654
      1230.2194        958.6124
 -26856175.79747 -20773771.90846  17373278.2234   17373276.9924
      1701.3444       1325.7224
  -6741775.71445   -585633.62144  20469783.1454   20469782.0784
        43.8284         34.1524
 96  8 31 19  7 59.9880000  0  8G26G28G 6G21G 3G17G23G22
 -18257780.86146  -2746725.56746  18903923.8174   18903922.6684
      -184.9534       -144.1194
 -26294137.436 6 -20488934.110 6  17360277.590    17360279.363
      2345.016        1827.285
 -20323526.85846 -15836515.56346  18472338.2544   18472337.2704
     -1828.4224      -1424.7444
 -11516893.98646  -8918620.87545  19513574.6214   19513573.9184
      3594.1414       2800.6294
   -829941.12245   -445877.97043  20717254.9574   20717254.1024
      4495.9844       3503.3644
 -40988686.75747 -31821111.26847  17153157.5674   17153156.3834
      1222.0164        952.2204
 -26907037.27947 -20813404.22646  17363599.8954   17363598.5244
      1689.4384       1316.4454
  -6742890.91345   -586502.64344  20469571.0354   20469570.9884
        30.5164         23.7784
 96  8 31 19  8 29.9880000  0  8G26G28G 6G21G 3G17G23G22
 -18251955.43646  -2742186.28646  18905032.7074   18905031.4654
      -203.4224       -158.5114
 -26364233.623 6 -20543554.520 6  17346938.660    17346940.465
      2328.063        1814.075
 -20268501.17746 -15793638.45446  18482809.3244   18482808.0704
     -1839.8754      -1433.6694
 -11624604.70546  -9002551.27245  19493078.0674   19493077.4924
      3586.5784       2794.7364
   -964763.33345   -550934.19943  20691597.3244   20691596.4924
      4492.2344       3500.4424
 -41025232.03947 -31849588.11747  17146203.3094   17146202.2544
      1214.2814        946.1934
 -26957537.54547 -20852755.07846  17353989.9494   17353988.7664
      1677.2504       1306.9484
  -6743603.29745   -587057.76844  20469435.8714   20469434.8404
        17.0944         13.3204
 96  8 31 19  8 59.9880000  0  8G26G28G 6G21G 3G17G23G22
 -18245589.65946  -2737225.95146  18906244.0274   18906242.7854
      -220.7194       -171.9894
 -26433828.420 6 -20597784.238 6  17333695.184    17333696.965
      2311.703        1801.327
 -20213147.45646 -15750505.73646  18493342.7934   18493341.6684
     -1850.2814      -1441.7784
 -11732102.56346  -9086315.81345  19472621.5354   19472621.3134
      3580.0944       2789.6834
  -1099481.30545   -655909.22043  20665962.6924   20665960.8174
      4488.9384       3497.8734
 -41061548.12747 -31877886.37747  17139292.5204   17139291.2894
      1207.1254        940.6174
 -27007676.87747 -20891824.68146  17344448.7544   17344447.2544
      1665.5944       1297.8654
  -6743929.51745   -587312.01644  20469374.2314   20469375.5784
         4.8134          3.7504
 96  8 31 19  9 29.9880000  0  8G26G28G 6G21G 3G17G23G22
 -18238714.71846  -2731868.86746  18907552.2154   18907550.5634
      -237.6564       -185.1874
 -26502932.132 6 -20651631.291 6  17320545.258    17320547.027
      2295.188        1788.458
 -20157479.40346 -15707128.08946  18503936.0824   18503934.8634
     -1860.8124      -1449.9844
 -11839405.26046  -9169928.26945  19452202.8564   19452202.4344
      3573.4224       2784.4854
  -1234092.18045   -760800.78943  20640345.8714   20640344.4304
      4485.0784       3494.8664
 -41097666.53747 -31906030.59847  17132419.3014   17132418.0594
      1200.8754        935.7474
 -27057472.88647 -20930626.76246  17334972.8714   17334971.5244
      1654.1884       1288.9774
  -6743886.13745   -587278.24144  20469381.4184   20469381.4884
        -7.7814         -6.0634
 96  8 31 19  9 59.9880000  0  8G26G28G 6G21G 3G17G23G22
 -18231329.25646  -2726113.96946  18908957.6924   18908956.4024
      -254.5004       -198.3124
 -26571539.805 6 -20705091.816 6  17307489.731    17307491.512
      2278.875        1775.747
 -20101502.38946 -15663509.69046  18514588.5204   18514587.5004
     -1870.7034      -1457.6914
 -11946508.11846  -9253385.02345  19431822.3324   19431822.4494
      3566.9224       2779.4204
  -1368578.23945   -865595.06843  20614754.2624   20614753.8994
      4480.7974       3491.5304
 -41133599.54447 -31934030.34947  17125581.6374   17125580.5704
      1194.9224        931.1084
 -27106937.26447 -20969170.42846  17325560.1454   17325558.7624
      1643.7974       1280.8814
  -6743464.09045   -586949.43644  20469462.2544   20469462.6644
       -20.1724        -15.7184
 96  8 31 19 10 29.9880000  0  8G26G28G 6G21G 3G17G23G22
 -18223431.09146  -2719959.56446  18910460.5514   18910459.1334
      -271.8444       -211.8264
 -26639638.923 6 -20758156.073 6  17294530.906    17294532.645
      2261.125        1761.916
 -20045209.04146 -15619644.79246  18525300.6604   18525299.4534
     -1882.1724      -1466.6274
 -12053395.56846  -9336673.92345  19411481.4424   19411480.8794
      3558.9694       2773.2224
  -1502901.53045   -970262.55043  20589194.5434   20589192.6924
      4474.0944       3486.3074
 -41169336.91147 -31961877.65047  17118781.0984   17118779.7974
      1187.4384        925.2764
 -27156071.10747 -21007456.53046  17316210.1064   17316208.7344
      1631.7814       1271.5184
  -6742649.53745   -586314.72844  20469617.5044   20469616.5314
       -33.9064        -26.4204
 96  8 31 19 10 59.9880000  0  8G26G28G 6G21G 3G17G23G22
 -18215030.27246  -2713413.47746  18912059.1684   18912057.6094
      -288.2814       -224.6354
 -26707211.850 6 -20810810.300 6  17281672.203    17281673.918
      2243.750        1748.377
 -19988579.48746 -15575517.92046  18536077.0514   18536075.6334
     -1893.1564      -1475.1874
 -12160054.36646  -9419784.63845  19391185.0984   19391184.9694
      3551.6414       2767.5124
  -1637020.58745  -1074770.86243  20563671.6764   20563670.5514
      4467.1254       3480.8774
 -41204840.35647 -31989542.67647  17112024.9734   17112023.7424
      1179.5944        919.1644
 -27204848.26647 -21045464.70446  17306928.1604   17306926.8484
      1620.1414       1262.4474
  -6741434.15845   -585367.73644  20469848.5904   20469848.3914
       -47.2034        -36.7824
 96  8 31 19 11 29.9880000  0  8G26G28G 6G21G 3G17G23G22
 -18206111.74646  -2706463.99046  18913756.5434   18913755.1024
      -306.6094       -238.9164
 -26774247.267 6 -20863045.690 6  17268915.762    17268917.582
      2225.156        1733.888
 -19931605.48046 -15531122.63946  18546918.6064   18546917.5044
     -1905.0944      -1484.4894
 -12266475.81546  -9502710.42645  19370934.0124   19370933.5554
      3543.1094       2760.8644
  -1770915.38045  -1179104.44343  20538191.8634   20538191.4774
      4459.1724       3474.6794
 -41240092.10247 -32017011.57747  17105316.8174   17105315.5164
      1170.1724        911.8224
 -27253263.55547 -21083190.90046  17297714.8174   17297713.5164
      1607.3444       1252.4764
  -6739803.65645   -584097.24344  20470159.6294   20470159.0784
       -61.5314        -47.9464
 96  8 31 19 11 59.9880000  0  8G26G28G 6G21G 3G17G23G22
 -18196651.41246  -2699092.31146  18915556.5434   18915555.3954
      -324.5004       -252.8574
 -26840740.750 6 -20914858.801 6  17256262.535    17256264.363
      2207.328        1719.996
 -19874297.54146 -15486467.15846  18557824.1454   18557823.0674
     -1915.8594      -1492.8774
 -12372661.91646  -9585452.81145  19350727.7154   19350727.2704
      3535.6094       2755.0204
  -1904585.60745  -1283263.01043  20512755.6064   20512755.8404
      4451.7814       3468.9204
 -41275063.15147 -32044261.75347  17098662.0354   17098660.8284
      1160.8444        904.5544
 -27301307.87047 -21120628.02546  17288572.3794   17288571.0314
      1595.1884       1243.0034
  -6737771.54045   -582513.78144  20470545.6764   20470544.5274
       -74.4224        -57.9914
 96  8 31 19 12 29.9880000  0  8G26G28G 6G21G 3G17G23G22
 -18186639.70146  -2691290.99046  18917461.8634   18917460.3754
      -342.3284       -266.7494
 -26906686.902 6 -20966245.411 6  17243713.309    17243715.254
      2189.781        1706.323
 -19816654.26146 -15441550.36846  18568793.1454   18568791.8564
     -1926.3444      -1501.0474
 -12478617.75246  -9668015.78245  19330564.3634   19330564.0824
      3528.9064       2749.7974
  -2038023.38245  -1387240.45444  20487362.2544   20487363.1564
      4444.8594       3463.5274
 -41309737.73947 -32071280.92047  17092063.7384   17092062.4384
      1151.4384        897.2244
 -27348967.05147 -21157765.04746  17279503.3714   17279501.8954
      1582.7664       1233.3244
  -6735339.69745   -580618.88144  20471007.7624   20471007.0474
       -86.8754        -67.6954
 96  8 31 19 12 59.9880000  0  8G26G28G 6G21G 3G17G23G22
 -18176078.95446  -2683061.84746  18919471.3634   18919469.9224
      -361.9064       -282.0054
 -26972103.030 6 -21017219.021 6  17231265.031    17231266.902
      2171.094        1691.761
 -19758693.99446 -15396386.57446  18579822.5204   18579821.4884
     -1938.0164      -1510.1424
 -12584373.81546  -9750423.08045  19310439.4964   19310439.2974
      3521.3284       2743.8924
  -2171260.48145  -1491061.53444  20462008.1214   20462008.4024
      4437.5944       3457.8654
 -41344123.91747 -32098075.34947  17085520.1524   17085518.8754
      1141.0004        889.0914
 -27396251.43347 -21194610.01946  17270505.4424   17270504.0824
      1569.3754       1222.8904
  -6732537.19845   -578435.14944  20471541.5124   20471541.7234
      -100.2344        -78.1054
 96  8 31 19 13 29.9880000  0  8G26G28G 6G21G 3G17G23G22
 -18164910.14746  -2674358.89246  18921596.9024   18921595.4734
      -382.5784       -298.1134
 -27036937.282 6 -21067739.223 6  17218927.567    17218929.309
      2151.141        1676.213
 -19700352.98046 -15350926.08946  18590924.6294   18590923.4224
     -1951.3594      -1520.5404
 -12689874.85346  -9832631.65245  19290363.8874   19290363.1374
      3512.0314       2736.6484
  -2304266.91645  -1594702.87844  20436698.5274   20436697.6954
      4429.3914       3451.4734
 -41378184.68147 -32124616.20947  17079038.9574   17079037.5744
      1129.6254        880.2274
 -27443113.13247 -21231125.62546  17261587.6924   17261586.1804
      1554.6254       1211.3964
  -6729316.34445   -575925.44044  20472153.8244   20472154.0944
      -114.5314        -89.2454
 96  8 31 19 13 59.9880000  0  8G26G28G 6G21G 3G17G23G22
 -18153201.32146  -2665235.14146  18923824.9344   18923823.5634
      -398.6254       -310.6174
 -27101241.302 6 -21117846.250 6  17206690.918    17206692.629
      2135.031        1663.661
 -19641677.35646 -15305204.87746  18602090.2154   18602089.3134
     -1961.2344      -1528.2354
 -12795164.01146  -9914675.13146  19270327.7544   19270326.7704
      3506.3754       2732.2404
  -2437090.95145  -1698202.07744  20411424.0354   20411423.9884
      4424.9064       3447.9794
 -41411981.75247 -32150951.59847  17072607.1134   17072605.8594
      1122.8914        874.9804
 -27489600.38047 -21267349.45146  17252741.5124   17252740.2464
      1543.9064       1203.0444
  -6725730.91145   -573131.63344  20472837.1524   20472837.4224
      -125.4064        -97.7194
 96  8 31 19 14 29.9880000  0  8G26G28G 6G21G 3G17G23G22
 -18140916.55446  -2655662.61546  18926162.3094   18926160.8094
      -417.0314       -324.9594
 -27164959.888 6 -21167497.116 6  17194565.715    17194567.410
      2116.141        1648.941
 -19582593.33446 -15259165.44146  18613333.6764   18613332.8324
     -1974.4374      -1538.5234
 -12900175.07146  -9996501.90946  19250345.0594   19250344.5314
      3497.6254       2725.4224
  -2569688.81045  -1801525.07144  20386191.9424   20386191.4964
      4418.2344       3442.7804
 -41445476.15547 -32177051.14347  17066233.5274   17066232.2974
      1113.4064        867.5894
 -27535669.43047 -21303247.41946  17243974.9574   17243973.7744
      1530.6254       1192.6954
  -6721709.21245   -569997.89344  20473602.1604   20473601.5864
      -139.3444       -108.5804
 96  8 31 19 14 59.9880000  0  8G26G28G 6G21G 3G17G23G22
 -18128118.20046  -2645689.87946  18928598.2774   18928596.9774
      -436.5944       -340.2034
 -27228145.211 6 -21216732.427 6  17182541.887    17182543.637
      2095.688        1633.003
 -19523149.17846 -15212845.36546  18624645.2464   18624644.2854
     -1989.0164      -1549.8824
 -13004953.36546 -10078147.31245  19230406.0594   19230405.7774
      3486.9384       2717.0944
  -2702121.10345  -1904719.04845  20360988.6134   20360988.6954
      4410.0314       3436.3884
 -41478732.79047 -32202965.41247  17059904.8954   17059903.7934
      1103.3284        859.7364
 -27581377.93447 -21338864.43146  17235277.0824   17235275.6294
      1516.1884       1181.4454
  -6717301.00345   -566562.94144  20474441.1064   20474441.7384
      -155.2344       -120.9624
 96  8 31 19 15 29.9880000  0  8G26G28G 6G21G 3G17G23G22
 -18114806.67246  -2635317.27546  18931131.2774   18931129.6724
      -451.5004       -351.8184
 -27290788.648 6 -21265545.504 6  17170621.227    17170623.051
      2079.891        1620.694
 -19463346.56146 -15166245.97246  18636025.3174   18636024.2744
     -1998.2344      -1557.0664
 -13109475.18346 -10159592.86346  19210516.2624   19210515.7584
      3480.6564       2712.2004
  -2834369.96045  -2007770.07045  20335823.9264   20335822.1214
      4405.7034       3433.0154
 -41511769.80147 -32228708.53847  17053618.4104   17053617.1334
      1098.5004        855.9744
 -27626735.37047 -21374207.88746  17226645.7774   17226644.5704
      1507.1414       1174.3954
  -6712483.46145   -562809.05144  20475357.9424   20475357.3094
      -166.5784       -129.8014
 96  8 31 19 15 59.9880000  0  8G26G28G 6G21G 3G17G23G22
 -18100992.69646  -2624553.14546  18933759.9344   18933758.3404
      -469.7814       -366.0634
 -27352906.212 6 -21313948.806 6  17158800.606    17158802.496
      2061.094        1606.047
 -19403228.01346 -15119400.40346  18647465.7464   18647465.2544
     -2009.8914      -1566.1494
 -13213767.12146 -10240859.28646  19190670.3484   19190669.5394
      3471.9844       2705.4424
  -2966432.56945  -2110675.97345  20310692.6604   20310692.3324
      4398.4224       3427.3424
 -41544611.99947 -32254299.86947  17047368.7384   17047367.4384
      1090.7504        849.9354
 -27671776.42147 -21409304.80746  17218074.7234   17218073.3874
      1495.5474       1165.3614
  -6707273.45845   -558749.36845  20476349.3794   20476348.8874
      -180.9694       -141.0154
 96  8 31 19 16 29.9880000  0  8G26G28G 6G21G 3G17G23G22
 -18086624.58246  -2613357.22746  18936494.1454   18936492.5164
      -488.0474       -380.2964
 -27414457.718 6 -21361911.025 6  17147087.871    17147089.684
      2042.422        1591.498
 -19342761.44846 -15072283.65046  18658972.5514   18658971.5314
     -2021.0164      -1574.8174
 -13317803.82346 -10321926.82646  19170872.5434   19170872.1684
      3463.8444       2699.0994
  -3098273.17245  -2213408.89545  20285604.9964   20285605.2314
      4390.8444       3421.4374
 -41577207.07147 -32279698.63047  17041166.0434   17041164.7074
      1082.3134        843.3604
 -27716466.99647 -21444128.62646  17209570.3794   17209569.1494
      1483.8754       1156.2664
  -6701636.85645   -554357.22844  20477421.8564   20477421.1064
      -194.6724       -151.6924
 96  8 31 19 16 59.9880000  0  8G26G28G 6G21G 3G17G23G22
 -18071719.13046  -2601742.60346  18939330.7774   18939329.5704
      -505.7034       -394.0544
 -27475455.662 6 -21409441.896 6  17135480.281    17135482.152
      2023.984        1577.131
 -19281978.18746 -15024920.12146  18670539.1524   18670538.2504
     -2031.3594      -1582.8774
 -13421600.61146 -10402807.41646  19151120.4184   19151120.1374
      3455.8134       2692.8414
  -3229885.87945  -2315964.21845  20260558.9884   20260558.2744
      4383.1564       3415.4464
 -41609554.16747 -32304904.16747  17035010.6214   17035009.4384
      1073.8134        836.7374
 -27760817.16447 -21478687.20046  17201130.8404   17201129.4924
      1472.7664       1147.6104
  -6695594.73145   -549649.13544  20478572.1454   20478572.2974
      -208.2034       -162.2364
 96  8 31 19 17 29.9880000  0  8G26G28G 6G21G 3G17G23G22
 -18056277.92946  -2589710.50546  18942268.7234   18942267.4454
      -523.2344       -407.7154
 -27535889.033 6 -21456532.839 6  17123980.211    17123982.020
      2005.297        1562.569
 -19220869.42046 -14977302.96146  18682168.0354   18682167.0984
     -2042.1564      -1591.2914
 -13525148.76446 -10483494.27146  19131416.1924   19131415.7344
      3447.9534       2686.7174
  -3361255.72145  -2418330.30345  20235559.7704   20235559.6884
      4375.2664       3409.2984
 -41641615.45347 -32329886.99147  17028909.5124   17028908.3404
      1063.7974        828.9334
 -27804823.64547 -21512977.96146  17192756.5904   17192755.3244
      1461.2504       1138.6364
  -6689140.95845   -544620.24244  20479800.0744   20479799.9224
      -221.5004       -172.5974
 96  8 31 19 17 59.9880000  0  8G26G28G 6G21G 3G17G23G22
 -18040315.73846  -2577272.45446  18945306.3564   18945305.1494
      -540.7034       -421.3274
 -27595757.362 6 -21503183.484 6  17112587.649    17112589.535
      1986.125        1547.630
 -19159426.66446 -14929425.54746  18693859.8094   18693858.8484
     -2053.9374      -1600.4714
 -13628463.42246 -10563999.18246  19111756.0354   19111755.3564
      3439.8444       2680.3984
  -3492388.10645  -2520511.36045  20210607.0514   20210606.0784
      4367.2344       3403.0404
 -41673359.17147 -32354622.36347  17022868.9184   17022867.8404
      1052.6884        820.2764
 -27848470.66947 -21546988.63046  17184451.0744   17184449.6564
      1448.6414       1128.8114
  -6682289.13745   -539281.20944  20481103.5674   20481102.6644
      -235.1414       -183.2264
 96  8 31 19 18 29.9880000  0  8G26G28G 6G21G 3G17G23G22
 -18023844.31246  -2564437.59446  18948441.1604   18948439.8364
      -557.3284       -434.2824
 -27655057.407 6 -21549391.319 6  17101303.305    17101304.965
      1967.203        1532.886
 -19097633.54046 -14881275.11646  18705618.7544   18705617.9924
     -2065.5004      -1609.4814
 -13731536.16646 -10644315.58146  19092142.0124   19092141.2854
      3431.6094       2673.9814
  -3623287.52245  -2622510.87244  20185696.9574   20185695.6564
      4359.4224       3396.9524
 -41704773.92147 -32379101.39347  17016890.8794   17016889.7314
      1041.7814        811.7784
 -27891743.34547 -21580707.59446  17176216.4184   17176215.2584
      1436.1724       1119.0954
  -6675041.66545   -533633.87244  20482483.7774   20482483.7664
      -247.9844       -193.2354
 96  8 31 19 18 59.9880000  0  8G26G28G 6G21G 3G17G23G22
 -18006860.38446  -2551203.37646  18951672.8484   18951671.8054
      -574.5944       -447.7354
 -27713779.673 6 -21595148.931 6  17090128.695    17090130.481
      1948.016        1517.934
 -19035489.82146 -14832851.49446  18717444.4024   18717443.4064
     -2077.0314      -1618.4664
 -13834351.45346 -10724431.36546  19072576.4184   19072575.8324
      3423.2504       2667.4684
  -3753943.59645  -2724320.74245  20160832.9104   20160832.1494
      4351.5164       3390.7914
 -41735861.63847 -32403325.59247  17010975.1604   17010974.0244
      1031.1564        803.4984
 -27934633.21247 -21614128.26846  17168054.8014   17168053.4654
      1423.5474       1109.2574
  -6667402.14945   -527681.04344  20483936.5124   20483935.9264
      -260.7974       -203.2184
 96  8 31 19 19 29.9880000  0  8G26G28G 6G21G 3G17G23G22
 -17989351.78946  -2537560.33746  18955004.8014   18955003.8524
      -592.8124       -461.9324
 -27771931.640 6 -21640462.155 6  17079062.840    17079064.598
      1928.703        1502.886
 -18973005.30346 -14784162.31946  18729334.8874   18729333.9614
     -2088.6564      -1627.5244
 -13936931.94746 -10804364.19646  19053056.3014   19053055.5744
      3415.5004       2661.4294
  -3884366.90345  -2825949.27944  20136014.4964   20136013.5594
      4343.3444       3384.4244
 -41766647.55547 -32427314.62947  17005116.8404   17005115.6214
      1021.3754        795.8774
 -27977144.70247 -21647254.10346  17159964.9654   17159963.7234
      1410.4064       1099.0184
  -6659394.37045   -521441.24445  20485461.0744   20485460.1724
      -273.1564       -212.8494
 96  8 31 19 19 59.9880000  0  8G26G28G 6G21G 3G17G23G22
 -17971290.61946  -2523486.71146  18958441.3244   18958440.2114
      -610.7664       -475.9214
 -27829506.398 6 -21685325.608 6  17068106.742    17068108.481
      1910.250        1488.506
 -18910181.91646 -14735209.08646  18741289.9814   18741289.2774
     -2098.9064      -1635.5114
 -14039285.27946 -10884120.02246  19033579.3714   19033578.9614
      3408.6094       2656.0594
  -4014547.11345  -2927388.36144  20111241.7234   20111241.1374
      4336.0314       3378.7264
 -41797160.13247 -32451090.66947  16999310.2544   16999308.9534
      1013.5474        789.7774
 -28019266.64547 -21680076.39346  17151949.5274   17151948.1454
      1398.2814       1089.5704
  -6651022.87445   -514918.03644  20487053.9024   20487054.3484
      -284.4224       -221.6274
 96  8 31 19 20 29.9880000  0  8G26G28G 6G21G 3G17G23G22
 -17952681.80646  -2508986.35046  18961982.5354   18961981.6334
      -630.0004       -490.9094
 -27886525.212 6 -21729755.857 6  17057256.488    17057258.207
      1890.906        1473.433
 -18847053.99046 -14686018.55546  18753302.9814   18753302.0314
     -2109.5624      -1643.8154
 -14141421.66446 -10963706.79446  19014142.9424   19014142.5084
      3400.2974       2649.5824
  -4144509.32245  -3028657.59144  20086511.3634   20086510.8134
      4328.0164       3372.4804
 -41827435.49547 -32474681.86547  16993549.1214   16993547.9264
      1004.7034        782.8864
 -28061027.23647 -21712617.10946  17144002.5044   17144001.1094
      1385.6094       1079.6964
  -6642311.04445   -508129.62644  20488711.4424   20488710.5274
      -296.4224       -230.9784
 96  8 31 19 20 59.9880000  0  8G26G28G 6G21G 3G17G23G22
 -17933490.54646  -2494032.14346  18965634.7704   18965633.2584
      -649.3124       -505.9584
 -27942963.142 6 -21773733.469 6  17046516.617    17046518.418
      1871.594        1458.385
 -18783611.53846 -14636582.93546  18765375.2544   18765374.3634
     -2119.9844      -1651.9364
 -14243307.04246 -11043097.98146  18994755.2624   18994754.6294
      3391.9694       2643.0934
  -4274229.60945  -3129738.29244  20061827.0434   20061826.7154
      4319.9384       3366.1854
 -41857448.52747 -32498068.65447  16987837.9494   16987836.8014
       996.0164        776.1164
 -28102406.23547 -21744860.48646  17136128.4884   17136127.0704
      1373.0164       1069.8824
  -6633235.06845   -501057.46744  20490438.4964   20490437.6994
      -308.7194       -240.5604
 96  8 31 19 21 29.9880000  0  8G26G28G 6G21G 3G17G23G22
 -17913739.71846  -2478641.90146  18969393.1994   18969392.0274
      -667.4534       -520.0934
 -27998826.201 6 -21817263.133 6  17035886.254    17035888.059
      1852.344        1443.385
 -18719854.72346 -14586902.36546  18777507.8564   18777506.8244
     -2130.7344      -1660.3124
 -14344944.07746 -11122295.64546  18975414.3404   18975414.0124
      3383.5164       2636.5064
  -4403717.78845  -3230638.15145  20037185.9424   20037185.2274
      4312.2344       3360.1834
 -41887205.22547 -32521255.70247  16982175.4264   16982174.0784
       987.5164        769.4934
 -28143416.48547 -21776816.52746  17128324.5514   17128323.2854
      1360.7664       1060.3374
  -6623789.44245   -493697.31544  20492236.0434   20492236.0314
      -321.2974       -250.3614
 96  8 31 19 21 59.9880000  0  8G26G28G 6G21G 3G17G23G22
 -17893467.38946  -2462845.29346  18973250.8634   18973249.1524
      -684.2974       -533.2184
 -28054118.222 6 -21860347.828 6  17025364.570    17025366.301
      1833.484        1428.689
 -18655788.52546 -14536980.72146  18789699.2624   18789698.6644
     -2140.6094      -1668.0074
 -14446319.73746 -11201289.65346  18956123.0744   18956122.3014
      3374.5004       2629.4814
  -4532984.26045  -3331365.23344  20012587.7934   20012587.8754
      4305.1884       3354.6924
 -41916706.44847 -32544243.67047  16976561.5594   16976560.5514
       978.8134        762.7114
 -28184068.79447 -21808493.64946  17120588.6374   17120587.0784
      1349.1564       1051.2914
  -6613975.12045   -486049.82644  20494104.0674   20494104.2424
      -333.2814       -259.7004
 96  8 31 19 22 29.9880000  0  8G26G28G 6G21G 3G17G23G22
 -17872696.57646  -2446660.26746  18977203.3174   18977201.5824
      -700.3594       -545.7354
 -28108840.495 6 -21902988.572 6  17014951.297    17014952.988
      1814.625        1413.994
 -18591420.37846 -14486823.78146  18801948.2314   18801947.7974
     -2150.6254      -1675.8124
 -14547415.84346 -11280065.81746  18936885.0594   18936884.4614
      3365.3284       2622.3344
  -4662031.42745  -3431921.46945  19988029.5514   19988028.8134
      4297.7344       3348.8844
 -41945932.04747 -32567016.87647  16971000.1134   16970998.9774
       969.5314        755.4794
 -28224373.68447 -21839900.05946  17112919.0044   17112917.7274
      1337.9224       1042.5374
  -6603796.20345   -478118.22144  20496039.9654   20496040.1294
      -345.2664       -269.0384
 96  8 31 19 22 59.9880000  0  8G26G28G 6G21G 3G17G23G22
 -17851453.91746  -2430107.55946  18981245.8794   18981244.3674
      -715.5314       -557.5574
 -28162995.988 6 -21945187.670 6  17004645.848    17004647.535
      1795.859        1399.371
 -18526748.30846 -14436430.02746  18814255.2854   18814254.4654
     -2160.7974      -1683.7384
 -14648248.17046 -11358636.44646  18917697.4184   18917696.8794
      3357.0944       2615.9174
  -4790840.03945  -3532291.78445  19963519.4424   19963518.7274
      4289.6094       3342.5534
 -41974888.31147 -32589580.20747  16965489.9024   16965488.7314
       960.9694        748.8074
 -28264341.51747 -21871043.82446  17105313.3794   17105312.1024
      1326.8284       1033.8924
  -6593258.39645   -469907.01744  20498046.3404   20498046.7504
      -357.1254       -278.2794
 96  8 31 19 23 29.9880000  0  8G26G28G 6G21G 3G17G23G22
 -17829752.69746  -2413197.53346  18985375.8874   18985374.4924
      -731.2194       -569.7814
 -28216582.695 6 -21986943.547 6  16994448.547    16994450.356
      1776.609        1384.371
 -18461767.25746 -14385795.50046  18826620.5354   18826619.7034
     -2171.1414      -1691.7984
 -14748834.27646 -11437015.20646  18898556.3634   18898555.6024
      3348.7504       2609.4164
  -4919399.82145  -3632468.19445  19939054.4734   19939054.1334
      4280.9224       3335.7834
 -42003582.26547 -32611939.14147  16960029.5124   16960028.2344
       952.1094        741.9034
 -28303970.18047 -21901923.30046  17097772.1924   17097770.9384
      1315.0474       1024.7124
  -6582361.35545   -461415.83944  20500120.1454   20500119.8994
      -369.1874       -287.6794
 96  8 31 19 23 59.9880000  0  8G26G28G 6G21G 3G17G23G22
 -17807581.39246  -2395921.20046  18989594.9884   18989593.4654
      -747.2664       -582.2854
 -28269602.240 6 -22028257.489 6  16984359.281    16984361.090
      1757.625        1369.578
 -18396497.88646 -14334936.30846  18839040.9814   18839040.3714
     -2180.4534      -1699.0544
 -14849181.73346 -11515208.01046  18879461.0674   18879460.4924
      3340.7504       2603.1824
  -5047693.65545  -3732437.39545  19914642.8634   19914641.5744
      4271.5944       3328.5154
 -42032017.76847 -32634096.68547  16954618.6134   16954617.4534
       943.2344        734.9884
 -28343252.00447 -21932532.51746  17090297.0744   17090295.8914
      1303.4534       1015.6784
  -6571123.11345   -452658.81844  20502258.6134   20502257.6294
      -380.4224       -296.4334
 96  8 31 19 24 29.9880000  0  8G26G28G 6G21G 3G17G23G22
 -17784937.98546  -2378277.00246  18993903.1524   18993901.8634
      -762.2504       -593.9614
 -28322056.909 6 -22069131.260 6  16974377.527    16974379.262
      1739.344        1355.333
 -18330951.83346 -14283861.52746  18851514.0594   18851513.5904
     -2189.1724      -1705.8484
 -14949302.04646 -11593223.81746  18860408.5744   18860407.8014
      3333.9694       2597.8984
  -5175702.94445  -3832184.86145  19890282.7154   19890280.9924
      4262.2974       3321.2704
 -42060196.91547 -32656054.47147  16949256.0274   16949254.6094
       935.5164        728.9734
 -28382196.73847 -21962879.06046  17082886.4734   17082884.9964
      1292.8284       1007.3994
  -6559547.06345   -443638.56544  20504462.3174   20504462.2584
      -391.1874       -304.8214
 96  8 31 19 24 59.9880000  0  8G26G28G 6G21G 3G17G23G22
 -17761820.23046  -2360263.17746  18998302.5744   18998301.4384
      -778.8914       -606.9284
 -28373943.628 6 -22109562.480 6  16964503.781    16964505.527
      1719.797        1340.101
 -18265129.34746 -14232571.35445  18864039.6134   18864038.7704
     -2198.9064      -1713.4334
 -15049201.18546 -11671067.28546  18841398.3014   18841397.7624
      3325.9224       2591.6274
  -5303415.24145  -3931700.92745  19865980.0674   19865979.3404
      4252.0164       3313.2594
 -42088130.52147 -32677820.92247  16943940.6684   16943939.4144
       926.7034        722.1064
 -28420795.90147 -21992956.33046  17075541.3564   17075540.0434
      1280.4844        997.7804
  -6547632.82045   -434354.78244  20506728.5044   20506728.0944
      -403.0624       -314.0754
 96  8 31 19 25 29.9880000  0  8G26G28G 6G21G 3G17G23G22
 -17738208.12646  -2341864.15646  19002795.8174   19002794.3754
      -795.4694       -619.8464
 -28425254.116 6 -22149544.685 6  16954739.742    16954741.504
      1700.625        1325.162
 -18199033.32646 -14181068.03445  18876617.5984   18876616.8714
     -2207.7664      -1720.3374
 -15148861.71646 -11748724.81946  18822433.7314   18822433.4024
      3317.8134       2585.3084
  -5430840.38345  -4030993.21245  19841731.2464   19841730.8954
      4242.5944       3305.9174
 -42115802.08047 -32699383.18747  16938674.9344   16938673.7384
       917.8284        715.1914
 -28459039.20647 -22022756.30746  17068263.7074   17068262.2074
      1268.8444        988.7094
  -6535378.45245   -424805.97144  20509060.5274   20509059.9064
      -414.1564       -322.7194
 96  8 31 19 25 59.9880000  0  8G26G28G 6G21G 3G17G23G22
 -17714100.07446  -2323078.67946  19007383.4964   19007381.9964
      -812.1094       -632.8124
 -28475984.980 6 -22189075.235 6  16945085.981    16945087.817
      1681.109        1309.955
 -18132666.13146 -14129353.40645  18889247.0824   18889246.3204
     -2217.0784      -1727.5934
 -15248275.52146 -11826190.10946  18803515.7624   18803514.9184
      3309.4384       2578.7824
  -5557975.75145  -4130059.69945  19817538.1374   19817537.0354
      4233.0164       3298.4544
 -42143201.43447 -32720733.34047  16933461.0044   16933459.8794
       908.4224        707.8614
 -28496938.56647 -22052288.27946  17061051.4814   17061050.0274
      1257.5004        979.8704
  -6522791.67045   -414998.14044  20511456.4814   20511456.7274
      -425.3594       -331.4494
 96  8 31 19 26 29.9880000  0  8G26G28G 6G21G 3G17G23G22
 -17689489.86046  -2303901.91746  19012066.6684   19012065.5904
      -828.7974       -645.8164
 -28526128.860 6 -22228148.398 6  16935543.969    16935545.746
      1661.688        1294.821
 -18066010.75546 -14077414.22345  18901930.6374   18901929.7234
     -2226.7344      -1735.1184
 -15347438.15446 -11903459.67346  18784645.9184   18784645.2384
      3301.3284       2572.4634
  -5684836.89445  -4228912.52145  19793397.8094   19793396.5674
      4224.4064       3291.7454
 -42170317.33647 -32741862.62947  16928301.0044   16928299.7974
       899.1414        700.6294
 -28534496.06647 -22081553.86946  17053904.7234   17053903.1174
      1246.1724        971.0434
  -6509863.19345   -404924.04544  20513916.0434   20513914.9184
      -436.6254       -340.2274
 96  8 31 19 26 59.9880000  0  8G26G28G 6G21G 3G17G23G22
 -17664366.04146  -2284324.92946  19016847.4574   19016845.8524
      -846.0314       -659.2454
 -28575684.527 6 -22266763.203 6  16926113.844    16926115.582
      1642.016        1279.493
 -17999055.65246 -14025241.49345  18914672.0594   18914671.1094
     -2236.8914      -1743.0324
 -15446355.96146 -11980538.45746  18765822.5204   18765821.7704
      3293.2344       2566.1574
  -5811448.00645  -4327570.49745  19769302.8404   19769301.9494
      4216.2814       3285.4144
 -42197141.95047 -32762764.92747  16923196.4344   16923195.2974
       889.0634        692.7764
 -28571704.81647 -22110547.69346  17046823.8324   17046822.3204
      1234.4844        961.9364
  -6496590.11445   -394581.41244  20516442.0594   20516441.8484
      -448.2664       -349.2984
 96  8 31 19 27 29.9880000  0  8G26G28G 6G21G 3G17G23G22
 -17638728.04446  -2264347.28746  19021726.2774   19021725.0124
      -863.0474       -672.5044
 -28624648.485 6 -22304916.949 6  16916796.317    16916798.152
      1622.344        1264.164
 -17931798.48946 -13972833.38045  18927470.6764   18927470.2544
     -2246.9064      -1750.8364
 -15545034.26046 -12057430.62446  18747044.6994   18747043.9384
      3285.5164       2560.1424
  -5937806.12245  -4426031.36045  19745258.1214   19745257.5704
      4207.6094       3278.6574
 -42223658.97447 -32783427.55347  16918150.3484   16918149.1884
       878.9534        684.8994
 -28608571.97547 -22139275.35346  17039808.5204   17039806.9384
      1223.5314        953.4014
  -6482967.96845   -383966.80544  20519034.3954   20519033.5394
      -459.7034       -358.2104
 96  8 31 19 27 59.9880000  0  8G26G28G 6G21G 3G17G23G22
 -17612585.30446  -2243976.33546  19026701.0594   19026699.9104
      -879.6874       -685.4714
 -28673023.616 6 -22342611.869 6  16907590.805    16907592.645
      1602.859        1248.981
 -17864232.90746 -13920184.94045  18940327.9184   18940327.0514
     -2257.2194      -1758.8724
 -15643486.84246 -12134146.89746  18728309.4884   18728308.8204
      3278.1724       2554.4204
  -6063902.62646  -4524288.32645  19721262.9654   19721261.9814
      4199.1254       3272.0454
 -42249879.84747 -32803859.41047  16913160.7154   16913159.5434
       869.1884        677.2894
 -28645115.15747 -22167750.55746  17032854.3634   17032852.8754
      1212.8134        945.0494
  -6469004.77645   -373086.48144  20521691.6684   20521691.0354
      -471.0624       -367.0624
 96  8 31 19 28 29.9880000  0  8G26G28G 6G21G 3G17G23G22
 -17585938.02746  -2223212.24145  19031772.1294   19031770.5824
      -896.3754       -698.4744
 -28720810.880 6 -22379848.698 6  16898497.192    16898498.996
      1583.219        1233.677
 -17796355.34346 -13867293.39245  18953244.7624   18953244.2234
     -2267.7814      -1767.1024
 -15741714.93246 -12210688.24546  18709617.6374   18709616.7934
      3270.6564       2548.5634
  -6189736.34646  -4622340.55845  19697317.5124   19697316.7624
      4189.9694       3264.9114
 -42275796.93647 -32824054.55747  16908229.0514   16908227.7034
       858.8914        669.2654
 -28681330.61747 -22195970.39546  17025963.0824   17025961.6994
      1201.9064        936.5504
  -6454690.89745   -361932.83544  20524414.1214   20524414.1924
      -482.9374       -376.3154
 96  8 31 19 28 59.9880000  0  8G26G28G 6G21G 3G17G23G22
 -17558802.34946  -2202067.56446  19036935.4424   19036933.8954
      -912.6564       -711.1614
 -28768012.223 6 -22416628.976 6  16889515.137    16889516.809
      1563.500        1218.312
 -17728166.82646 -13814159.55445  18966220.4654   18966219.9964
     -2277.9844      -1775.0534
 -15839724.73046 -12287059.49646  18690966.5514   18690965.6724
      3263.1884       2542.7444
  -6315290.00346  -4720174.56145  19673426.5674   19673425.4774
      4180.0314       3257.1674
 -42301407.32347 -32844010.71047  16903355.5824   16903354.4344
       848.4694        661.1444
 -28717226.66347 -22223941.34346  17019132.1454   17019130.7624
      1191.1094        928.1374
  -6440025.42645   -350505.23544  20527205.4264   20527205.5784
      -494.5944       -385.3984
 96  8 31 19 29 29.9880000  0  8G26G28G 6G21G 3G17G23G22
 -17531188.14646  -2180550.03145  19042190.2314   19042189.0944
      -928.4224       -723.4464
 -28814627.686 6 -22452952.723 6  16880644.484    16880646.199
      1544.109        1203.202
 -17659689.61446 -13760800.74445  18979251.5044   18979251.0004
     -2287.2504      -1782.2734
 -15937508.86246 -12363254.90946  18672359.2464   18672358.4384
      3255.5784       2536.8144
  -6440543.99146  -4817775.04245  19649590.7234   19649589.7854
      4170.2664       3249.5584
 -42326717.51647 -32863732.95247  16898538.9884   16898537.7934
       838.9064        653.6934
 -28752810.41747 -22251668.94346  17012360.6524   17012359.2234
      1180.9844        920.2484
  -6425027.59844   -338818.67943  20530059.8794   20530059.7624
      -505.4064       -393.8234
 96  8 31 19 29 59.9880000  0  8G26G28G 6G21G 3G17G23G22
 -17503090.85446  -2158656.05145  19047537.1134   19047535.8594
      -944.5314       -735.9984
 -28860650.595 6 -22488814.734 6  16871886.574    16871888.363
      1524.266        1187.739
 -17590928.95446 -13707221.07945  18992336.3404   18992335.6604
     -2296.3914      -1789.3954
 -16035046.34646 -12439258.11646  18653798.2934   18653797.7544
      3247.0634       2530.1794
  -6565503.81646  -4915146.30445  19625812.2314   19625811.3404
      4160.6564       3242.0704
 -42351734.03847 -32883226.34647  16893778.8174   16893777.5634
       829.0164        645.9864
 -28788063.92447 -22279139.20046  17005652.3094   17005650.6804
      1169.2034        911.0674
  -6409692.55044   -326869.32743  20532977.5594   20532977.7344
      -516.8284       -402.7234
 96  8 31 19 30 29.9880000  0  8G26G28G 6G21G 3G17G23G22
 -17474521.87246  -2136394.53245  19052974.0594   19052972.6064
      -960.1564       -748.1744
 -28906090.756 6 -22524222.662 6  16863239.606    16863241.387
      1504.875        1172.630
 -17521921.47746 -13653449.08645  19005468.0904   19005467.7744
     -2304.2504      -1795.5194
 -16132336.83646 -12515068.86746  18635284.2854   18635283.7464
      3238.7664       2523.7134
  -6690183.45246  -5012299.23945  19602086.1524   19602084.8524
      4151.1254       3234.6434
 -42376467.61847 -32902499.27247  16889071.9884   16889070.6994
       819.8594        638.8514
 -28822965.80847 -22306335.47746  16999010.6454   16999009.2854
      1157.4224        901.8874
  -6394028.85245   -314663.91543  20535959.3174   20535959.5044
      -527.4534       -411.0024
